Darstellungsparameter: Aktuell verwendete Einstellungen:
Skalierung der Graphiken ... ?
xyx+y,   Skalierungsfaktor:      Skalierung: Modus: x, Faktor: 1
Darstellungszeitraum ... ?
Vom - - bis: - -   Zeitraum: 01.12.2019 - 29.12.2019
Min/Max/Avg-Anzeige ... ?
Zeige MMA aktuell
Zeige MMA Monat
Zeige MMA alles
Zeige --A aktuell
Zeige --A Monat
Zeige --A alles
Keine MMA-Anzeige
MMA:
Minimum Maximum Average (ber die Originaldaten)
MMA-Basis: 01.12.2019 - 29.12.2019
Quicknavigation für Darstellung... ?
Tage:      1T, 2T, 3T, 5T -1T -2T -3T -5T +1T +2T +3T +5T
Wochen: 1W, 2W, 3W -1W -2W -3W +1W +2W +3W
Monate: 1M, 3M, 6M -1M -3M -6M +1M +3M +6M
Jahre:    1J, 3J, 5J, 10J -1J -3J -5J -10J +1J +3J +5J +10J
Nutze für die Darstellung ... ?
Originaldaten oder Mittelwerte auf ...
Stundenbasis Tagesbasis Wochenbasis
Monatsbasis Jahresbasis      Datenbasis: Original-Daten
Darstellen als:
Statistik (Auto) Statistik J:M      Darstellung:
Zur Graphik,    zurück zur Übersicht aller Sensoren.
 
Tabellarische Datenbersicht: ?
 
Sensor: Nr:Datum:Temp:Feuchte:
Aussen-T/F 1 01-12-2019 00:00:17 -0.2 C 43 %
2 01-12-2019 00:10:17 -0.3 C 43 %
3 01-12-2019 00:20:17 -0.3 C 43 %
4 01-12-2019 00:30:17 -0.3 C 43 %
5 01-12-2019 00:40:17 -0.3 C 43 %
6 01-12-2019 00:50:18 -0.2 C 43 %
7 01-12-2019 01:00:17 0 C 44 %
8 01-12-2019 01:10:17 -0.1 C 43 %
9 01-12-2019 01:20:17 -0.1 C 43 %
10 01-12-2019 01:30:17 -0.1 C 43 %
11 01-12-2019 01:40:17 -0.1 C 43 %
12 01-12-2019 01:50:17 -0.2 C 43 %
13 01-12-2019 02:00:17 -0.1 C 43 %
14 01-12-2019 02:10:17 -0.2 C 43 %
15 01-12-2019 02:20:17 -0.2 C 43 %
16 01-12-2019 02:30:17 -0.2 C 43 %
17 01-12-2019 02:40:17 -0.3 C 43 %
18 01-12-2019 02:50:17 -0.2 C 43 %
19 01-12-2019 03:00:17 -0.3 C 43 %
20 01-12-2019 03:10:17 -0.3 C 43 %
21 01-12-2019 03:20:17 -0.4 C 43 %
22 01-12-2019 03:30:17 -0.4 C 43 %
23 01-12-2019 03:40:17 -0.4 C 43 %
24 01-12-2019 03:50:17 -0.4 C 43 %
25 01-12-2019 04:00:17 -0.4 C 43 %
Sensor: Nr:Datum:Temp:Feuchte:
Aussen-T/F 26 01-12-2019 04:10:17 -0.8 C 42 %
27 01-12-2019 04:20:17 -1.1 C 42 %
28 01-12-2019 04:30:17 -1.3 C 42 %
29 01-12-2019 04:40:17 -0.9 C 43 %
30 01-12-2019 04:50:17 -0.9 C 43 %
31 01-12-2019 05:00:17 -0.7 C 43 %
32 01-12-2019 05:10:17 -0.8 C 43 %
33 01-12-2019 05:20:17 -0.9 C 43 %
34 01-12-2019 05:30:17 -1.1 C 43 %
35 01-12-2019 05:40:17 -1 C 43 %
36 01-12-2019 05:50:17 -0.9 C 43 %
37 01-12-2019 06:00:17 -1 C 43 %
38 01-12-2019 06:10:17 -1.1 C 43 %
39 01-12-2019 06:20:17 -1.3 C 43 %
40 01-12-2019 06:30:17 -1 C 43 %
41 01-12-2019 06:40:17 -0.9 C 43 %
42 01-12-2019 06:50:17 -0.9 C 43 %
43 01-12-2019 07:00:17 -0.8 C 43 %
44 01-12-2019 07:10:17 -0.7 C 43 %
45 01-12-2019 07:20:17 -0.5 C 43 %
46 01-12-2019 07:30:17 -0.5 C 43 %
47 01-12-2019 07:40:17 -0.3 C 43 %
48 01-12-2019 07:50:17 -0.2 C 43 %
49 01-12-2019 08:00:17 -0.1 C 43 %
50 01-12-2019 08:10:17 -0.1 C 43 %
Sensor: Nr:Datum:Temp:Feuchte:
Aussen-T/F 51 01-12-2019 08:20:17 -0.2 C 43 %
52 01-12-2019 08:30:17 -0.2 C 43 %
53 01-12-2019 08:40:17 -0.2 C 43 %
54 01-12-2019 08:50:17 0 C 43 %
55 01-12-2019 09:00:17 0 C 42 %
56 01-12-2019 09:10:17 0.2 C 42 %
57 01-12-2019 09:20:17 0.1 C 42 %
58 01-12-2019 09:30:17 0.1 C 42 %
59 01-12-2019 09:40:17 0.2 C 41 %
60 01-12-2019 09:50:17 0.3 C 41 %
61 01-12-2019 10:00:17 0.5 C 41 %
62 01-12-2019 10:10:17 0.6 C 41 %
63 01-12-2019 10:20:17 0.7 C 40 %
64 01-12-2019 10:30:17 0.8 C 39 %
65 01-12-2019 10:40:17 1 C 38 %
66 01-12-2019 10:50:17 1.1 C 37 %
67 01-12-2019 11:00:17 1.4 C 36 %
68 01-12-2019 11:10:17 1.9 C 34 %
69 01-12-2019 11:20:17 2.1 C 32 %
70 01-12-2019 11:30:17 2.7 C 30 %
71 01-12-2019 11:40:17 3 C 27 %
72 01-12-2019 11:50:17 2.9 C 20 %
73 01-12-2019 12:00:17 3 C 21 %
74 01-12-2019 12:10:17 3.1 C 20 %
75 01-12-2019 12:20:17 3.3 C 20 %
Sensor: Nr:Datum:Temp:Feuchte:
Aussen-T/F 76 01-12-2019 12:30:18 3.3 C 20 %
77 01-12-2019 12:40:18 3.3 C 20 %
78 01-12-2019 12:50:18 3.4 C 20 %
79 01-12-2019 13:00:17 3.3 C 20 %
80 01-12-2019 13:10:17 3.4 C 20 %
81 01-12-2019 13:20:18 3.5 C 20 %
82 01-12-2019 13:30:18 3.5 C 20 %
83 01-12-2019 13:40:18 3.6 C 20 %
84 01-12-2019 13:50:17 3.8 C 20 %
85 01-12-2019 14:00:17 3.9 C 20 %
86 01-12-2019 14:10:18 3.9 C 20 %
87 01-12-2019 14:20:18 3.7 C 20 %
88 01-12-2019 14:30:17 3.7 C 20 %
89 01-12-2019 14:40:17 3.6 C 20 %
90 01-12-2019 14:50:17 3.6 C 20 %
91 01-12-2019 15:00:17 3.5 C 20 %
92 01-12-2019 15:10:17 3.3 C 20 %
93 01-12-2019 15:20:17 3.2 C 21 %
94 01-12-2019 15:30:17 3 C 20 %
95 01-12-2019 15:40:17 3 C 21 %
96 01-12-2019 15:50:17 2.7 C 25 %
97 01-12-2019 16:00:17 2.6 C 25 %
98 01-12-2019 16:10:17 2.5 C 25 %
99 01-12-2019 16:20:17 2.4 C 25 %
100 01-12-2019 16:30:18 2.4 C 25 %
Sensor: Nr:Datum:Temp:Feuchte:
Aussen-T/F 101 01-12-2019 16:40:18 2.2 C 25 %
102 01-12-2019 16:50:18 2.2 C 25 %
103 01-12-2019 17:00:18 2.2 C 25 %
104 01-12-2019 17:10:18 2.2 C 25 %
105 01-12-2019 17:20:17 2.3 C 25 %
106 01-12-2019 17:30:17 2.3 C 25 %
107 01-12-2019 17:40:17 2.3 C 25 %
108 01-12-2019 17:50:17 2.3 C 25 %
109 01-12-2019 18:00:17 2.3 C 25 %
110 01-12-2019 18:10:17 2.3 C 25 %
111 01-12-2019 18:20:17 2.3 C 25 %
112 01-12-2019 18:30:17 2.3 C 25 %
113 01-12-2019 18:40:17 2.3 C 25 %
114 01-12-2019 18:50:17 2.3 C 23 %
115 01-12-2019 19:00:17 2.3 C 23 %
116 01-12-2019 19:10:18 2.4 C 25 %
117 01-12-2019 19:20:17 2.3 C 25 %
118 01-12-2019 19:30:17 2.3 C 25 %
119 01-12-2019 19:40:17 2.3 C 25 %
120 01-12-2019 19:50:17 2.2 C 26 %
121 01-12-2019 20:00:17 2.5 C 25 %
122 01-12-2019 20:10:17 2.2 C 25 %
123 01-12-2019 20:20:17 2.1 C 25 %
124 01-12-2019 20:30:18 2.1 C 25 %
125 01-12-2019 20:40:18 2.1 C 25 %
Sensor: Nr:Datum:Temp:Feuchte:
Aussen-T/F 126 01-12-2019 20:50:17 2 C 27 %
127 01-12-2019 21:00:17 1.9 C 27 %
128 01-12-2019 21:10:17 1.8 C 28 %
129 01-12-2019 21:20:17 1.6 C 30 %
130 01-12-2019 21:30:18 1.5 C 29 %
131 01-12-2019 21:40:18 1.6 C 28 %
132 01-12-2019 21:50:17 1.6 C 28 %
133 01-12-2019 22:00:17 1.5 C 29 %
134 01-12-2019 22:10:17 1.4 C 29 %
135 01-12-2019 22:20:17 1.4 C 30 %
136 01-12-2019 22:30:18 1.3 C 28 %
137 01-12-2019 22:40:18 1.2 C 29 %
138 01-12-2019 22:50:17 1.1 C 29 %
139 01-12-2019 23:00:17 0.8 C 30 %
140 01-12-2019 23:10:17 0.8 C 30 %
141 01-12-2019 23:20:18 0.7 C 30 %
142 01-12-2019 23:30:17 0.5 C 32 %
143 01-12-2019 23:40:17 0.3 C 33 %
144 01-12-2019 23:50:17 0.2 C 33 %
145 02-12-2019 00:00:17 0.1 C 33 %
146 02-12-2019 00:10:17 0.2 C 33 %
147 02-12-2019 00:20:17 0.3 C 32 %
148 02-12-2019 00:30:17 0.3 C 32 %
149 02-12-2019 00:40:17 0.2 C 32 %
150 02-12-2019 00:50:18 0.2 C 35 %
Sensor: Nr:Datum:Temp:Feuchte:
Aussen-T/F 151 02-12-2019 01:00:17 0.1 C 36 %
152 02-12-2019 01:10:17 0 C 38 %
153 02-12-2019 01:20:17 -0.2 C 36 %
154 02-12-2019 01:30:17 0.2 C 34 %
155 02-12-2019 01:40:17 -0.2 C 35 %
156 02-12-2019 01:50:17 -0.9 C 35 %
157 02-12-2019 02:00:18 -0.9 C 37 %
158 02-12-2019 02:10:18 -0.9 C 37 %
159 02-12-2019 02:20:17 -0.5 C 37 %
160 02-12-2019 02:30:17 -1 C 36 %
161 02-12-2019 02:40:17 -1.1 C 37 %
162 02-12-2019 02:50:17 -1.1 C 36 %
163 02-12-2019 03:00:17 -1 C 37 %
164 02-12-2019 03:10:17 -1.2 C 38 %
165 02-12-2019 03:20:17 -1.3 C 37 %
166 02-12-2019 03:30:18 -1.3 C 38 %
167 02-12-2019 03:40:18 -1.4 C 37 %
168 02-12-2019 03:50:17 -1.4 C 37 %
169 02-12-2019 04:00:18 -1.7 C 39 %
170 02-12-2019 04:10:18 -1.4 C 40 %
171 02-12-2019 04:20:17 -1.1 C 40 %
172 02-12-2019 04:30:17 -1 C 40 %
173 02-12-2019 04:40:17 -0.8 C 36 %
174 02-12-2019 04:50:17 -1.1 C 37 %
175 02-12-2019 05:00:17 -1.4 C 40 %
Sensor: Nr:Datum:Temp:Feuchte:
Aussen-T/F 176 02-12-2019 05:10:17 -1.1 C 40 %
177 02-12-2019 05:20:17 -1.2 C 39 %
178 02-12-2019 05:30:17 -1.6 C 40 %
179 02-12-2019 05:40:17 -1.4 C 41 %
180 02-12-2019 05:50:17 -1.3 C 42 %
181 02-12-2019 06:00:17 -1.2 C 41 %
182 02-12-2019 06:10:17 -1.3 C 39 %
183 02-12-2019 06:20:17 -1.2 C 39 %
184 02-12-2019 06:30:17 -1.4 C 38 %
185 02-12-2019 06:40:17 -1.4 C 40 %
186 02-12-2019 06:50:17 -1.8 C 37 %
187 02-12-2019 07:00:17 -2.4 C 38 %
188 02-12-2019 07:10:17 -2.6 C 40 %
189 02-12-2019 07:20:17 -2.9 C 40 %
190 02-12-2019 07:30:17 -2.7 C 42 %
191 02-12-2019 07:40:17 -2.6 C 42 %
192 02-12-2019 07:50:17 -2.4 C 43 %
193 02-12-2019 08:00:17 -1.9 C 45 %
194 02-12-2019 08:10:18 -1.6 C 44 %
195 02-12-2019 08:20:17 -1.3 C 44 %
196 02-12-2019 08:30:17 -1 C 43 %
197 02-12-2019 08:40:17 -0.7 C 43 %
198 02-12-2019 08:50:17 -0.5 C 42 %
199 02-12-2019 09:00:17 -0.5 C 40 %
200 02-12-2019 09:10:17 -0.4 C 38 %
Sensor: Nr:Datum:Temp:Feuchte:
Aussen-T/F 201 02-12-2019 09:20:17 -0.4 C 36 %
202 02-12-2019 09:30:17 -0.4 C 36 %
203 02-12-2019 09:40:17 0 C 36 %
204 02-12-2019 09:50:17 0 C 35 %
205 02-12-2019 10:00:17 0.1 C 35 %
206 02-12-2019 10:10:17 0.1 C 34 %
207 02-12-2019 10:20:17 0.2 C 35 %
208 02-12-2019 10:30:17 0.5 C 36 %
209 02-12-2019 10:40:17 1 C 31 %
210 02-12-2019 10:50:17 0.8 C 31 %
211 02-12-2019 11:00:17 1.2 C 30 %
212 02-12-2019 11:10:17 1.1 C 30 %
213 02-12-2019 11:20:17 1.2 C 30 %
214 02-12-2019 11:30:17 0.9 C 31 %
215 02-12-2019 11:40:18 1 C 31 %
216 02-12-2019 11:50:17 0.8 C 32 %
217 02-12-2019 12:00:18 1.6 C 31 %
218 02-12-2019 12:10:18 2.3 C 27 %
219 02-12-2019 12:20:17 2.8 C 25 %
220 02-12-2019 12:30:17 3.1 C 26 %
221 02-12-2019 12:40:17 3 C 25 %
222 02-12-2019 12:50:18 3.2 C 26 %
223 02-12-2019 13:00:17 3.2 C 26 %
224 02-12-2019 13:10:17 3.5 C 25 %
225 02-12-2019 13:20:17 3.9 C 25 %
Sensor: Nr:Datum:Temp:Feuchte:
Aussen-T/F 226 02-12-2019 13:30:17 3.9 C 25 %
227 02-12-2019 13:40:17 3.8 C 25 %
228 02-12-2019 13:50:17 3.6 C 25 %
229 02-12-2019 14:00:17 4 C 26 %
230 02-12-2019 14:10:17 3.7 C 28 %
231 02-12-2019 14:20:17 3.7 C 30 %
232 02-12-2019 14:30:17 4.1 C 27 %
233 02-12-2019 14:40:17 4.3 C 27 %
234 02-12-2019 14:50:17 4.5 C 27 %
235 02-12-2019 15:00:18 4.3 C 28 %
236 02-12-2019 15:10:18 4.3 C 29 %
237 02-12-2019 15:20:17 4.7 C 27 %
238 02-12-2019 15:30:17 4.4 C 27 %
239 02-12-2019 15:40:17 4.1 C 31 %
240 02-12-2019 15:50:17 3.9 C 36 %
241 02-12-2019 16:00:18 3.7 C 37 %
242 02-12-2019 16:10:18 3.6 C 37 %
243 02-12-2019 16:20:17 3.5 C 40 %
244 02-12-2019 16:30:17 3.5 C 38 %
245 02-12-2019 16:40:17 3.5 C 35 %
246 02-12-2019 16:50:17 3.5 C 35 %
247 02-12-2019 17:00:17 3.3 C 36 %
248 02-12-2019 17:10:17 3.2 C 39 %
249 02-12-2019 17:20:17 3.2 C 36 %
250 02-12-2019 17:30:18 3.3 C 36 %
Sensor: Nr:Datum:Temp:Feuchte:
Aussen-T/F 251 02-12-2019 17:40:18 3.4 C 35 %
252 02-12-2019 17:50:17 3.3 C 35 %
253 02-12-2019 18:01:17 3.1 C 36 %
254 02-12-2019 18:11:17 3.2 C 37 %
255 02-12-2019 18:21:17 3.2 C 36 %
256 02-12-2019 18:30:17 3 C 36 %
257 02-12-2019 18:40:17 2.5 C 40 %
258 02-12-2019 18:50:17 2.2 C 40 %
259 02-12-2019 19:00:17 2.1 C 42 %
260 02-12-2019 19:10:17 2.7 C 43 %
261 02-12-2019 19:21:17 2.7 C 42 %
262 02-12-2019 19:30:17 2.7 C 41 %
263 02-12-2019 19:40:17 2.9 C 42 %
264 02-12-2019 19:51:17 2.9 C 42 %
265 02-12-2019 20:01:17 2.9 C 39 %
266 02-12-2019 20:11:17 2.8 C 38 %
267 02-12-2019 20:21:17 2.9 C 37 %
268 02-12-2019 20:31:17 2.9 C 38 %
269 02-12-2019 20:40:17 2.8 C 40 %
270 02-12-2019 20:51:17 2.7 C 42 %
271 02-12-2019 21:00:17 2.7 C 42 %
272 02-12-2019 21:10:17 2.7 C 42 %
273 02-12-2019 21:21:17 2.7 C 42 %
274 02-12-2019 21:30:18 2.7 C 42 %
275 02-12-2019 21:40:18 2.6 C 41 %
Sensor: Nr:Datum:Temp:Feuchte:
Aussen-T/F 276 02-12-2019 21:51:17 2.6 C 42 %
277 02-12-2019 22:01:17 2.6 C 41 %
278 02-12-2019 22:11:17 2.6 C 41 %
279 02-12-2019 22:21:17 2.6 C 41 %
280 02-12-2019 22:30:18 2.5 C 40 %
281 02-12-2019 22:40:18 2.5 C 41 %
282 02-12-2019 22:51:17 2.4 C 41 %
283 02-12-2019 23:01:17 2.5 C 41 %
284 02-12-2019 23:11:17 2.4 C 42 %
285 02-12-2019 23:21:17 2.5 C 42 %
286 02-12-2019 23:31:17 2.5 C 42 %
287 02-12-2019 23:41:17 2.5 C 42 %
288 02-12-2019 23:50:18 2.5 C 42 %
289 03-12-2019 00:01:17 2.5 C 42 %
290 03-12-2019 00:11:17 2.5 C 42 %
291 03-12-2019 00:21:17 2.5 C 41 %
292 03-12-2019 00:30:18 2.5 C 41 %
293 03-12-2019 00:40:18 2.6 C 41 %
294 03-12-2019 00:51:17 2.6 C 41 %
295 03-12-2019 01:01:18 2.6 C 41 %
296 03-12-2019 01:11:18 2.6 C 41 %
297 03-12-2019 01:21:17 2.7 C 41 %
298 03-12-2019 01:31:17 2.7 C 41 %
299 03-12-2019 01:41:17 2.7 C 42 %
300 03-12-2019 01:51:17 2.7 C 42 %
Sensor: Nr:Datum:Temp:Feuchte:
Aussen-T/F 301 03-12-2019 02:01:17 2.7 C 42 %
302 03-12-2019 02:11:17 2.8 C 42 %
303 03-12-2019 02:21:17 2.8 C 42 %
304 03-12-2019 02:31:17 2.8 C 42 %
305 03-12-2019 02:41:17 2.9 C 42 %
306 03-12-2019 02:51:17 2.8 C 42 %
307 03-12-2019 03:01:17 2.8 C 42 %
308 03-12-2019 03:11:17 2.8 C 42 %
309 03-12-2019 03:21:17 2.8 C 42 %
310 03-12-2019 03:31:17 2.9 C 42 %
311 03-12-2019 03:41:17 3 C 42 %
312 03-12-2019 03:51:17 3 C 42 %
313 03-12-2019 04:01:17 3 C 42 %
314 03-12-2019 04:11:17 3 C 42 %
315 03-12-2019 04:21:17 3 C 42 %
316 03-12-2019 04:31:17 3.1 C 42 %
317 03-12-2019 04:41:17 3.1 C 42 %
318 03-12-2019 04:51:17 3.1 C 42 %
319 03-12-2019 05:01:17 3.1 C 42 %
320 03-12-2019 05:11:17 3.1 C 42 %
321 03-12-2019 05:21:17 3.1 C 42 %
322 03-12-2019 05:31:17 3.2 C 42 %
323 03-12-2019 05:41:17 3.2 C 41 %
324 03-12-2019 05:51:17 3.2 C 41 %
325 03-12-2019 06:01:18 3.2 C 41 %
Sensor: Nr:Datum:Temp:Feuchte:
Aussen-T/F 326 03-12-2019 06:11:18 3.2 C 41 %
327 03-12-2019 06:21:17 3.2 C 41 %
328 03-12-2019 06:31:17 3.3 C 41 %
329 03-12-2019 06:41:17 3.3 C 41 %
330 03-12-2019 06:51:18 3.3 C 41 %
331 03-12-2019 07:01:17 3.3 C 41 %
332 03-12-2019 07:11:17 3.3 C 41 %
333 03-12-2019 07:21:17 3.3 C 41 %
334 03-12-2019 07:31:17 3.2 C 41 %
335 03-12-2019 07:41:17 3.3 C 41 %
336 03-12-2019 07:51:17 3.3 C 42 %
337 03-12-2019 08:01:17 3.3 C 42 %
338 03-12-2019 08:11:17 3.4 C 42 %
339 03-12-2019 08:21:17 3.3 C 42 %
340 03-12-2019 08:31:17 3.4 C 42 %
341 03-12-2019 08:41:17 3.4 C 41 %
342 03-12-2019 08:51:17 3.4 C 41 %
343 03-12-2019 09:01:17 3.5 C 42 %
344 03-12-2019 09:11:17 3.5 C 42 %
345 03-12-2019 09:21:17 3.5 C 41 %
346 03-12-2019 09:31:17 3.6 C 41 %
347 03-12-2019 09:41:17 3.6 C 41 %
348 03-12-2019 09:51:17 3.7 C 41 %
349 03-12-2019 10:01:17 3.7 C 41 %
350 03-12-2019 10:11:17 3.8 C 41 %
Sensor: Nr:Datum:Temp:Feuchte:
Aussen-T/F 351 03-12-2019 10:21:17 3.8 C 41 %
352 03-12-2019 10:31:17 3.8 C 41 %
353 03-12-2019 10:41:17 4.1 C 40 %
354 03-12-2019 10:51:17 4.1 C 40 %
355 03-12-2019 11:01:18 4.3 C 39 %
356 03-12-2019 11:11:18 4.3 C 37 %
357 03-12-2019 11:21:17 4.4 C 37 %
358 03-12-2019 11:31:17 4.6 C 37 %
359 03-12-2019 11:41:17 4.6 C 37 %
360 03-12-2019 11:51:17 4.7 C 37 %
361 03-12-2019 12:01:17 4.7 C 37 %
362 03-12-2019 12:11:17 4.9 C 35 %
363 03-12-2019 12:21:17 5 C 34 %
364 03-12-2019 12:31:17 5 C 35 %
365 03-12-2019 12:41:17 5.2 C 35 %
366 03-12-2019 12:51:18 5.3 C 34 %
367 03-12-2019 13:01:17 5.6 C 34 %
368 03-12-2019 13:11:17 5.8 C 33 %
369 03-12-2019 13:21:17 5.8 C 32 %
370 03-12-2019 13:31:17 5.7 C 32 %
371 03-12-2019 13:41:17 5.9 C 32 %
372 03-12-2019 13:51:18 6.1 C 31 %
373 03-12-2019 14:01:17 6.1 C 31 %
374 03-12-2019 14:11:17 6.2 C 31 %
375 03-12-2019 14:21:17 6.1 C 31 %
Sensor: Nr:Datum:Temp:Feuchte:
Aussen-T/F 376 03-12-2019 14:31:17 6.3 C 31 %
377 03-12-2019 14:41:17 6.2 C 30 %
378 03-12-2019 14:51:18 6.4 C 31 %
379 03-12-2019 15:01:17 6.2 C 30 %
380 03-12-2019 15:11:17 6.3 C 31 %
381 03-12-2019 15:21:17 6.3 C 31 %
382 03-12-2019 15:31:17 6.2 C 31 %
383 03-12-2019 15:41:17 6.1 C 32 %
384 03-12-2019 15:51:17 6 C 33 %
385 03-12-2019 16:01:17 5.7 C 36 %
386 03-12-2019 16:11:17 5.6 C 39 %
387 03-12-2019 16:21:17 5.4 C 40 %
388 03-12-2019 16:31:18 5.3 C 41 %
389 03-12-2019 16:41:18 5.2 C 41 %
390 03-12-2019 16:51:17 5.2 C 41 %
391 03-12-2019 17:01:18 5.1 C 41 %
392 03-12-2019 17:11:18 5.1 C 41 %
393 03-12-2019 17:21:17 5.1 C 41 %
394 03-12-2019 17:31:17 5 C 41 %
395 03-12-2019 17:41:17 5 C 41 %
396 03-12-2019 17:51:17 5 C 41 %
397 03-12-2019 18:01:18 4.8 C 41 %
398 03-12-2019 18:11:18 4.7 C 40 %
399 03-12-2019 18:21:17 4.7 C 40 %
400 03-12-2019 18:31:18 4.7 C 40 %
Sensor: Nr:Datum:Temp:Feuchte:
Aussen-T/F 401 03-12-2019 18:41:18 4.7 C 40 %
402 03-12-2019 18:51:17 4.7 C 40 %
403 03-12-2019 19:01:17 4.7 C 40 %
404 03-12-2019 19:11:17 4.6 C 39 %
405 03-12-2019 19:21:17 4.6 C 38 %
406 03-12-2019 19:31:17 4.6 C 38 %
407 03-12-2019 19:41:17 4.4 C 37 %
408 03-12-2019 19:51:17 4.3 C 38 %
409 03-12-2019 20:01:17 4.3 C 39 %
410 03-12-2019 20:11:17 4.3 C 38 %
411 03-12-2019 20:21:18 4.2 C 37 %
412 03-12-2019 20:31:17 4.2 C 38 %
413 03-12-2019 20:41:18 4.1 C 39 %
414 03-12-2019 20:51:17 3.9 C 40 %
415 03-12-2019 21:01:17 3.9 C 41 %
416 03-12-2019 21:11:17 4 C 40 %
417 03-12-2019 21:21:17 4 C 40 %
418 03-12-2019 21:31:17 3.8 C 40 %
419 03-12-2019 21:41:17 3.5 C 40 %
420 03-12-2019 21:51:17 3.3 C 40 %
421 03-12-2019 22:01:17 2.9 C 41 %
422 03-12-2019 22:11:17 2.8 C 42 %
423 03-12-2019 22:21:18 2.8 C 42 %
424 03-12-2019 22:31:18 3.3 C 42 %
425 03-12-2019 22:41:18 3.5 C 40 %
Sensor: Nr:Datum:Temp:Feuchte:
Aussen-T/F 426 03-12-2019 22:51:17 3.2 C 38 %
427 03-12-2019 23:01:18 2.6 C 39 %
428 03-12-2019 23:11:18 2.5 C 41 %
429 03-12-2019 23:21:17 2.5 C 41 %
430 03-12-2019 23:31:17 2.2 C 40 %
431 03-12-2019 23:41:17 2.8 C 40 %
432 03-12-2019 23:51:17 2.6 C 38 %
433 04-12-2019 00:01:18 2.3 C 39 %
434 04-12-2019 00:11:18 1.7 C 41 %
435 04-12-2019 00:21:17 1.3 C 42 %
436 04-12-2019 00:31:17 0.9 C 43 %
437 04-12-2019 00:41:17 0.4 C 43 %
438 04-12-2019 00:51:17 0.6 C 45 %
439 04-12-2019 01:01:18 0.2 C 44 %
440 04-12-2019 01:11:18 0.2 C 45 %
441 04-12-2019 01:21:17 0 C 44 %
442 04-12-2019 01:31:17 -0.1 C 45 %
443 04-12-2019 01:41:17 0.1 C 45 %
444 04-12-2019 01:51:18 -0.3 C 45 %
445 04-12-2019 02:01:17 -0.3 C 45 %
446 04-12-2019 02:11:17 -0.2 C 45 %
447 04-12-2019 02:21:17 -0.5 C 45 %
448 04-12-2019 02:31:18 -0.4 C 45 %
449 04-12-2019 02:41:18 0.1 C 45 %
450 04-12-2019 02:51:17 0.3 C 45 %
Sensor: Nr:Datum:Temp:Feuchte:
Aussen-T/F 451 04-12-2019 03:01:18 0.6 C 45 %
452 04-12-2019 03:11:18 0.9 C 45 %
453 04-12-2019 03:21:17 0.9 C 45 %
454 04-12-2019 03:31:17 1 C 44 %
455 04-12-2019 03:41:17 1 C 44 %
456 04-12-2019 03:51:17 1 C 44 %
457 04-12-2019 04:01:18 0.8 C 45 %
458 04-12-2019 04:11:18 0.9 C 45 %
459 04-12-2019 04:21:17 0.8 C 45 %
460 04-12-2019 04:31:17 0.8 C 45 %
461 04-12-2019 04:41:17 0.8 C 45 %
462 04-12-2019 04:51:17 0.8 C 45 %
463 04-12-2019 05:01:17 0.8 C 45 %
464 04-12-2019 05:11:17 0.8 C 44 %
465 04-12-2019 05:21:17 0.8 C 44 %
466 04-12-2019 05:31:17 1 C 43 %
467 04-12-2019 05:41:17 1 C 43 %
468 04-12-2019 05:51:18 1 C 43 %
469 04-12-2019 06:01:17 1 C 43 %
470 04-12-2019 06:11:17 1.1 C 43 %
471 04-12-2019 06:21:17 1.2 C 43 %
472 04-12-2019 06:31:17 1.2 C 43 %
473 04-12-2019 06:41:18 1.2 C 43 %
474 04-12-2019 06:51:17 1.2 C 43 %
475 04-12-2019 07:01:17 1.1 C 43 %
Sensor: Nr:Datum:Temp:Feuchte:
Aussen-T/F 476 04-12-2019 07:11:17 1.1 C 43 %
477 04-12-2019 07:21:18 1.1 C 43 %
478 04-12-2019 07:31:17 1 C 43 %
479 04-12-2019 07:41:17 0.9 C 44 %
480 04-12-2019 07:51:17 1 C 43 %
481 04-12-2019 08:01:17 0.9 C 44 %
482 04-12-2019 08:11:17 0.9 C 44 %
483 04-12-2019 08:21:17 0.9 C 44 %
484 04-12-2019 08:31:17 0.9 C 44 %
485 04-12-2019 08:41:17 1 C 42 %
486 04-12-2019 08:51:17 1 C 42 %
487 04-12-2019 09:01:18 1 C 42 %
488 04-12-2019 09:11:18 1.2 C 42 %
489 04-12-2019 09:21:18 1.2 C 42 %
490 04-12-2019 09:31:17 1.2 C 41 %
491 04-12-2019 09:41:17 1.2 C 41 %
492 04-12-2019 09:51:17 1.4 C 41 %
493 04-12-2019 10:01:17 1.5 C 41 %
494 04-12-2019 10:11:18 1.4 C 39 %
495 04-12-2019 10:21:17 1.3 C 38 %
496 04-12-2019 10:31:17 1.1 C 37 %
497 04-12-2019 10:41:17 1.1 C 37 %
498 04-12-2019 10:51:18 1 C 38 %
499 04-12-2019 11:01:17 1 C 38 %
500 04-12-2019 11:11:17 1.1 C 39 %
Sensor: Nr:Datum:Temp:Feuchte:
Aussen-T/F 501 04-12-2019 11:21:17 1.1 C 39 %
502 04-12-2019 11:31:18 1.1 C 40 %
503 04-12-2019 11:41:18 1 C 40 %
504 04-12-2019 11:51:17 1.1 C 41 %
505 04-12-2019 12:01:17 1.2 C 41 %
506 04-12-2019 12:11:17 1.3 C 41 %
507 04-12-2019 12:21:18 1.3 C 41 %
508 04-12-2019 12:31:17 1.5 C 41 %
509 04-12-2019 12:41:17 1.5 C 41 %
510 04-12-2019 12:51:17 1.6 C 41 %
511 04-12-2019 13:01:17 1.6 C 41 %
512 04-12-2019 13:11:17 1.7 C 41 %
513 04-12-2019 13:21:17 1.8 C 40 %
514 04-12-2019 13:31:18 1.8 C 40 %
515 04-12-2019 13:41:18 2.1 C 38 %
516 04-12-2019 13:51:17 2.1 C 37 %
517 04-12-2019 14:01:17 2.1 C 37 %
518 04-12-2019 14:11:17 2.1 C 36 %
519 04-12-2019 14:21:17 2.1 C 36 %
520 04-12-2019 14:31:18 2 C 36 %
521 04-12-2019 14:41:18 2.2 C 35 %
522 04-12-2019 14:51:17 2.1 C 36 %
523 04-12-2019 15:01:18 2 C 37 %
524 04-12-2019 15:11:18 1.7 C 38 %
525 04-12-2019 15:21:17 1.7 C 40 %
Sensor: Nr:Datum:Temp:Feuchte:
Aussen-T/F 526 04-12-2019 15:31:17 1.7 C 40 %
527 04-12-2019 15:41:17 1.8 C 39 %
528 04-12-2019 15:51:18 1.8 C 39 %
529 04-12-2019 16:01:17 1.6 C 37 %
530 04-12-2019 16:11:17 1.5 C 37 %
531 04-12-2019 16:21:17 1.4 C 37 %
532 04-12-2019 16:31:17 1.4 C 37 %
533 04-12-2019 16:41:17 1.2 C 37 %
534 04-12-2019 16:51:17 1.1 C 36 %
535 04-12-2019 17:01:17 1 C 37 %
536 04-12-2019 17:11:17 1 C 37 %
537 04-12-2019 17:21:18 1 C 36 %
538 04-12-2019 17:31:17 0.9 C 38 %
539 04-12-2019 17:41:17 0.6 C 38 %
540 04-12-2019 17:51:18 0.7 C 39 %
541 04-12-2019 18:01:17 0.8 C 38 %
542 04-12-2019 18:11:17 0.3 C 39 %
543 04-12-2019 18:21:17 0.4 C 40 %
544 04-12-2019 18:31:17 0.6 C 40 %
545 04-12-2019 18:41:17 -0.2 C 40 %
546 04-12-2019 18:51:17 -0.5 C 41 %
547 04-12-2019 19:01:17 -0.3 C 44 %
548 04-12-2019 19:11:17 -0.7 C 42 %
549 04-12-2019 19:21:17 -1.1 C 42 %
550 04-12-2019 19:31:17 -1 C 44 %
Sensor: Nr:Datum:Temp:Feuchte:
Aussen-T/F 551 04-12-2019 19:41:17 -1.2 C 44 %
552 04-12-2019 19:51:17 -1.4 C 43 %
553 04-12-2019 20:01:17 -1.3 C 44 %
554 04-12-2019 20:11:17 -1.1 C 45 %
555 04-12-2019 20:21:17 -1.5 C 44 %
556 04-12-2019 20:31:17 -1.5 C 44 %
557 04-12-2019 20:41:17 -1.8 C 43 %
558 04-12-2019 20:51:18 -1.9 C 44 %
559 04-12-2019 21:01:18 -1.9 C 44 %
560 04-12-2019 21:11:18 -1.7 C 44 %
561 04-12-2019 21:21:17 -2 C 43 %
562 04-12-2019 21:31:17 -2 C 43 %
563 04-12-2019 21:41:17 -2.4 C 43 %
564 04-12-2019 21:51:17 -2.4 C 43 %
565 04-12-2019 22:01:17 -2.5 C 43 %
566 04-12-2019 22:11:17 -2.6 C 43 %
567 04-12-2019 22:21:17 -2.7 C 44 %
568 04-12-2019 22:31:18 -2.8 C 43 %
569 04-12-2019 22:41:18 -2.7 C 43 %
570 04-12-2019 22:51:17 -2.5 C 43 %
571 04-12-2019 23:01:17 -2.6 C 42 %
572 04-12-2019 23:11:17 -2.9 C 42 %
573 04-12-2019 23:21:17 -2.7 C 42 %
574 04-12-2019 23:31:17 -2.7 C 42 %
575 04-12-2019 23:41:17 -2.9 C 41 %
Sensor: Nr:Datum:Temp:Feuchte:
Aussen-T/F 576 04-12-2019 23:51:18 -2.9 C 42 %
577 05-12-2019 00:01:17 -3 C 41 %
578 05-12-2019 00:11:17 -3 C 41 %
579 05-12-2019 00:21:17 -3.1 C 41 %
580 05-12-2019 00:31:18 -2.8 C 41 %
581 05-12-2019 00:41:18 -2.8 C 41 %
582 05-12-2019 00:51:17 -2.9 C 41 %
583 05-12-2019 01:01:17 -2.9 C 41 %
584 05-12-2019 01:11:17 -3.2 C 41 %
585 05-12-2019 01:21:17 -2.5 C 43 %
586 05-12-2019 01:31:18 -2.6 C 43 %
587 05-12-2019 01:41:18 -2.7 C 43 %
588 05-12-2019 01:51:17 -2.6 C 43 %
589 05-12-2019 02:01:17 -2.6 C 42 %
590 05-12-2019 02:11:18 -2.8 C 41 %
591 05-12-2019 02:21:17 -3 C 41 %
592 05-12-2019 02:31:17 -3.2 C 41 %
593 05-12-2019 02:41:17 -3.2 C 41 %
594 05-12-2019 02:51:17 -3.2 C 41 %
595 05-12-2019 03:01:17 -3.4 C 40 %
596 05-12-2019 03:11:17 -3.5 C 40 %
597 05-12-2019 03:21:17 -3.3 C 41 %
598 05-12-2019 03:31:17 -3.2 C 41 %
599 05-12-2019 03:41:17 -3.6 C 40 %
600 05-12-2019 03:51:17 -3 C 43 %
Sensor: Nr:Datum:Temp:Feuchte:
Aussen-T/F 601 05-12-2019 04:01:17 -2.7 C 43 %
602 05-12-2019 04:11:17 -2.7 C 43 %
603 05-12-2019 04:21:17 -2.7 C 43 %
604 05-12-2019 04:31:18 -2.9 C 42 %
605 05-12-2019 04:41:18 -3.3 C 40 %
606 05-12-2019 04:51:17 -2.9 C 42 %
607 05-12-2019 05:01:17 -2.8 C 43 %
608 05-12-2019 05:11:17 -2.8 C 42 %
609 05-12-2019 05:21:17 -2.7 C 43 %
610 05-12-2019 05:31:17 -2.7 C 43 %
611 05-12-2019 05:41:18 -2.5 C 43 %
612 05-12-2019 05:51:17 -2.5 C 43 %
613 05-12-2019 06:01:17 -2.6 C 43 %
614 05-12-2019 06:11:17 -2.7 C 43 %
615 05-12-2019 06:21:17 -2.9 C 43 %
616 05-12-2019 06:31:17 -2.9 C 43 %
617 05-12-2019 06:41:17 -3 C 42 %
618 05-12-2019 06:51:17 -2.9 C 43 %
619 05-12-2019 07:01:17 -2.9 C 42 %
620 05-12-2019 07:11:17 -2.9 C 42 %
621 05-12-2019 07:21:17 -3.2 C 42 %
622 05-12-2019 07:31:17 -3.1 C 42 %
623 05-12-2019 07:41:18 -2.9 C 42 %
624 05-12-2019 07:51:17 -2.9 C 42 %
625 05-12-2019 08:01:17 -3 C 42 %
Sensor: Nr:Datum:Temp:Feuchte:
Aussen-T/F 626 05-12-2019 08:11:17 -2.8 C 43 %
627 05-12-2019 08:21:18 -2.9 C 42 %
628 05-12-2019 08:31:17 -2.8 C 42 %
629 05-12-2019 08:41:17 -3 C 42 %
630 05-12-2019 08:51:17 -3 C 42 %
631 05-12-2019 09:01:18 -2.7 C 43 %
632 05-12-2019 09:11:18 -2.6 C 43 %
633 05-12-2019 09:21:17 -2.6 C 42 %
634 05-12-2019 09:31:17 -2.6 C 42 %
635 05-12-2019 09:41:17 -2.5 C 43 %
636 05-12-2019 09:51:17 -2.4 C 42 %
637 05-12-2019 10:01:18 -2.3 C 42 %
638 05-12-2019 10:11:18 -2.4 C 42 %
639 05-12-2019 10:21:17 -2.1 C 43 %
640 05-12-2019 10:31:17 -1.7 C 43 %
641 05-12-2019 10:41:17 -2 C 42 %
642 05-12-2019 10:51:18 -1.7 C 42 %
643 05-12-2019 11:01:17 -1.7 C 43 %
644 05-12-2019 11:11:17 -1.4 C 42 %
645 05-12-2019 11:21:17 -1.2 C 41 %
646 05-12-2019 11:31:18 -1.2 C 41 %
647 05-12-2019 11:41:18 -0.7 C 42 %
648 05-12-2019 11:51:17 -0.9 C 42 %
649 05-12-2019 12:01:18 -1 C 41 %
650 05-12-2019 12:11:18 -0.8 C 41 %
Sensor: Nr:Datum:Temp:Feuchte:
Aussen-T/F 651 05-12-2019 12:21:17 -0.6 C 41 %
652 05-12-2019 12:31:17 -0.8 C 40 %
653 05-12-2019 12:41:17 -0.9 C 40 %
654 05-12-2019 12:51:18 -0.6 C 41 %
655 05-12-2019 13:01:17 -0.5 C 40 %
656 05-12-2019 13:11:17 -0.6 C 40 %
657 05-12-2019 13:21:17 -0.4 C 41 %
658 05-12-2019 13:31:17 -0.4 C 41 %
659 05-12-2019 13:41:17 -0.2 C 41 %
660 05-12-2019 13:51:17 0.1 C 40 %
661 05-12-2019 14:01:18 0.1 C 40 %
662 05-12-2019 14:11:18 0.2 C 40 %
663 05-12-2019 14:21:17 0.2 C 40 %
664 05-12-2019 14:31:17 0.2 C 40 %
665 05-12-2019 14:41:17 0.2 C 40 %
666 05-12-2019 14:51:17 0.2 C 41 %
667 05-12-2019 15:01:17 0.1 C 41 %
668 05-12-2019 15:11:17 0 C 41 %
669 05-12-2019 15:21:17 -0.1 C 42 %
670 05-12-2019 15:31:17 -0.1 C 43 %
671 05-12-2019 15:41:17 -0.1 C 44 %
672 05-12-2019 15:51:18 -0.1 C 44 %
673 05-12-2019 16:01:17 -0.4 C 44 %
674 05-12-2019 16:11:17 -0.5 C 44 %
675 05-12-2019 16:21:17 -0.7 C 45 %
Sensor: Nr:Datum:Temp:Feuchte:
Aussen-T/F 676 05-12-2019 16:31:18 -0.8 C 44 %
677 05-12-2019 16:41:18 -1 C 44 %
678 05-12-2019 16:51:17 -1 C 44 %
679 05-12-2019 17:01:17 -1.2 C 44 %
680 05-12-2019 17:11:17 -1.1 C 45 %
681 05-12-2019 17:21:18 -1.2 C 45 %
682 05-12-2019 17:31:17 -1.3 C 44 %
683 05-12-2019 17:41:17 -1.7 C 44 %
684 05-12-2019 17:51:17 -1.6 C 44 %
685 05-12-2019 18:01:18 -1.8 C 43 %
686 05-12-2019 18:11:18 -2 C 43 %
687 05-12-2019 18:21:17 -2 C 43 %
688 05-12-2019 18:31:17 -2 C 43 %
689 05-12-2019 18:41:17 -2.2 C 43 %
690 05-12-2019 18:51:18 -2.5 C 42 %
691 05-12-2019 19:01:17 -2.1 C 43 %
692 05-12-2019 19:11:17 -2.1 C 44 %
693 05-12-2019 19:21:17 -2.6 C 42 %
694 05-12-2019 19:31:17 -2.9 C 41 %
695 05-12-2019 19:41:17 -2.6 C 42 %
696 05-12-2019 19:51:18 -1.9 C 43 %
697 05-12-2019 20:01:17 -1.5 C 44 %
698 05-12-2019 20:11:17 -1.6 C 43 %
699 05-12-2019 20:21:17 -1.5 C 43 %
700 05-12-2019 20:31:17 -1.9 C 42 %
Sensor: Nr:Datum:Temp:Feuchte:
Aussen-T/F 701 05-12-2019 20:41:17 -2 C 42 %
702 05-12-2019 20:51:18 -2.1 C 42 %
703 05-12-2019 21:01:17 -2.3 C 42 %
704 05-12-2019 21:11:17 -2.6 C 42 %
705 05-12-2019 21:21:17 -2.1 C 43 %
706 05-12-2019 21:31:17 -2 C 43 %
707 05-12-2019 21:41:17 -2 C 43 %
708 05-12-2019 21:51:17 -2 C 43 %
709 05-12-2019 22:01:17 -2.3 C 42 %
710 05-12-2019 22:11:17 -2.3 C 42 %
711 05-12-2019 22:21:18 -2.2 C 42 %
712 05-12-2019 22:31:17 -2.4 C 42 %
713 05-12-2019 22:41:17 -2.4 C 42 %
714 05-12-2019 22:51:17 -2.3 C 42 %
715 05-12-2019 23:01:17 -2.6 C 41 %
716 05-12-2019 23:11:17 -2.7 C 41 %
717 05-12-2019 23:21:18 -2.7 C 42 %
718 05-12-2019 23:31:17 -3.1 C 41 %
719 05-12-2019 23:41:17 -3.3 C 41 %
720 05-12-2019 23:51:17 -3.2 C 42 %
721 06-12-2019 00:01:18 -2.9 C 42 %
722 06-12-2019 00:11:18 -3.4 C 40 %
723 06-12-2019 00:21:17 -3.8 C 40 %
724 06-12-2019 00:31:17 -3.4 C 42 %
725 06-12-2019 00:41:17 -3.2 C 42 %
Sensor: Nr:Datum:Temp:Feuchte:
Aussen-T/F 726 06-12-2019 00:51:17 -2.7 C 43 %
727 06-12-2019 01:01:17 -2.4 C 43 %
728 06-12-2019 01:11:17 -2.1 C 43 %
729 06-12-2019 01:21:17 -2 C 41 %
730 06-12-2019 01:31:18 -1.8 C 42 %
731 06-12-2019 01:41:18 -1.6 C 43 %
732 06-12-2019 01:51:17 -1.6 C 43 %
733 06-12-2019 02:01:17 -1.4 C 42 %
734 06-12-2019 02:11:17 -1.4 C 40 %
735 06-12-2019 02:21:17 -1.6 C 40 %
736 06-12-2019 02:31:17 -1.5 C 40 %
737 06-12-2019 02:41:17 -1.7 C 39 %
738 06-12-2019 02:51:17 -1.6 C 40 %
739 06-12-2019 03:01:18 -1.4 C 39 %
740 06-12-2019 03:11:18 -1.2 C 39 %
741 06-12-2019 03:21:17 -1 C 38 %
742 06-12-2019 03:31:17 -1 C 37 %
743 06-12-2019 03:41:17 -1 C 38 %
744 06-12-2019 03:51:17 -1.1 C 37 %
745 06-12-2019 04:01:17 -1.2 C 38 %
746 06-12-2019 04:11:17 -1.3 C 37 %
747 06-12-2019 04:21:17 -1.3 C 38 %
748 06-12-2019 04:31:17 -1.1 C 38 %
749 06-12-2019 04:41:17 -1.1 C 38 %
750 06-12-2019 04:51:17 -0.8 C 38 %
Sensor: Nr:Datum:Temp:Feuchte:
Aussen-T/F 751 06-12-2019 05:01:17 -1 C 38 %
752 06-12-2019 05:11:17 -0.8 C 37 %
753 06-12-2019 05:21:17 -0.9 C 36 %
754 06-12-2019 05:31:18 -1 C 37 %
755 06-12-2019 05:41:18 -0.8 C 38 %
756 06-12-2019 05:51:17 -0.6 C 36 %
757 06-12-2019 06:01:17 -0.6 C 35 %
758 06-12-2019 06:11:17 -0.6 C 36 %
759 06-12-2019 06:21:17 -0.5 C 36 %
760 06-12-2019 06:31:17 -0.5 C 35 %
761 06-12-2019 06:41:17 -0.4 C 36 %
762 06-12-2019 06:51:18 -0.4 C 37 %
763 06-12-2019 07:01:17 -0.4 C 38 %
764 06-12-2019 07:11:17 -0.4 C 38 %
765 06-12-2019 07:21:17 -0.1 C 37 %
766 06-12-2019 07:31:17 0 C 36 %
767 06-12-2019 07:41:17 0.2 C 34 %
768 06-12-2019 07:51:18 0.4 C 32 %
769 06-12-2019 08:01:17 0.4 C 32 %
770 06-12-2019 08:11:17 0.4 C 32 %
771 06-12-2019 08:21:17 0.4 C 35 %
772 06-12-2019 08:31:17 0.6 C 32 %
773 06-12-2019 08:41:17 0.5 C 35 %
774 06-12-2019 08:51:18 0.5 C 35 %
775 06-12-2019 09:01:17 0.6 C 36 %
Sensor: Nr:Datum:Temp:Feuchte:
Aussen-T/F 776 06-12-2019 09:11:17 0.8 C 36 %
777 06-12-2019 09:21:17 1.2 C 33 %
778 06-12-2019 09:31:17 1.4 C 33 %
779 06-12-2019 09:41:17 1.5 C 33 %
780 06-12-2019 09:51:17 1.7 C 34 %
781 06-12-2019 10:01:17 1.8 C 33 %
782 06-12-2019 10:11:17 1.8 C 35 %
783 06-12-2019 10:21:18 1.9 C 36 %
784 06-12-2019 10:31:17 1.9 C 36 %
785 06-12-2019 10:41:17 2.4 C 35 %
786 06-12-2019 10:51:17 2.5 C 35 %
787 06-12-2019 11:01:18 2.7 C 35 %
788 06-12-2019 11:11:18 3.2 C 32 %
789 06-12-2019 11:21:17 3.3 C 32 %
790 06-12-2019 11:31:17 3.5 C 32 %
791 06-12-2019 11:41:17 3.5 C 32 %
792 06-12-2019 11:51:17 3.5 C 33 %
793 06-12-2019 12:01:17 3.6 C 33 %
794 06-12-2019 12:11:17 3.6 C 33 %
795 06-12-2019 12:21:17 3.6 C 35 %
796 06-12-2019 12:31:18 3.7 C 37 %
797 06-12-2019 12:41:18 3.7 C 39 %
798 06-12-2019 12:51:17 3.7 C 40 %
799 06-12-2019 13:01:17 3.8 C 39 %
800 06-12-2019 13:11:17 3.9 C 38 %
Sensor: Nr:Datum:Temp:Feuchte:
Aussen-T/F 801 06-12-2019 13:21:17 4 C 36 %
802 06-12-2019 13:31:18 4.2 C 35 %
803 06-12-2019 13:41:18 4.2 C 35 %
804 06-12-2019 13:51:17 4.1 C 36 %
805 06-12-2019 14:01:17 4.1 C 39 %
806 06-12-2019 14:11:17 4.2 C 40 %
807 06-12-2019 14:21:17 4.2 C 38 %
808 06-12-2019 14:31:18 4.2 C 38 %
809 06-12-2019 14:41:18 4.4 C 38 %
810 06-12-2019 14:51:17 4.4 C 39 %
811 06-12-2019 15:01:17 4.3 C 38 %
812 06-12-2019 15:11:17 4.4 C 38 %
813 06-12-2019 15:21:17 4.7 C 36 %
814 06-12-2019 15:31:17 4.5 C 37 %
815 06-12-2019 15:41:17 4.5 C 37 %
816 06-12-2019 15:51:18 4.6 C 37 %
817 06-12-2019 16:01:18 4.8 C 38 %
818 06-12-2019 16:11:18 5 C 34 %
819 06-12-2019 16:21:17 5.2 C 32 %
820 06-12-2019 16:31:17 5.1 C 32 %
821 06-12-2019 16:41:17 5.3 C 32 %
822 06-12-2019 16:51:17 5.2 C 31 %
823 06-12-2019 17:01:17 5.2 C 31 %
824 06-12-2019 17:11:17 5.3 C 31 %
825 06-12-2019 17:21:17 5.3 C 30 %
Sensor: Nr:Datum:Temp:Feuchte:
Aussen-T/F 826 06-12-2019 17:31:18 5.5 C 30 %
827 06-12-2019 17:41:18 5.6 C 29 %
828 06-12-2019 17:51:17 5.5 C 30 %
829 06-12-2019 18:01:17 5.9 C 29 %
830 06-12-2019 18:11:17 6 C 28 %
831 06-12-2019 18:21:18 6.2 C 29 %
832 06-12-2019 18:31:17 6.1 C 28 %
833 06-12-2019 18:41:17 6.1 C 29 %
834 06-12-2019 18:51:17 5.9 C 30 %
835 06-12-2019 19:01:17 5.6 C 31 %
836 06-12-2019 19:11:17 5.8 C 32 %
837 06-12-2019 19:21:17 5.9 C 31 %
838 06-12-2019 19:31:17 6.2 C 30 %
839 06-12-2019 19:41:17 6.5 C 28 %
840 06-12-2019 19:51:17 6.5 C 28 %
841 06-12-2019 20:01:17 6.8 C 28 %
842 06-12-2019 20:11:17 6.7 C 28 %
843 06-12-2019 20:21:17 6.8 C 28 %
844 06-12-2019 20:31:17 6.7 C 28 %
845 06-12-2019 20:41:17 6.7 C 28 %
846 06-12-2019 20:51:18 6.7 C 28 %
847 06-12-2019 21:01:17 6.8 C 27 %
848 06-12-2019 21:11:17 6.7 C 28 %
849 06-12-2019 21:21:17 6.7 C 28 %
850 06-12-2019 21:31:17 6.6 C 28 %
Sensor: Nr:Datum:Temp:Feuchte:
Aussen-T/F 851 06-12-2019 21:41:17 6.5 C 28 %
852 06-12-2019 21:51:17 6.5 C 29 %
853 06-12-2019 22:01:17 6.6 C 29 %
854 06-12-2019 22:11:17 6.7 C 28 %
855 06-12-2019 22:21:17 6.7 C 28 %
856 06-12-2019 22:31:17 6.7 C 28 %
857 06-12-2019 22:41:17 6.9 C 28 %
858 06-12-2019 22:51:17 6.9 C 27 %
859 06-12-2019 23:01:18 7 C 27 %
860 06-12-2019 23:11:18 6.9 C 28 %
861 06-12-2019 23:21:17 6.8 C 29 %
862 06-12-2019 23:31:17 6.8 C 29 %
863 06-12-2019 23:41:17 6.9 C 29 %
864 06-12-2019 23:51:18 6.8 C 30 %
865 07-12-2019 00:01:17 6.9 C 30 %
866 07-12-2019 00:11:17 7 C 28 %
867 07-12-2019 00:21:17 7.2 C 28 %
868 07-12-2019 00:31:17 7.2 C 28 %
869 07-12-2019 00:41:17 7.2 C 28 %
870 07-12-2019 00:51:17 7.4 C 28 %
871 07-12-2019 01:01:17 7.4 C 28 %
872 07-12-2019 01:11:17 7.6 C 28 %
873 07-12-2019 01:21:17 7.7 C 28 %
874 07-12-2019 01:31:18 7.8 C 28 %
875 07-12-2019 01:41:18 7.6 C 29 %
Sensor: Nr:Datum:Temp:Feuchte:
Aussen-T/F 876 07-12-2019 01:51:17 7.6 C 29 %
877 07-12-2019 02:01:17 7.5 C 30 %
878 07-12-2019 02:11:17 7.7 C 31 %
879 07-12-2019 02:21:17 7.5 C 31 %
880 07-12-2019 02:31:17 7.1 C 35 %
881 07-12-2019 02:41:17 7.2 C 38 %
882 07-12-2019 02:51:17 7.3 C 35 %
883 07-12-2019 03:01:17 7.4 C 35 %
884 07-12-2019 03:11:17 7.6 C 33 %
885 07-12-2019 03:21:17 8.4 C 30 %
886 07-12-2019 03:31:17 8.5 C 29 %
887 07-12-2019 03:41:17 8.7 C 28 %
888 07-12-2019 03:51:17 9 C 27 %
889 07-12-2019 04:01:18 8.4 C 29 %
890 07-12-2019 04:11:18 8.5 C 29 %
891 07-12-2019 04:21:17 8 C 30 %
892 07-12-2019 04:31:17 7.9 C 30 %
893 07-12-2019 04:41:17 8 C 30 %
894 07-12-2019 04:51:17 8 C 30 %
895 07-12-2019 05:01:17 7.7 C 30 %
896 07-12-2019 05:11:17 8 C 30 %
897 07-12-2019 05:21:17 8 C 30 %
898 07-12-2019 05:31:17 7.8 C 31 %
899 07-12-2019 05:41:17 8.2 C 30 %
900 07-12-2019 05:51:18 7.2 C 31 %
Sensor: Nr:Datum:Temp:Feuchte:
Aussen-T/F 901 07-12-2019 06:01:18 7.6 C 30 %
902 07-12-2019 06:11:18 8.7 C 26 %
903 07-12-2019 06:21:17 8.6 C 26 %
904 07-12-2019 06:31:18 8.2 C 26 %
905 07-12-2019 06:41:18 8.1 C 26 %
906 07-12-2019 06:51:17 7.5 C 27 %
907 07-12-2019 07:01:17 6.8 C 30 %
908 07-12-2019 07:11:17 7.1 C 28 %
909 07-12-2019 07:21:17 7.3 C 27 %
910 07-12-2019 07:31:17 6.8 C 30 %
911 07-12-2019 07:41:17 6.3 C 31 %
912 07-12-2019 07:51:18 7.8 C 28 %
913 07-12-2019 08:01:18 8 C 27 %
914 07-12-2019 08:11:18 7.9 C 28 %
915 07-12-2019 08:21:17 8.1 C 28 %
916 07-12-2019 08:31:17 8.1 C 27 %
917 07-12-2019 08:41:17 8.3 C 28 %
918 07-12-2019 08:51:17 8.4 C 27 %
919 07-12-2019 09:01:17 8.4 C 27 %
920 07-12-2019 09:11:17 8.3 C 28 %
921 07-12-2019 09:21:17 8.2 C 28 %
922 07-12-2019 09:31:17 8.1 C 29 %
923 07-12-2019 09:41:17 8.3 C 28 %
924 07-12-2019 09:51:18 8.6 C 27 %
925 07-12-2019 10:01:17 8.6 C 27 %
Sensor: Nr:Datum:Temp:Feuchte:
Aussen-T/F 926 07-12-2019 10:11:17 8.8 C 27 %
927 07-12-2019 10:21:17 9 C 26 %
928 07-12-2019 10:31:17 9.1 C 25 %
929 07-12-2019 10:41:17 9.1 C 26 %
930 07-12-2019 10:51:18 9.2 C 25 %
931 07-12-2019 11:01:18 9 C 26 %
932 07-12-2019 11:11:18 8.4 C 29 %
933 07-12-2019 11:21:17 8.3 C 30 %
934 07-12-2019 11:31:17 8.4 C 30 %
935 07-12-2019 11:41:17 8.5 C 30 %
936 07-12-2019 11:51:17 8.6 C 28 %
937 07-12-2019 12:01:17 8.8 C 27 %
938 07-12-2019 12:11:17 8.9 C 27 %
939 07-12-2019 12:21:17 9.2 C 25 %
940 07-12-2019 12:31:18 9.4 C 25 %
941 07-12-2019 12:41:18 9.5 C 25 %
942 07-12-2019 12:51:17 9.5 C 25 %
943 07-12-2019 13:01:17 9.7 C 23 %
944 07-12-2019 13:11:17 10 C 20 %
945 07-12-2019 13:21:17 9.8 C 20 %
946 07-12-2019 13:31:17 9.8 C 20 %
947 07-12-2019 13:41:17 9.9 C 20 %
948 07-12-2019 13:51:17 9.9 C 20 %
949 07-12-2019 14:01:17 9.8 C 20 %
950 07-12-2019 14:11:17 9.7 C 20 %
Sensor: Nr:Datum:Temp:Feuchte:
Aussen-T/F 951 07-12-2019 14:21:17 9.9 C 20 %
952 07-12-2019 14:31:18 9.9 C 20 %
953 07-12-2019 14:41:18 9.9 C 20 %
954 07-12-2019 14:51:17 9.9 C 20 %
955 07-12-2019 15:01:17 9.9 C 20 %
956 07-12-2019 15:11:17 9.7 C 21 %
957 07-12-2019 15:21:17 9.6 C 21 %
958 07-12-2019 15:31:17 9.7 C 21 %
959 07-12-2019 15:41:17 9.6 C 20 %
960 07-12-2019 15:51:17 9.4 C 23 %
961 07-12-2019 16:01:17 9 C 25 %
962 07-12-2019 16:11:17 8.9 C 25 %
963 07-12-2019 16:21:18 8.8 C 25 %
964 07-12-2019 16:31:17 8.6 C 26 %
965 07-12-2019 16:41:18 8.5 C 26 %
966 07-12-2019 16:51:17 8.2 C 27 %
967 07-12-2019 17:01:17 8.1 C 29 %
968 07-12-2019 17:11:17 8.2 C 28 %
969 07-12-2019 17:21:17 8.1 C 28 %
970 07-12-2019 17:31:18 8.2 C 28 %
971 07-12-2019 17:41:18 8.3 C 27 %
972 07-12-2019 17:51:17 8.1 C 27 %
973 07-12-2019 18:01:18 8 C 28 %
974 07-12-2019 18:11:18 8 C 27 %
975 07-12-2019 18:21:17 7.8 C 28 %
Sensor: Nr:Datum:Temp:Feuchte:
Aussen-T/F 976 07-12-2019 18:31:17 7.7 C 29 %
977 07-12-2019 18:41:17 7.6 C 30 %
978 07-12-2019 18:51:17 7.6 C 30 %
979 07-12-2019 19:01:17 7.5 C 31 %
980 07-12-2019 19:11:17 7.5 C 31 %
981 07-12-2019 19:21:17 7.5 C 32 %
982 07-12-2019 19:31:17 7.7 C 31 %
983 07-12-2019 19:41:17 7.6 C 30 %
984 07-12-2019 19:51:17 7.7 C 30 %
985 07-12-2019 20:01:18 7.4 C 30 %
986 07-12-2019 20:11:18 7.3 C 31 %
987 07-12-2019 20:21:17 7.3 C 31 %
988 07-12-2019 20:31:17 7.4 C 30 %
989 07-12-2019 20:41:17 7.6 C 30 %
990 07-12-2019 20:51:17 7.6 C 30 %
991 07-12-2019 21:01:17 7.5 C 30 %
992 07-12-2019 21:11:17 7.6 C 30 %
993 07-12-2019 21:21:17 8 C 28 %
994 07-12-2019 21:31:17 8.1 C 28 %
995 07-12-2019 21:41:17 8.2 C 28 %
996 07-12-2019 21:51:17 7.9 C 28 %
997 07-12-2019 22:01:17 8.2 C 28 %
998 07-12-2019 22:11:17 8.1 C 27 %
999 07-12-2019 22:21:17 7.8 C 28 %
1000 07-12-2019 22:31:18 7.7 C 30 %
Sensor: Nr:Datum:Temp:Feuchte:
Aussen-T/F 1001 07-12-2019 22:41:18 7.6 C 30 %
1002 07-12-2019 22:51:17 7.5 C 31 %
1003 07-12-2019 23:01:17 7.4 C 32 %
1004 07-12-2019 23:11:17 7.6 C 31 %
1005 07-12-2019 23:21:17 7.6 C 32 %
1006 07-12-2019 23:31:17 7.5 C 32 %
1007 07-12-2019 23:41:17 7.7 C 31 %
1008 07-12-2019 23:51:18 7.9 C 28 %
1009 08-12-2019 00:01:17 8.1 C 27 %
1010 08-12-2019 00:11:17 8.9 C 23 %
1011 08-12-2019 00:21:17 8.9 C 21 %
1012 08-12-2019 00:31:18 9 C 21 %
1013 08-12-2019 00:41:18 8.9 C 23 %
1014 08-12-2019 00:51:17 8.5 C 25 %
1015 08-12-2019 01:01:18 8.3 C 25 %
1016 08-12-2019 01:11:18 8.5 C 25 %
1017 08-12-2019 01:21:17 8.4 C 26 %
1018 08-12-2019 01:31:17 8.9 C 25 %
1019 08-12-2019 01:41:17 8.8 C 25 %
1020 08-12-2019 01:51:18 9.2 C 20 %
1021 08-12-2019 02:01:17 9.2 C 20 %
1022 08-12-2019 02:11:17 8.9 C 20 %
1023 08-12-2019 02:21:17 9 C 20 %
1024 08-12-2019 02:31:17 9.1 C 20 %
1025 08-12-2019 02:41:18 9 C 20 %
Sensor: Nr:Datum:Temp:Feuchte:
Aussen-T/F 1026 08-12-2019 02:51:17 9.1 C 20 %
1027 08-12-2019 03:01:17 9 C 20 %
1028 08-12-2019 03:11:17 9.1 C 20 %
1029 08-12-2019 03:21:17 9.1 C 20 %
1030 08-12-2019 03:31:17 9.3 C 20 %
1031 08-12-2019 03:41:17 9.3 C 20 %
1032 08-12-2019 03:51:17 9.4 C 20 %
1033 08-12-2019 04:01:17 9.7 C 20 %
1034 08-12-2019 04:11:18 9.6 C 20 %
1035 08-12-2019 04:21:17 9.5 C 20 %
1036 08-12-2019 04:31:17 9.6 C 20 %
1037 08-12-2019 04:41:17 9.6 C 20 %
1038 08-12-2019 04:51:17 9.5 C 20 %
1039 08-12-2019 05:01:17 9.6 C 20 %
1040 08-12-2019 05:11:17 9.5 C 21 %
1041 08-12-2019 05:21:17 9.5 C 21 %
1042 08-12-2019 05:31:17 9.4 C 23 %
1043 08-12-2019 05:41:17 9.5 C 23 %
1044 08-12-2019 05:51:17 9.2 C 25 %
1045 08-12-2019 06:01:17 9.3 C 25 %
1046 08-12-2019 06:11:18 9.5 C 25 %
1047 08-12-2019 06:21:17 9.9 C 21 %
1048 08-12-2019 06:31:17 9.8 C 23 %
1049 08-12-2019 06:41:17 9.7 C 25 %
1050 08-12-2019 06:51:17 9.9 C 23 %
Sensor: Nr:Datum:Temp:Feuchte:
Aussen-T/F 1051 08-12-2019 07:01:18 10 C 21 %
1052 08-12-2019 07:11:18 10.1 C 20 %
1053 08-12-2019 07:21:17 9.9 C 21 %
1054 08-12-2019 07:31:17 10 C 21 %
1055 08-12-2019 07:41:17 10.1 C 20 %
1056 08-12-2019 07:51:17 10 C 20 %
1057 08-12-2019 08:01:17 10 C 20 %
1058 08-12-2019 08:11:17 10.2 C 20 %
1059 08-12-2019 08:21:17 10.1 C 20 %
1060 08-12-2019 08:31:17 10.3 C 21 %
1061 08-12-2019 08:41:17 10.1 C 21 %
1062 08-12-2019 08:51:17 10.3 C 21 %
1063 08-12-2019 09:01:17 10.3 C 21 %
1064 08-12-2019 09:11:17 10.1 C 21 %
1065 08-12-2019 09:21:17 10.2 C 21 %
1066 08-12-2019 09:31:17 10.3 C 21 %
1067 08-12-2019 09:41:17 10.4 C 21 %
1068 08-12-2019 09:51:17 10.4 C 21 %
1069 08-12-2019 10:01:17 10.4 C 21 %
1070 08-12-2019 10:11:17 10.5 C 21 %
1071 08-12-2019 10:21:17 10.5 C 22 %
1072 08-12-2019 10:31:17 10.5 C 22 %
1073 08-12-2019 10:41:17 10.1 C 25 %
1074 08-12-2019 10:51:17 10.2 C 25 %
1075 08-12-2019 11:01:17 10.5 C 25 %
Sensor: Nr:Datum:Temp:Feuchte:
Aussen-T/F 1076 08-12-2019 11:11:17 10.6 C 23 %
1077 08-12-2019 11:21:17 10.8 C 23 %
1078 08-12-2019 11:31:17 10.8 C 23 %
1079 08-12-2019 11:41:17 10.8 C 22 %
1080 08-12-2019 11:51:17 11 C 22 %
1081 08-12-2019 12:01:18 11.1 C 22 %
1082 08-12-2019 12:11:18 11.3 C 22 %
1083 08-12-2019 12:21:17 11.4 C 22 %
1084 08-12-2019 12:31:17 11.4 C 22 %
1085 08-12-2019 12:41:17 11.4 C 23 %
1086 08-12-2019 12:51:17 11.3 C 24 %
1087 08-12-2019 13:01:18 11.5 C 24 %
1088 08-12-2019 13:11:18 11.5 C 22 %
1089 08-12-2019 13:21:17 11.3 C 25 %
1090 08-12-2019 13:31:17 11.1 C 25 %
1091 08-12-2019 13:41:17 11.4 C 25 %
1092 08-12-2019 13:51:17 11.4 C 25 %
1093 08-12-2019 14:01:17 11.5 C 25 %
1094 08-12-2019 14:11:17 11.5 C 25 %
1095 08-12-2019 14:21:17 11.5 C 25 %
1096 08-12-2019 14:31:18 11.7 C 25 %
1097 08-12-2019 14:41:18 11.7 C 25 %
1098 08-12-2019 14:51:17 11.7 C 25 %
1099 08-12-2019 15:01:18 11.8 C 25 %
1100 08-12-2019 15:11:18 11.8 C 25 %
Sensor: Nr:Datum:Temp:Feuchte:
Aussen-T/F 1101 08-12-2019 15:21:18 11.7 C 25 %
1102 08-12-2019 15:31:18 11.7 C 25 %
1103 08-12-2019 15:41:18 11.8 C 25 %
1104 08-12-2019 15:51:17 11.8 C 25 %
1105 08-12-2019 16:01:17 11.7 C 25 %
1106 08-12-2019 16:11:17 11.8 C 25 %
1107 08-12-2019 16:21:18 11.7 C 25 %
1108 08-12-2019 16:31:18 11.6 C 26 %
1109 08-12-2019 16:41:18 11.4 C 27 %
1110 08-12-2019 16:51:17 9.4 C 31 %
1111 08-12-2019 17:01:17 8.9 C 33 %
1112 08-12-2019 17:11:17 8.8 C 33 %
1113 08-12-2019 17:21:17 8.7 C 34 %
1114 08-12-2019 17:31:17 9.2 C 27 %
1115 08-12-2019 17:41:17 8.5 C 33 %
1116 08-12-2019 17:51:17 8.5 C 33 %
1117 08-12-2019 18:01:17 8.5 C 32 %
1118 08-12-2019 18:11:17 8.6 C 31 %
1119 08-12-2019 18:21:17 8.2 C 33 %
1120 08-12-2019 18:31:18 8.5 C 29 %
1121 08-12-2019 18:41:18 8.5 C 29 %
1122 08-12-2019 18:51:17 8.6 C 28 %
1123 08-12-2019 19:01:17 8.9 C 27 %
1124 08-12-2019 19:11:17 8.5 C 28 %
1125 08-12-2019 19:21:17 8.5 C 28 %
Sensor: Nr:Datum:Temp:Feuchte:
Aussen-T/F 1126 08-12-2019 19:31:17 8.6 C 27 %
1127 08-12-2019 19:41:17 8 C 31 %
1128 08-12-2019 19:51:18 7.8 C 33 %
1129 08-12-2019 20:01:17 7.5 C 36 %
1130 08-12-2019 20:11:17 8.1 C 33 %
1131 08-12-2019 20:21:17 8.2 C 30 %
1132 08-12-2019 20:31:17 8.3 C 29 %
1133 08-12-2019 20:41:17 8.5 C 28 %
1134 08-12-2019 20:51:17 8.6 C 26 %
1135 08-12-2019 21:01:18 8.8 C 26 %
1136 08-12-2019 21:11:18 8.9 C 25 %
1137 08-12-2019 21:21:17 8.4 C 26 %
1138 08-12-2019 21:31:17 8.7 C 26 %
1139 08-12-2019 21:41:17 8.4 C 26 %
1140 08-12-2019 21:51:18 8.4 C 26 %
1141 08-12-2019 22:01:17 8.5 C 26 %
1142 08-12-2019 22:11:17 7.9 C 27 %
1143 08-12-2019 22:21:17 8.1 C 26 %
1144 08-12-2019 22:31:17 8.6 C 26 %
1145 08-12-2019 22:41:17 8.8 C 26 %
1146 08-12-2019 22:51:17 8.7 C 25 %
1147 08-12-2019 23:01:17 8.8 C 25 %
1148 08-12-2019 23:11:17 8.7 C 26 %
1149 08-12-2019 23:21:17 8.8 C 25 %
1150 08-12-2019 23:31:18 8.7 C 25 %
Sensor: Nr:Datum:Temp:Feuchte:
Aussen-T/F 1151 08-12-2019 23:41:18 8.5 C 25 %
1152 08-12-2019 23:51:17 8.4 C 21 %
1153 09-12-2019 00:01:18 8.7 C 20 %
1154 09-12-2019 00:11:18 8.1 C 21 %
1155 09-12-2019 00:21:17 8.4 C 21 %
1156 09-12-2019 00:31:17 8.4 C 21 %
1157 09-12-2019 00:41:17 8.5 C 20 %
1158 09-12-2019 00:51:17 8.4 C 20 %
1159 09-12-2019 01:01:17 8.4 C 20 %
1160 09-12-2019 01:11:17 8.5 C 20 %
1161 09-12-2019 01:21:18 8.1 C 20 %
1162 09-12-2019 01:31:17 8 C 20 %
1163 09-12-2019 01:41:17 8.3 C 20 %
1164 09-12-2019 01:51:17 8.2 C 20 %
1165 09-12-2019 02:01:17 7.8 C 20 %
1166 09-12-2019 02:11:17 7.6 C 20 %
1167 09-12-2019 02:21:17 7.4 C 21 %
1168 09-12-2019 02:31:18 7.4 C 21 %
1169 09-12-2019 02:41:18 7.1 C 23 %
1170 09-12-2019 02:51:18 7.5 C 20 %
1171 09-12-2019 03:01:17 7.5 C 20 %
1172 09-12-2019 03:11:17 7.5 C 20 %
1173 09-12-2019 03:21:17 7.5 C 20 %
1174 09-12-2019 03:31:17 7.3 C 20 %
1175 09-12-2019 03:41:17 6.8 C 23 %
Sensor: Nr:Datum:Temp:Feuchte:
Aussen-T/F 1176 09-12-2019 03:51:17 7.3 C 21 %
1177 09-12-2019 04:01:17 7.3 C 20 %
1178 09-12-2019 04:11:17 7.9 C 20 %
1179 09-12-2019 04:21:18 8 C 20 %
1180 09-12-2019 04:31:18 7.6 C 20 %
1181 09-12-2019 04:41:18 7.4 C 21 %
1182 09-12-2019 04:51:17 6.9 C 25 %
1183 09-12-2019 05:01:17 6.9 C 25 %
1184 09-12-2019 05:11:17 7.4 C 20 %
1185 09-12-2019 05:21:17 7.5 C 20 %
1186 09-12-2019 05:31:17 7.4 C 20 %
1187 09-12-2019 05:41:18 7.1 C 20 %
1188 09-12-2019 05:51:17 7.2 C 20 %
1189 09-12-2019 06:01:17 7.4 C 20 %
1190 09-12-2019 06:11:17 7.4 C 20 %
1191 09-12-2019 06:21:17 7.4 C 20 %
1192 09-12-2019 06:31:17 7.6 C 20 %
1193 09-12-2019 06:41:17 7.8 C 20 %
1194 09-12-2019 06:51:18 7.7 C 20 %
1195 09-12-2019 07:01:17 7.6 C 20 %
1196 09-12-2019 07:11:18 7.5 C 20 %
1197 09-12-2019 07:21:17 7.2 C 20 %
1198 09-12-2019 07:31:17 7.2 C 20 %
1199 09-12-2019 07:41:17 7.6 C 20 %
1200 09-12-2019 07:51:18 7.5 C 20 %
Sensor: Nr:Datum:Temp:Feuchte:
Aussen-T/F 1201 09-12-2019 08:01:17 7.9 C 20 %
1202 09-12-2019 08:11:17 7.8 C 20 %
1203 09-12-2019 08:21:17 7.9 C 20 %
1204 09-12-2019 08:31:17 8 C 20 %
1205 09-12-2019 08:41:17 7.9 C 20 %
1206 09-12-2019 08:51:17 7.9 C 20 %
1207 09-12-2019 09:01:17 7.8 C 20 %
1208 09-12-2019 09:11:17 7.9 C 20 %
1209 09-12-2019 09:21:17 7.5 C 20 %
1210 09-12-2019 09:31:17 7.4 C 23 %
1211 09-12-2019 09:41:17 7.5 C 21 %
1212 09-12-2019 09:51:17 7.7 C 21 %
1213 09-12-2019 10:01:17 7.9 C 21 %
1214 09-12-2019 10:11:17 7.9 C 21 %
1215 09-12-2019 10:21:17 7.9 C 20 %
1216 09-12-2019 10:31:18 7.9 C 21 %
1217 09-12-2019 10:41:18 7.9 C 21 %
1218 09-12-2019 10:51:17 8.1 C 20 %
1219 09-12-2019 11:01:17 8 C 20 %
1220 09-12-2019 11:11:17 8.2 C 20 %
1221 09-12-2019 11:21:17 8.4 C 20 %
1222 09-12-2019 11:31:18 8.4 C 20 %
1223 09-12-2019 11:41:18 8.3 C 20 %
1224 09-12-2019 11:51:17 8.1 C 20 %
1225 09-12-2019 12:01:17 8.2 C 20 %
Sensor: Nr:Datum:Temp:Feuchte:
Aussen-T/F 1226 09-12-2019 12:11:17 8 C 20 %
1227 09-12-2019 12:21:18 8.1 C 20 %
1228 09-12-2019 12:31:17 8.3 C 20 %
1229 09-12-2019 12:41:17 8.2 C 20 %
1230 09-12-2019 12:51:17 8.3 C 20 %
1231 09-12-2019 13:01:18 8.3 C 20 %
1232 09-12-2019 13:11:18 8.3 C 20 %
1233 09-12-2019 13:21:17 8.2 C 20 %
1234 09-12-2019 13:31:17 8.1 C 20 %
1235 09-12-2019 13:41:17 8.5 C 20 %
1236 09-12-2019 13:51:17 8.8 C 20 %
1237 09-12-2019 14:01:17 8.6 C 20 %
1238 09-12-2019 14:11:17 8.5 C 20 %
1239 09-12-2019 14:21:17 8.6 C 20 %
1240 09-12-2019 14:31:17 8.4 C 20 %
1241 09-12-2019 14:41:17 7.9 C 20 %
1242 09-12-2019 14:51:18 8.4 C 20 %
1243 09-12-2019 15:01:17 7.9 C 20 %
1244 09-12-2019 15:11:17 7.3 C 25 %
1245 09-12-2019 15:21:17 7 C 27 %
1246 09-12-2019 15:31:18 7.1 C 26 %
1247 09-12-2019 15:41:18 7.1 C 25 %
1248 09-12-2019 15:51:17 7.4 C 23 %
1249 09-12-2019 16:01:18 7.5 C 20 %
1250 09-12-2019 16:11:18 7.5 C 20 %
Sensor: Nr:Datum:Temp:Feuchte:
Aussen-T/F 1251 09-12-2019 16:21:17 7.6 C 20 %
1252 09-12-2019 16:31:18 7.3 C 20 %
1253 09-12-2019 16:41:18 7.4 C 20 %
1254 09-12-2019 16:51:17 7.3 C 20 %
1255 09-12-2019 17:01:18 7.1 C 20 %
1256 09-12-2019 17:11:18 7.2 C 20 %
1257 09-12-2019 17:21:17 6.7 C 25 %
1258 09-12-2019 17:31:17 6.1 C 32 %
1259 09-12-2019 17:41:17 5.9 C 36 %
1260 09-12-2019 17:51:17 6 C 34 %
1261 09-12-2019 18:01:18 6 C 30 %
1262 09-12-2019 18:11:18 6.1 C 31 %
1263 09-12-2019 18:21:17 6 C 33 %
1264 09-12-2019 18:31:17 5.8 C 35 %
1265 09-12-2019 18:41:17 5.7 C 37 %
1266 09-12-2019 18:51:18 5.7 C 38 %
1267 09-12-2019 19:01:17 5.6 C 35 %
1268 09-12-2019 19:11:17 5.5 C 38 %
1269 09-12-2019 19:21:17 5.6 C 39 %
1270 09-12-2019 19:31:17 5.6 C 38 %
1271 09-12-2019 19:41:17 5.6 C 38 %
1272 09-12-2019 19:51:17 5.6 C 37 %
1273 09-12-2019 20:01:17 5.6 C 35 %
1274 09-12-2019 20:11:17 5.6 C 34 %
1275 09-12-2019 20:21:17 5.6 C 35 %
Sensor: Nr:Datum:Temp:Feuchte:
Aussen-T/F 1276 09-12-2019 20:31:17 5.6 C 32 %
1277 09-12-2019 20:41:17 5.4 C 33 %
1278 09-12-2019 20:51:17 5.3 C 34 %
1279 09-12-2019 21:01:17 5.2 C 33 %
1280 09-12-2019 21:11:18 5.1 C 34 %
1281 09-12-2019 21:21:17 5.2 C 35 %
1282 09-12-2019 21:31:17 5.3 C 32 %
1283 09-12-2019 21:41:17 5.1 C 31 %
1284 09-12-2019 21:51:17 5 C 31 %
1285 09-12-2019 22:01:17 4.8 C 32 %
1286 09-12-2019 22:11:17 4.7 C 31 %
1287 09-12-2019 22:21:17 4.9 C 30 %
1288 09-12-2019 22:31:17 4.9 C 30 %
1289 09-12-2019 22:41:17 4.9 C 30 %
1290 09-12-2019 22:51:18 4.7 C 30 %
1291 09-12-2019 23:01:17 4.6 C 29 %
1292 09-12-2019 23:11:17 4.5 C 29 %
1293 09-12-2019 23:21:17 4.1 C 30 %
1294 09-12-2019 23:31:18 4 C 30 %
1295 09-12-2019 23:41:18 4.1 C 29 %
1296 09-12-2019 23:51:17 4.1 C 29 %
1297 10-12-2019 00:01:17 3.7 C 30 %
1298 10-12-2019 00:11:17 4.1 C 28 %
1299 10-12-2019 00:21:17 3.4 C 30 %
1300 10-12-2019 00:31:17 3.6 C 30 %
Sensor: Nr:Datum:Temp:Feuchte:
Aussen-T/F 1301 10-12-2019 00:41:17 3.1 C 31 %
1302 10-12-2019 00:51:17 3 C 31 %
1303 10-12-2019 01:01:17 2.4 C 33 %
1304 10-12-2019 01:11:17 2.4 C 36 %
1305 10-12-2019 01:21:17 2.5 C 36 %
1306 10-12-2019 01:31:18 2.8 C 34 %
1307 10-12-2019 01:41:18 2.4 C 34 %
1308 10-12-2019 01:51:17 2.4 C 33 %
1309 10-12-2019 02:01:18 2.7 C 33 %
1310 10-12-2019 02:11:18 2.9 C 32 %
1311 10-12-2019 02:21:17 2.3 C 33 %
1312 10-12-2019 02:31:17 2.1 C 35 %
1313 10-12-2019 02:41:17 1.7 C 37 %
1314 10-12-2019 02:51:17 1.6 C 39 %
1315 10-12-2019 03:01:17 1.8 C 40 %
1316 10-12-2019 03:11:17 1.8 C 40 %
1317 10-12-2019 03:21:17 1.8 C 40 %
1318 10-12-2019 03:31:17 2 C 40 %
1319 10-12-2019 03:41:17 1.4 C 41 %
1320 10-12-2019 03:51:17 1.4 C 43 %
1321 10-12-2019 04:01:17 1.1 C 43 %
1322 10-12-2019 04:11:17 1.3 C 41 %
1323 10-12-2019 04:21:17 0.6 C 41 %
1324 10-12-2019 04:31:18 0.6 C 44 %
1325 10-12-2019 04:41:18 0.7 C 45 %
Sensor: Nr:Datum:Temp:Feuchte:
Aussen-T/F 1326 10-12-2019 04:51:17 0.9 C 46 %
1327 10-12-2019 05:01:17 1.1 C 44 %
1328 10-12-2019 05:11:17 1.8 C 41 %
1329 10-12-2019 05:21:18 2.2 C 35 %
1330 10-12-2019 05:31:18 2 C 35 %
1331 10-12-2019 05:41:18 2 C 35 %
1332 10-12-2019 05:51:17 1.8 C 36 %
1333 10-12-2019 06:01:17 1.5 C 36 %
1334 10-12-2019 06:11:17 1.6 C 37 %
1335 10-12-2019 06:21:18 1.4 C 36 %
1336 10-12-2019 06:31:17 1.1 C 38 %
1337 10-12-2019 06:41:17 0.9 C 42 %
1338 10-12-2019 06:51:17 1.2 C 42 %
1339 10-12-2019 07:01:18 1.3 C 40 %
1340 10-12-2019 07:11:18 1.5 C 40 %
1341 10-12-2019 07:21:17 1.7 C 36 %
1342 10-12-2019 07:31:17 1.2 C 37 %
1343 10-12-2019 07:41:17 0.8 C 41 %
1344 10-12-2019 07:51:17 0.8 C 41 %
1345 10-12-2019 08:01:17 0.7 C 41 %
1346 10-12-2019 08:11:17 0.8 C 41 %
1347 10-12-2019 08:21:17 0.4 C 42 %
1348 10-12-2019 08:31:18 0.6 C 42 %
1349 10-12-2019 08:41:18 0.4 C 42 %
1350 10-12-2019 08:51:17 0.4 C 43 %
Sensor: Nr:Datum:Temp:Feuchte:
Aussen-T/F 1351 10-12-2019 09:01:17 0.1 C 42 %
1352 10-12-2019 09:11:17 0.5 C 44 %
1353 10-12-2019 09:21:17 0.8 C 44 %
1354 10-12-2019 09:31:17 1.4 C 42 %
1355 10-12-2019 09:41:17 1.7 C 39 %
1356 10-12-2019 09:51:17 1.8 C 39 %
1357 10-12-2019 10:01:17 2.2 C 36 %
1358 10-12-2019 10:11:17 2.5 C 35 %
1359 10-12-2019 10:21:17 2.7 C 33 %
1360 10-12-2019 10:31:17 2.7 C 33 %
1361 10-12-2019 10:41:17 2.5 C 33 %
1362 10-12-2019 10:51:17 2.4 C 35 %
1363 10-12-2019 11:01:17 2.4 C 34 %
1364 10-12-2019 11:11:17 2.5 C 34 %
1365 10-12-2019 11:21:17 2.3 C 35 %
1366 10-12-2019 11:31:18 2.2 C 36 %
1367 10-12-2019 11:41:18 2.9 C 34 %
1368 10-12-2019 11:51:17 3.5 C 30 %
1369 10-12-2019 12:01:17 3.7 C 30 %
1370 10-12-2019 12:11:17 3.8 C 30 %
1371 10-12-2019 12:21:17 3.9 C 30 %
1372 10-12-2019 12:31:17 3.9 C 30 %
1373 10-12-2019 12:41:17 4.3 C 27 %
1374 10-12-2019 12:51:17 4.5 C 27 %
1375 10-12-2019 13:01:17 4.6 C 27 %
Sensor: Nr:Datum:Temp:Feuchte:
Aussen-T/F 1376 10-12-2019 13:11:17 4.7 C 27 %
1377 10-12-2019 13:21:17 4.7 C 27 %
1378 10-12-2019 13:31:17 4.9 C 27 %
1379 10-12-2019 13:41:17 5.1 C 25 %
1380 10-12-2019 13:51:17 5 C 25 %
1381 10-12-2019 14:01:17 4.6 C 27 %
1382 10-12-2019 14:11:17 4.2 C 28 %
1383 10-12-2019 14:21:17 3.8 C 30 %
1384 10-12-2019 14:31:18 3.9 C 30 %
1385 10-12-2019 14:41:18 3.8 C 30 %
1386 10-12-2019 14:51:17 3.5 C 30 %
1387 10-12-2019 15:01:17 3.5 C 30 %
1388 10-12-2019 15:11:17 3.3 C 31 %
1389 10-12-2019 15:21:17 3.2 C 31 %
1390 10-12-2019 15:31:17 3.1 C 31 %
1391 10-12-2019 15:41:18 3.2 C 31 %
1392 10-12-2019 15:51:17 2.9 C 31 %
1393 10-12-2019 16:01:17 2.4 C 32 %
1394 10-12-2019 16:11:17 3.1 C 31 %
1395 10-12-2019 16:21:17 3.4 C 30 %
1396 10-12-2019 16:31:17 3.5 C 28 %
1397 10-12-2019 16:41:17 3.3 C 28 %
1398 10-12-2019 16:51:17 3.3 C 26 %
1399 10-12-2019 17:01:17 2.8 C 27 %
1400 10-12-2019 17:11:17 2.7 C 27 %
Sensor: Nr:Datum:Temp:Feuchte:
Aussen-T/F 1401 10-12-2019 17:21:18 2.7 C 27 %
1402 10-12-2019 17:31:17 2.7 C 27 %
1403 10-12-2019 17:41:17 2.6 C 27 %
1404 10-12-2019 17:51:17 2.4 C 28 %
1405 10-12-2019 18:01:17 2.3 C 27 %
1406 10-12-2019 18:11:17 1.7 C 31 %
1407 10-12-2019 18:21:17 1.9 C 32 %
1408 10-12-2019 18:31:17 1.8 C 33 %
1409 10-12-2019 18:41:17 1.7 C 34 %
1410 10-12-2019 18:51:17 1.6 C 35 %
1411 10-12-2019 19:01:17 1.5 C 36 %
1412 10-12-2019 19:11:17 1.5 C 36 %
1413 10-12-2019 19:21:17 1.6 C 36 %
1414 10-12-2019 19:31:17 1.5 C 36 %
1415 10-12-2019 19:41:18 1.7 C 36 %
1416 10-12-2019 19:51:17 1.7 C 35 %
1417 10-12-2019 20:01:17 2.2 C 32 %
1418 10-12-2019 20:11:17 2.1 C 32 %
1419 10-12-2019 20:21:17 2.7 C 29 %
1420 10-12-2019 20:31:18 2.9 C 28 %
1421 10-12-2019 20:41:18 2.6 C 30 %
1422 10-12-2019 20:51:17 2.3 C 30 %
1423 10-12-2019 21:01:17 2.5 C 31 %
1424 10-12-2019 21:11:17 2.3 C 31 %
1425 10-12-2019 21:21:17 2.1 C 32 %
Sensor: Nr:Datum:Temp:Feuchte:
Aussen-T/F 1426 10-12-2019 21:31:17 2 C 33 %
1427 10-12-2019 21:41:18 1.8 C 35 %
1428 10-12-2019 21:51:17 1.8 C 36 %
1429 10-12-2019 22:01:17 1.8 C 36 %
1430 10-12-2019 22:11:17 2.1 C 35 %
1431 10-12-2019 22:21:17 2.2 C 34 %
1432 10-12-2019 22:31:17 2.4 C 32 %
1433 10-12-2019 22:41:17 2.5 C 33 %
1434 10-12-2019 22:51:18 2.8 C 31 %
1435 10-12-2019 23:01:17 2.9 C 30 %
1436 10-12-2019 23:11:17 3 C 30 %
1437 10-12-2019 23:21:17 3 C 30 %
1438 10-12-2019 23:31:17 2.9 C 31 %
1439 10-12-2019 23:41:17 3.3 C 28 %
1440 10-12-2019 23:51:17 3.3 C 30 %
1441 11-12-2019 00:01:18 3.2 C 30 %
1442 11-12-2019 00:11:18 3.3 C 29 %
1443 11-12-2019 00:21:17 3.4 C 28 %
1444 11-12-2019 00:31:17 3.4 C 29 %
1445 11-12-2019 00:41:17 3.5 C 27 %
1446 11-12-2019 00:51:17 3.4 C 27 %
1447 11-12-2019 01:01:17 3.5 C 25 %
1448 11-12-2019 01:11:17 3.4 C 27 %
1449 11-12-2019 01:21:18 3.4 C 28 %
1450 11-12-2019 01:31:17 3.4 C 29 %
Sensor: Nr:Datum:Temp:Feuchte:
Aussen-T/F 1451 11-12-2019 01:41:17 3.2 C 30 %
1452 11-12-2019 01:51:17 3.1 C 32 %
1453 11-12-2019 02:01:17 3 C 33 %
1454 11-12-2019 02:11:17 2.9 C 33 %
1455 11-12-2019 02:21:17 2.9 C 32 %
1456 11-12-2019 02:31:18 2.8 C 34 %
1457 11-12-2019 02:41:18 2.9 C 31 %
1458 11-12-2019 02:51:17 3 C 30 %
1459 11-12-2019 03:01:18 3.1 C 30 %
1460 11-12-2019 03:11:18 3 C 32 %
1461 11-12-2019 03:21:17 2.9 C 30 %
1462 11-12-2019 03:31:17 3 C 30 %
1463 11-12-2019 03:41:17 3 C 35 %
1464 11-12-2019 03:51:17 2.8 C 36 %
1465 11-12-2019 04:01:17 2.7 C 35 %
1466 11-12-2019 04:11:17 2.8 C 35 %
1467 11-12-2019 04:21:17 2.8 C 35 %
1468 11-12-2019 04:31:18 2.8 C 38 %
1469 11-12-2019 04:41:18 2.7 C 38 %
1470 11-12-2019 04:51:17 2.7 C 39 %
1471 11-12-2019 05:01:17 2.7 C 39 %
1472 11-12-2019 05:11:17 2.7 C 39 %
1473 11-12-2019 05:21:18 2.7 C 40 %
1474 11-12-2019 05:31:17 2.6 C 42 %
1475 11-12-2019 05:41:17 2.6 C 43 %
Sensor: Nr:Datum:Temp:Feuchte:
Aussen-T/F 1476 11-12-2019 05:51:17 2.5 C 44 %
1477 11-12-2019 06:01:18 2.5 C 44 %
1478 11-12-2019 06:11:18 2.5 C 44 %
1479 11-12-2019 06:21:17 2.5 C 44 %
1480 11-12-2019 06:31:17 2.5 C 44 %
1481 11-12-2019 06:41:17 2.5 C 44 %
1482 11-12-2019 06:51:17 2.5 C 44 %
1483 11-12-2019 07:01:17 2.4 C 44 %
1484 11-12-2019 07:11:17 2.5 C 44 %
1485 11-12-2019 07:21:17 2.4 C 44 %
1486 11-12-2019 07:31:17 2.4 C 44 %
1487 11-12-2019 07:41:18 2.4 C 43 %
1488 11-12-2019 07:51:17 2.4 C 43 %
1489 11-12-2019 08:01:17 2.4 C 43 %
1490 11-12-2019 08:11:17 2.4 C 43 %
1491 11-12-2019 08:21:17 2.4 C 43 %
1492 11-12-2019 08:31:18 2.3 C 43 %
1493 11-12-2019 08:41:18 2.3 C 43 %
1494 11-12-2019 08:51:17 2.3 C 43 %
1495 11-12-2019 09:01:18 2.3 C 43 %
1496 11-12-2019 09:11:18 2.4 C 43 %
1497 11-12-2019 09:21:17 2.5 C 43 %
1498 11-12-2019 09:31:17 2.5 C 43 %
1499 11-12-2019 09:41:17 2.5 C 43 %
1500 11-12-2019 09:51:17 2.5 C 43 %
Sensor: Nr:Datum:Temp:Feuchte:
Aussen-T/F 1501 11-12-2019 10:01:17 2.6 C 43 %
1502 11-12-2019 10:11:17 2.7 C 43 %
1503 11-12-2019 10:21:17 2.7 C 42 %
1504 11-12-2019 10:31:17 2.7 C 42 %
1505 11-12-2019 10:41:17 2.8 C 41 %
1506 11-12-2019 10:51:17 3.1 C 40 %
1507 11-12-2019 11:01:17 3 C 39 %
1508 11-12-2019 11:11:17 3.1 C 39 %
1509 11-12-2019 11:21:17 3.2 C 39 %
1510 11-12-2019 11:31:17 3.1 C 38 %
1511 11-12-2019 11:41:17 3.1 C 38 %
1512 11-12-2019 11:51:17 3.2 C 39 %
1513 11-12-2019 12:01:18 3.2 C 39 %
1514 11-12-2019 12:11:18 3.1 C 39 %
1515 11-12-2019 12:21:17 3.1 C 39 %
1516 11-12-2019 12:31:17 3.1 C 40 %
1517 11-12-2019 12:41:17 3.1 C 40 %
1518 11-12-2019 12:51:17 3.1 C 40 %
1519 11-12-2019 13:01:18 3.2 C 40 %
1520 11-12-2019 13:11:18 3.2 C 40 %
1521 11-12-2019 13:21:17 3.2 C 40 %
1522 11-12-2019 13:31:17 3.2 C 40 %
1523 11-12-2019 13:41:17 3.2 C 40 %
1524 11-12-2019 13:51:17 3.2 C 40 %
1525 11-12-2019 14:01:17 3.2 C 41 %
Sensor: Nr:Datum:Temp:Feuchte:
Aussen-T/F 1526 11-12-2019 14:11:18 3.2 C 41 %
1527 11-12-2019 14:21:17 3.2 C 41 %
1528 11-12-2019 14:31:17 3.3 C 41 %
1529 11-12-2019 14:41:17 3.3 C 42 %
1530 11-12-2019 14:51:17 3.3 C 42 %
1531 11-12-2019 15:01:17 3.3 C 42 %
1532 11-12-2019 15:11:17 3.4 C 42 %
1533 11-12-2019 15:21:17 3.3 C 42 %
1534 11-12-2019 15:31:18 3.3 C 42 %
1535 11-12-2019 15:41:18 3.3 C 42 %
1536 11-12-2019 15:51:17 3.3 C 42 %
1537 11-12-2019 16:01:17 3.2 C 42 %
1538 11-12-2019 16:11:17 3.2 C 42 %
1539 11-12-2019 16:21:17 3.2 C 42 %
1540 11-12-2019 16:31:17 3.2 C 42 %
1541 11-12-2019 16:41:17 3.1 C 42 %
1542 11-12-2019 16:51:17 3.1 C 42 %
1543 11-12-2019 17:01:17 3.1 C 43 %
1544 11-12-2019 17:11:17 3.1 C 42 %
1545 11-12-2019 17:21:17 3.1 C 42 %
1546 11-12-2019 17:31:17 3.1 C 42 %
1547 11-12-2019 17:41:17 3.1 C 42 %
1548 11-12-2019 17:51:18 3.2 C 43 %
1549 11-12-2019 18:01:17 3.2 C 43 %
1550 11-12-2019 18:11:17 3.3 C 43 %
Sensor: Nr:Datum:Temp:Feuchte:
Aussen-T/F 1551 11-12-2019 18:21:17 3.3 C 43 %
1552 11-12-2019 18:31:18 3.4 C 43 %
1553 11-12-2019 18:41:18 3.4 C 43 %
1554 11-12-2019 18:51:17 3.5 C 43 %
1555 11-12-2019 19:01:17 3.5 C 42 %
1556 11-12-2019 19:11:17 3.5 C 42 %
1557 11-12-2019 19:21:18 3.5 C 42 %
1558 11-12-2019 19:31:17 3.5 C 42 %
1559 11-12-2019 19:41:17 3.6 C 42 %
1560 11-12-2019 19:51:18 3.6 C 42 %
1561 11-12-2019 20:01:17 3.6 C 42 %
1562 11-12-2019 20:11:17 3.7 C 42 %
1563 11-12-2019 20:21:17 3.8 C 42 %
1564 11-12-2019 20:31:18 3.8 C 42 %
1565 11-12-2019 20:41:18 3.9 C 42 %
1566 11-12-2019 20:51:17 4.1 C 41 %
1567 11-12-2019 21:01:17 4.1 C 40 %
1568 11-12-2019 21:11:17 4.3 C 39 %
1569 11-12-2019 21:21:17 4.4 C 37 %
1570 11-12-2019 21:31:17 4.1 C 37 %
1571 11-12-2019 21:41:17 4.3 C 37 %
1572 11-12-2019 21:51:17 4.3 C 36 %
1573 11-12-2019 22:01:17 4.5 C 35 %
1574 11-12-2019 22:11:17 4.1 C 35 %
1575 11-12-2019 22:21:17 3.9 C 37 %
Sensor: Nr:Datum:Temp:Feuchte:
Aussen-T/F 1576 11-12-2019 22:31:17 3.6 C 39 %
1577 11-12-2019 22:41:17 3.8 C 39 %
1578 11-12-2019 22:51:18 3.5 C 40 %
1579 11-12-2019 23:01:17 3.8 C 40 %
1580 11-12-2019 23:11:17 3.8 C 40 %
1581 11-12-2019 23:21:17 3.4 C 40 %
1582 11-12-2019 23:31:17 3 C 41 %
1583 11-12-2019 23:41:17 3.4 C 43 %
1584 11-12-2019 23:51:18 3.2 C 42 %
1585 12-12-2019 00:01:17 3 C 42 %
1586 12-12-2019 00:11:17 2.9 C 43 %
1587 12-12-2019 00:21:17 2.8 C 43 %
1588 12-12-2019 00:31:17 2.5 C 43 %
1589 12-12-2019 00:41:17 2.4 C 43 %
1590 12-12-2019 00:51:17 2.3 C 43 %
1591 12-12-2019 01:01:17 2.7 C 44 %
1592 12-12-2019 01:11:17 2.8 C 44 %
1593 12-12-2019 01:21:18 2.6 C 43 %
1594 12-12-2019 01:31:17 2.2 C 43 %
1595 12-12-2019 01:41:17 2.5 C 43 %
1596 12-12-2019 01:51:18 2.1 C 43 %
1597 12-12-2019 02:01:17 1.8 C 44 %
1598 12-12-2019 02:11:17 1.6 C 44 %
1599 12-12-2019 02:21:17 1.7 C 44 %
1600 12-12-2019 02:31:18 1.6 C 44 %
Sensor: Nr:Datum:Temp:Feuchte:
Aussen-T/F 1601 12-12-2019 02:41:18 2 C 43 %
1602 12-12-2019 02:51:17 2 C 43 %
1603 12-12-2019 03:01:17 2.3 C 43 %
1604 12-12-2019 03:11:17 2.4 C 43 %
1605 12-12-2019 03:21:17 2.5 C 43 %
1606 12-12-2019 03:31:17 2.4 C 43 %
1607 12-12-2019 03:41:17 2.5 C 43 %
1608 12-12-2019 03:51:17 2.7 C 43 %
1609 12-12-2019 04:01:17 2.6 C 43 %
1610 12-12-2019 04:11:17 2.7 C 43 %
1611 12-12-2019 04:21:17 2.8 C 43 %
1612 12-12-2019 04:31:17 2.8 C 43 %
1613 12-12-2019 04:41:17 2.9 C 43 %
1614 12-12-2019 04:51:17 2.4 C 42 %
1615 12-12-2019 05:01:17 2 C 42 %
1616 12-12-2019 05:11:17 2.1 C 42 %
1617 12-12-2019 05:21:17 2.2 C 42 %
1618 12-12-2019 05:31:18 2.1 C 42 %
1619 12-12-2019 05:41:18 2.1 C 42 %
1620 12-12-2019 05:51:17 2.1 C 42 %
1621 12-12-2019 06:01:17 1.9 C 43 %
1622 12-12-2019 06:11:17 2 C 42 %
1623 12-12-2019 06:21:17 2.1 C 42 %
1624 12-12-2019 06:31:17 2.1 C 42 %
1625 12-12-2019 06:41:17 2.3 C 42 %
Sensor: Nr:Datum:Temp:Feuchte:
Aussen-T/F 1626 12-12-2019 06:51:17 2.7 C 43 %
1627 12-12-2019 07:01:17 3 C 42 %
1628 12-12-2019 07:11:17 3 C 42 %
1629 12-12-2019 07:21:17 3 C 42 %
1630 12-12-2019 07:31:17 3 C 42 %
1631 12-12-2019 07:41:17 2.8 C 42 %
1632 12-12-2019 07:51:17 2.9 C 42 %
1633 12-12-2019 08:01:17 2.9 C 42 %
1634 12-12-2019 08:11:17 3.1 C 42 %
1635 12-12-2019 08:21:17 3.2 C 42 %
1636 12-12-2019 08:31:18 3.3 C 42 %
1637 12-12-2019 08:41:18 3.5 C 42 %
1638 12-12-2019 08:51:17 3.5 C 42 %
1639 12-12-2019 09:01:18 3.5 C 42 %
1640 12-12-2019 09:11:18 3.6 C 42 %
1641 12-12-2019 09:21:17 3.9 C 42 %
1642 12-12-2019 09:31:17 3.9 C 42 %
1643 12-12-2019 09:41:17 3.7 C 41 %
1644 12-12-2019 09:51:17 3.5 C 41 %
1645 12-12-2019 10:01:17 3.9 C 41 %
1646 12-12-2019 10:11:17 4 C 40 %
1647 12-12-2019 10:21:18 4.4 C 37 %
1648 12-12-2019 10:31:17 4.6 C 35 %
1649 12-12-2019 10:41:17 4.7 C 32 %
1650 12-12-2019 10:51:17 4.8 C 31 %
Sensor: Nr:Datum:Temp:Feuchte:
Aussen-T/F 1651 12-12-2019 11:01:18 4.7 C 32 %
1652 12-12-2019 11:11:18 4.6 C 31 %
1653 12-12-2019 11:21:17 4.4 C 31 %
1654 12-12-2019 11:31:17 4.4 C 32 %
1655 12-12-2019 11:41:17 4.7 C 31 %
1656 12-12-2019 11:51:18 4.9 C 29 %
1657 12-12-2019 12:01:17 5.1 C 29 %
1658 12-12-2019 12:11:17 5.1 C 27 %
1659 12-12-2019 12:21:17 5 C 26 %
1660 12-12-2019 12:31:18 4.7 C 27 %
1661 12-12-2019 12:41:18 4.7 C 28 %
1662 12-12-2019 12:51:17 4.7 C 27 %
1663 12-12-2019 13:01:17 4.6 C 28 %
1664 12-12-2019 13:11:18 5 C 26 %
1665 12-12-2019 13:21:17 4.8 C 27 %
1666 12-12-2019 13:31:17 4.6 C 26 %
1667 12-12-2019 13:41:17 4.2 C 26 %
1668 12-12-2019 13:51:17 4.6 C 25 %
1669 12-12-2019 14:01:17 4.6 C 25 %
1670 12-12-2019 14:11:17 4.3 C 25 %
1671 12-12-2019 14:21:17 4 C 27 %
1672 12-12-2019 14:31:18 4.5 C 25 %
1673 12-12-2019 14:41:18 4.8 C 25 %
1674 12-12-2019 14:51:17 4.7 C 25 %
1675 12-12-2019 15:01:18 4 C 26 %
Sensor: Nr:Datum:Temp:Feuchte:
Aussen-T/F 1676 12-12-2019 15:11:18 4.2 C 26 %
1677 12-12-2019 15:21:17 3.6 C 29 %
1678 12-12-2019 15:31:17 3.5 C 29 %
1679 12-12-2019 15:41:17 3.8 C 28 %
1680 12-12-2019 15:51:17 3.7 C 28 %
1681 12-12-2019 16:01:17 3.6 C 28 %
1682 12-12-2019 16:11:17 3.7 C 26 %
1683 12-12-2019 16:21:18 3.5 C 27 %
1684 12-12-2019 16:31:17 3.4 C 26 %
1685 12-12-2019 16:41:17 3.3 C 28 %
1686 12-12-2019 16:51:17 3.1 C 30 %
1687 12-12-2019 17:01:17 2.6 C 30 %
1688 12-12-2019 17:11:17 1.7 C 35 %
1689 12-12-2019 17:21:17 1.2 C 36 %
1690 12-12-2019 17:31:17 1.1 C 38 %
1691 12-12-2019 17:41:17 0.9 C 41 %
1692 12-12-2019 17:51:17 1 C 40 %
1693 12-12-2019 18:01:17 1.1 C 40 %
1694 12-12-2019 18:11:17 1.1 C 40 %
1695 12-12-2019 18:21:17 1.1 C 40 %
1696 12-12-2019 18:31:17 1 C 40 %
1697 12-12-2019 18:41:17 0.9 C 41 %
1698 12-12-2019 18:51:17 0.7 C 41 %
1699 12-12-2019 19:01:17 0.7 C 41 %
1700 12-12-2019 19:11:17 0.6 C 41 %
Sensor: Nr:Datum:Temp:Feuchte:
Aussen-T/F 1701 12-12-2019 19:21:17 0.6 C 42 %
1702 12-12-2019 19:31:17 0.6 C 42 %
1703 12-12-2019 19:41:17 0.7 C 42 %
1704 12-12-2019 19:51:17 0.7 C 41 %
1705 12-12-2019 20:01:17 0.6 C 41 %
1706 12-12-2019 20:11:17 0.6 C 41 %
1707 12-12-2019 20:21:17 0.6 C 41 %
1708 12-12-2019 20:31:17 0.6 C 41 %
1709 12-12-2019 20:41:17 0.6 C 41 %
1710 12-12-2019 20:51:17 1.3 C 42 %
1711 12-12-2019 21:01:17 1.6 C 38 %
1712 12-12-2019 21:11:17 1.6 C 36 %
1713 12-12-2019 21:21:17 1.3 C 36 %
1714 12-12-2019 21:31:17 1.3 C 35 %
1715 12-12-2019 21:41:17 1 C 35 %
1716 12-12-2019 21:51:17 0.7 C 37 %
1717 12-12-2019 22:01:17 1.2 C 37 %
1718 12-12-2019 22:11:17 0.9 C 37 %
1719 12-12-2019 22:21:18 0.4 C 38 %
1720 12-12-2019 22:31:17 0.3 C 39 %
1721 12-12-2019 22:41:17 0.2 C 40 %
1722 12-12-2019 22:51:17 0.4 C 39 %
1723 12-12-2019 23:01:18 1.1 C 37 %
1724 12-12-2019 23:11:18 1.5 C 35 %
1725 12-12-2019 23:21:17 1.9 C 32 %
Sensor: Nr:Datum:Temp:Feuchte:
Aussen-T/F 1726 12-12-2019 23:31:17 1.6 C 31 %
1727 12-12-2019 23:41:17 1.4 C 32 %
1728 12-12-2019 23:51:17 1.5 C 31 %
1729 13-12-2019 00:01:17 0.9 C 33 %
1730 13-12-2019 00:11:17 0.6 C 35 %
1731 13-12-2019 00:21:17 1 C 33 %
1732 13-12-2019 00:31:18 0.7 C 34 %
1733 13-12-2019 00:41:18 0.9 C 35 %
1734 13-12-2019 00:51:17 1.3 C 32 %
1735 13-12-2019 01:01:18 1.7 C 30 %
1736 13-12-2019 01:11:18 1.8 C 29 %
1737 13-12-2019 01:21:17 2 C 27 %
1738 13-12-2019 01:31:17 1.9 C 28 %
1739 13-12-2019 01:41:17 2 C 27 %
1740 13-12-2019 01:51:17 2 C 27 %
1741 13-12-2019 02:01:18 1.9 C 29 %
1742 13-12-2019 02:11:18 2 C 27 %
1743 13-12-2019 02:21:17 2 C 27 %
1744 13-12-2019 02:31:17 2 C 27 %
1745 13-12-2019 02:41:17 2 C 27 %
1746 13-12-2019 02:51:17 2 C 27 %
1747 13-12-2019 03:01:17 1.8 C 29 %
1748 13-12-2019 03:11:17 1.8 C 30 %
1749 13-12-2019 03:21:17 1.7 C 30 %
1750 13-12-2019 03:31:17 1.6 C 30 %
Sensor: Nr:Datum:Temp:Feuchte:
Aussen-T/F 1751 13-12-2019 03:41:17 1.7 C 30 %
1752 13-12-2019 03:51:17 1.6 C 31 %
1753 13-12-2019 04:01:17 1.4 C 32 %
1754 13-12-2019 04:11:17 1.5 C 32 %
1755 13-12-2019 04:21:17 1.6 C 32 %
1756 13-12-2019 04:31:17 1.6 C 32 %
1757 13-12-2019 04:41:17 1.6 C 32 %
1758 13-12-2019 04:51:17 1.4 C 34 %
1759 13-12-2019 05:01:17 1.4 C 35 %
1760 13-12-2019 05:11:17 1.5 C 34 %
1761 13-12-2019 05:21:17 1.5 C 34 %
1762 13-12-2019 05:31:18 1.7 C 33 %
1763 13-12-2019 05:41:18 1.7 C 32 %
1764 13-12-2019 05:51:17 1.8 C 33 %
1765 13-12-2019 06:01:17 1.9 C 32 %
1766 13-12-2019 06:11:17 2 C 31 %
1767 13-12-2019 06:21:17 2 C 31 %
1768 13-12-2019 06:31:17 2 C 32 %
1769 13-12-2019 06:41:17 1.7 C 35 %
1770 13-12-2019 06:51:17 1.8 C 37 %
1771 13-12-2019 07:01:17 1.8 C 37 %
1772 13-12-2019 07:11:18 1.7 C 39 %
1773 13-12-2019 07:21:17 1.8 C 38 %
1774 13-12-2019 07:31:17 1.8 C 40 %
1775 13-12-2019 07:41:17 1.8 C 39 %
Sensor: Nr:Datum:Temp:Feuchte:
Aussen-T/F 1776 13-12-2019 07:51:17 1.9 C 38 %
1777 13-12-2019 08:01:17 1.8 C 38 %
1778 13-12-2019 08:11:17 1.8 C 39 %
1779 13-12-2019 08:21:17 1.7 C 40 %
1780 13-12-2019 08:31:17 1.7 C 41 %
1781 13-12-2019 08:41:17 1.6 C 41 %
1782 13-12-2019 08:51:17 1.7 C 41 %
1783 13-12-2019 09:01:17 1.9 C 40 %
1784 13-12-2019 09:11:17 1.9 C 40 %
1785 13-12-2019 09:21:17 1.9 C 40 %
1786 13-12-2019 09:31:17 1.7 C 42 %
1787 13-12-2019 09:41:17 1.7 C 42 %
1788 13-12-2019 09:51:18 1.9 C 43 %
1789 13-12-2019 10:01:17 1.8 C 43 %
1790 13-12-2019 10:11:17 1.9 C 43 %
1791 13-12-2019 10:21:18 2 C 41 %
1792 13-12-2019 10:31:17 2.2 C 41 %
1793 13-12-2019 10:41:17 2.3 C 41 %
1794 13-12-2019 10:51:18 2.3 C 41 %
1795 13-12-2019 11:01:17 2.4 C 41 %
1796 13-12-2019 11:11:17 2.3 C 40 %
1797 13-12-2019 11:21:17 2.3 C 40 %
1798 13-12-2019 11:31:17 2.4 C 41 %
1799 13-12-2019 11:41:17 2.5 C 41 %
1800 13-12-2019 11:51:18 2.8 C 42 %
Sensor: Nr:Datum:Temp:Feuchte:
Aussen-T/F 1801 13-12-2019 12:01:17 3 C 41 %
1802 13-12-2019 12:11:17 3.1 C 39 %
1803 13-12-2019 12:21:17 3.2 C 38 %
1804 13-12-2019 12:31:17 3.5 C 38 %
1805 13-12-2019 12:41:17 3.5 C 38 %
1806 13-12-2019 12:51:18 3.6 C 38 %
1807 13-12-2019 13:01:18 3.8 C 39 %
1808 13-12-2019 13:11:18 4.1 C 37 %
1809 13-12-2019 13:21:17 4.6 C 38 %
1810 13-12-2019 13:31:17 5.2 C 35 %
1811 13-12-2019 13:41:17 5.7 C 35 %
1812 13-12-2019 13:51:17 6.4 C 31 %
1813 13-12-2019 14:01:17 6.7 C 30 %
1814 13-12-2019 14:11:17 7 C 28 %
1815 13-12-2019 14:21:17 6.8 C 29 %
1816 13-12-2019 14:31:17 6.8 C 28 %
1817 13-12-2019 14:41:17 6.7 C 28 %
1818 13-12-2019 14:51:18 6.4 C 29 %
1819 13-12-2019 15:01:18 6.3 C 29 %
1820 13-12-2019 15:11:18 6.3 C 29 %
1821 13-12-2019 15:21:17 6.2 C 30 %
1822 13-12-2019 15:31:17 5.9 C 30 %
1823 13-12-2019 15:41:17 5.8 C 31 %
1824 13-12-2019 15:51:17 5.5 C 31 %
1825 13-12-2019 16:01:18 5.3 C 30 %
Sensor: Nr:Datum:Temp:Feuchte:
Aussen-T/F 1826 13-12-2019 16:11:18 5.4 C 30 %
1827 13-12-2019 16:21:17 5.3 C 30 %
1828 13-12-2019 16:31:17 5.1 C 30 %
1829 13-12-2019 16:41:17 4.8 C 31 %
1830 13-12-2019 16:51:17 4.5 C 31 %
1831 13-12-2019 17:01:17 4.6 C 31 %
1832 13-12-2019 17:11:17 4.5 C 31 %
1833 13-12-2019 17:21:17 4.3 C 34 %
1834 13-12-2019 17:31:18 4.3 C 34 %
1835 13-12-2019 17:41:18 4.2 C 33 %
1836 13-12-2019 17:51:17 4 C 33 %
1837 13-12-2019 18:01:17 3.8 C 36 %
1838 13-12-2019 18:11:17 3.7 C 40 %
1839 13-12-2019 18:21:17 3.8 C 39 %
1840 13-12-2019 18:31:17 3.8 C 40 %
1841 13-12-2019 18:41:18 3.8 C 39 %
1842 13-12-2019 18:51:17 3.9 C 36 %
1843 13-12-2019 19:01:17 3.9 C 36 %
1844 13-12-2019 19:11:17 3.9 C 35 %
1845 13-12-2019 19:21:17 4 C 34 %
1846 13-12-2019 19:31:17 4.1 C 35 %
1847 13-12-2019 19:41:17 4 C 36 %
1848 13-12-2019 19:51:17 4.6 C 32 %
1849 13-12-2019 20:01:17 4.6 C 32 %
1850 13-12-2019 20:11:17 4.8 C 31 %
Sensor: Nr:Datum:Temp:Feuchte:
Aussen-T/F 1851 13-12-2019 20:21:17 4.7 C 31 %
1852 13-12-2019 20:31:17 4.7 C 31 %
1853 13-12-2019 20:41:17 4.7 C 32 %
1854 13-12-2019 20:51:17 4.5 C 32 %
1855 13-12-2019 21:01:17 4.3 C 34 %
1856 13-12-2019 21:11:17 4 C 36 %
1857 13-12-2019 21:21:17 4.5 C 35 %
1858 13-12-2019 21:31:18 4.4 C 33 %
1859 13-12-2019 21:41:18 4.4 C 35 %
1860 13-12-2019 21:51:17 4.6 C 32 %
1861 13-12-2019 22:01:17 4.6 C 31 %
1862 13-12-2019 22:11:17 4.6 C 30 %
1863 13-12-2019 22:21:17 4.7 C 30 %
1864 13-12-2019 22:31:18 4.7 C 30 %
1865 13-12-2019 22:41:18 3.8 C 34 %
1866 13-12-2019 22:51:17 3.8 C 36 %
1867 13-12-2019 23:01:17 4.5 C 32 %
1868 13-12-2019 23:11:17 5.1 C 29 %
1869 13-12-2019 23:21:17 5.2 C 28 %
1870 13-12-2019 23:31:17 5.2 C 28 %
1871 13-12-2019 23:41:17 5 C 30 %
1872 13-12-2019 23:51:17 5 C 30 %
1873 14-12-2019 00:01:17 4.4 C 32 %
1874 14-12-2019 00:11:17 4.5 C 30 %
1875 14-12-2019 00:21:17 4.6 C 30 %
Sensor: Nr:Datum:Temp:Feuchte:
Aussen-T/F 1876 14-12-2019 00:31:18 4.3 C 33 %
1877 14-12-2019 00:41:18 4.7 C 32 %
1878 14-12-2019 00:51:17 5.1 C 28 %
1879 14-12-2019 01:01:17 5.4 C 27 %
1880 14-12-2019 01:11:17 5.3 C 27 %
1881 14-12-2019 01:21:17 5.2 C 26 %
1882 14-12-2019 01:31:17 5.1 C 26 %
1883 14-12-2019 01:41:17 5.3 C 25 %
1884 14-12-2019 01:51:17 5.2 C 25 %
1885 14-12-2019 02:01:17 5 C 26 %
1886 14-12-2019 02:11:17 4.5 C 30 %
1887 14-12-2019 02:21:17 4.6 C 29 %
1888 14-12-2019 02:31:18 4.7 C 29 %
1889 14-12-2019 02:41:18 4.8 C 28 %
1890 14-12-2019 02:51:17 4.5 C 30 %
1891 14-12-2019 03:01:18 4.2 C 33 %
1892 14-12-2019 03:11:18 4.1 C 36 %
1893 14-12-2019 03:21:17 3.9 C 38 %
1894 14-12-2019 03:31:17 3.9 C 39 %
1895 14-12-2019 03:41:17 3.9 C 36 %
1896 14-12-2019 03:51:18 3.8 C 36 %
1897 14-12-2019 04:01:17 3.8 C 40 %
1898 14-12-2019 04:11:17 3.8 C 41 %
1899 14-12-2019 04:21:17 3.7 C 42 %
1900 14-12-2019 04:31:18 3.5 C 42 %
Sensor: Nr:Datum:Temp:Feuchte:
Aussen-T/F 1901 14-12-2019 04:41:18 3.5 C 42 %
1902 14-12-2019 04:51:17 3.4 C 42 %
1903 14-12-2019 05:01:17 3.4 C 41 %
1904 14-12-2019 05:11:17 3.4 C 41 %
1905 14-12-2019 05:21:17 3.4 C 42 %
1906 14-12-2019 05:31:18 3.4 C 42 %
1907 14-12-2019 05:41:18 3.4 C 43 %
1908 14-12-2019 05:51:17 3.4 C 43 %
1909 14-12-2019 06:01:18 3.4 C 42 %
1910 14-12-2019 06:11:18 3.7 C 43 %
1911 14-12-2019 06:21:17 4 C 42 %
1912 14-12-2019 06:31:17 5 C 40 %
1913 14-12-2019 06:41:17 5.2 C 39 %
1914 14-12-2019 06:51:18 5.6 C 36 %
1915 14-12-2019 07:01:17 5.6 C 36 %
1916 14-12-2019 07:11:18 5.7 C 36 %
1917 14-12-2019 07:21:17 5.8 C 36 %
1918 14-12-2019 07:31:17 5.8 C 36 %
1919 14-12-2019 07:41:17 6.3 C 37 %
1920 14-12-2019 07:51:17 6.5 C 36 %
1921 14-12-2019 08:01:17 6.8 C 35 %
1922 14-12-2019 08:11:17 7 C 28 %
1923 14-12-2019 08:21:17 7.2 C 26 %
1924 14-12-2019 08:31:18 7.1 C 25 %
1925 14-12-2019 08:41:18 6.9 C 25 %
Sensor: Nr:Datum:Temp:Feuchte:
Aussen-T/F 1926 14-12-2019 08:51:17 6.7 C 25 %
1927 14-12-2019 09:01:17 6.9 C 23 %
1928 14-12-2019 09:11:17 6.7 C 23 %
1929 14-12-2019 09:21:18 6.5 C 23 %
1930 14-12-2019 09:31:18 6.7 C 20 %
1931 14-12-2019 09:41:18 6.5 C 21 %
1932 14-12-2019 09:51:17 6.7 C 21 %
1933 14-12-2019 10:01:17 6.7 C 21 %
1934 14-12-2019 10:11:17 6.6 C 23 %
1935 14-12-2019 10:21:17 6.6 C 25 %
1936 14-12-2019 10:31:17 6.7 C 25 %
1937 14-12-2019 10:41:17 6.4 C 26 %
1938 14-12-2019 10:51:17 5.9 C 29 %
1939 14-12-2019 11:01:18 5.9 C 29 %
1940 14-12-2019 11:11:18 6.4 C 27 %
1941 14-12-2019 11:21:17 6.7 C 26 %
1942 14-12-2019 11:31:17 6.3 C 26 %
1943 14-12-2019 11:41:17 6.4 C 25 %
1944 14-12-2019 11:51:17 6.9 C 20 %
1945 14-12-2019 12:01:17 7 C 20 %
1946 14-12-2019 12:11:17 7.2 C 20 %
1947 14-12-2019 12:21:18 7 C 20 %
1948 14-12-2019 12:31:17 7.3 C 20 %
1949 14-12-2019 12:41:17 7.6 C 20 %
1950 14-12-2019 12:51:17 7.8 C 20 %
Sensor: Nr:Datum:Temp:Feuchte:
Aussen-T/F 1951 14-12-2019 13:01:17 7.9 C 20 %
1952 14-12-2019 13:11:17 8 C 20 %
1953 14-12-2019 13:21:17 8.4 C 20 %
1954 14-12-2019 13:31:17 8.4 C 20 %
1955 14-12-2019 13:41:17 8.3 C 20 %
1956 14-12-2019 13:51:17 8.4 C 20 %
1957 14-12-2019 14:01:18 8.5 C 20 %
1958 14-12-2019 14:11:18 8.4 C 20 %
1959 14-12-2019 14:21:17 8.4 C 20 %
1960 14-12-2019 14:31:18 8.7 C 20 %
1961 14-12-2019 14:41:18 8.8 C 20 %
1962 14-12-2019 14:51:18 8.6 C 20 %
1963 14-12-2019 15:01:17 7.3 C 23 %
1964 14-12-2019 15:11:17 6.8 C 28 %
1965 14-12-2019 15:21:17 6.6 C 30 %
1966 14-12-2019 15:31:17 6.7 C 28 %
1967 14-12-2019 15:41:18 6.8 C 28 %
1968 14-12-2019 15:51:17 7.1 C 26 %
1969 14-12-2019 16:01:17 7 C 26 %
1970 14-12-2019 16:11:17 6.9 C 26 %
1971 14-12-2019 16:21:17 6.9 C 27 %
1972 14-12-2019 16:31:18 7.2 C 25 %
1973 14-12-2019 16:41:18 7.6 C 25 %
1974 14-12-2019 16:51:17 7.5 C 25 %
1975 14-12-2019 17:01:17 7.6 C 25 %
Sensor: Nr:Datum:Temp:Feuchte:
Aussen-T/F 1976 14-12-2019 17:11:17 7.6 C 25 %
1977 14-12-2019 17:21:17 7.4 C 25 %
1978 14-12-2019 17:31:18 7.2 C 26 %
1979 14-12-2019 17:41:18 6.9 C 27 %
1980 14-12-2019 17:51:17 7.1 C 26 %
1981 14-12-2019 18:01:17 7.1 C 26 %
1982 14-12-2019 18:11:17 7.3 C 26 %
1983 14-12-2019 18:22:17 7.6 C 25 %
1984 14-12-2019 18:31:17 7.8 C 25 %
1985 14-12-2019 18:41:17 7.4 C 25 %
1986 14-12-2019 18:52:17 7 C 26 %
1987 14-12-2019 19:01:18 6.7 C 27 %
1988 14-12-2019 19:11:18 6.2 C 28 %
1989 14-12-2019 19:21:17 6.4 C 26 %
1990 14-12-2019 19:31:17 6.1 C 26 %
1991 14-12-2019 19:41:17 6.4 C 25 %
1992 14-12-2019 19:52:17 6.4 C 25 %
1993 14-12-2019 20:01:18 6.6 C 25 %
1994 14-12-2019 20:11:18 6.7 C 25 %
1995 14-12-2019 20:21:17 6.9 C 25 %
1996 14-12-2019 20:31:17 5.8 C 27 %
1997 14-12-2019 20:41:17 5.9 C 27 %
1998 14-12-2019 20:52:17 7 C 25 %
1999 14-12-2019 21:01:17 7.2 C 25 %
2000 14-12-2019 21:11:17 7 C 25 %
Sensor: Nr:Datum:Temp:Feuchte:
Aussen-T/F 2001 14-12-2019 21:22:17 7.1 C 25 %
2002 14-12-2019 21:31:18 6.7 C 26 %
2003 14-12-2019 21:41:18 6.8 C 26 %
2004 14-12-2019 21:52:17 6.9 C 26 %
2005 14-12-2019 22:02:17 7.1 C 25 %
2006 14-12-2019 22:11:17 6.8 C 26 %
2007 14-12-2019 22:22:17 6.9 C 26 %
2008 14-12-2019 22:31:17 7.3 C 25 %
2009 14-12-2019 22:41:17 7 C 26 %
2010 14-12-2019 22:52:17 7.3 C 25 %
2011 14-12-2019 23:02:17 7.1 C 25 %
2012 14-12-2019 23:12:17 7.3 C 25 %
2013 14-12-2019 23:22:17 7 C 26 %
2014 14-12-2019 23:31:18 7 C 26 %
2015 14-12-2019 23:41:18 7.4 C 25 %
2016 14-12-2019 23:51:18 7 C 25 %
2017 15-12-2019 00:02:17 6.4 C 27 %
2018 15-12-2019 00:11:17 6 C 28 %
2019 15-12-2019 00:22:17 5.6 C 30 %
2020 15-12-2019 00:31:18 5.3 C 31 %
2021 15-12-2019 00:41:18 5.1 C 32 %
2022 15-12-2019 00:52:17 5.2 C 32 %
2023 15-12-2019 01:02:17 5.2 C 32 %
2024 15-12-2019 01:12:17 5.3 C 33 %
2025 15-12-2019 01:22:17 5.5 C 33 %
Sensor: Nr:Datum:Temp:Feuchte:
Aussen-T/F 2026 15-12-2019 01:31:18 5.7 C 31 %
2027 15-12-2019 01:41:18 5.6 C 31 %
2028 15-12-2019 01:52:17 5.6 C 31 %
2029 15-12-2019 02:02:17 5.9 C 31 %
2030 15-12-2019 02:12:17 5.8 C 32 %
2031 15-12-2019 02:22:17 5.9 C 32 %
2032 15-12-2019 02:32:18 5.7 C 35 %
2033 15-12-2019 02:42:18 5.8 C 37 %
2034 15-12-2019 02:52:17 5.9 C 39 %
2035 15-12-2019 03:02:18 5.9 C 40 %
2036 15-12-2019 03:12:18 5.9 C 41 %
2037 15-12-2019 03:22:17 6 C 41 %
2038 15-12-2019 03:32:17 6 C 42 %
2039 15-12-2019 03:42:17 6.3 C 42 %
2040 15-12-2019 03:52:17 6.4 C 42 %
2041 15-12-2019 04:02:17 6.8 C 42 %
2042 15-12-2019 04:12:17 7.3 C 41 %
2043 15-12-2019 04:22:17 7.3 C 41 %
2044 15-12-2019 04:32:17 7.5 C 41 %
2045 15-12-2019 04:42:17 7.9 C 40 %
2046 15-12-2019 04:52:17 8 C 39 %
2047 15-12-2019 05:02:17 8.2 C 38 %
2048 15-12-2019 05:12:17 8.2 C 37 %
2049 15-12-2019 05:22:17 8.4 C 37 %
2050 15-12-2019 05:32:18 9 C 34 %
Sensor: Nr:Datum:Temp:Feuchte:
Aussen-T/F 2051 15-12-2019 05:42:18 10 C 30 %
2052 15-12-2019 05:52:17 10.2 C 30 %
2053 15-12-2019 06:02:17 10.3 C 29 %
2054 15-12-2019 06:12:17 10.3 C 29 %
2055 15-12-2019 06:22:17 10.1 C 29 %
2056 15-12-2019 06:32:17 10.5 C 28 %
2057 15-12-2019 06:42:17 10.8 C 27 %
2058 15-12-2019 06:52:17 10.7 C 27 %
2059 15-12-2019 07:02:17 10.5 C 27 %
2060 15-12-2019 07:12:17 10.9 C 27 %
2061 15-12-2019 07:22:17 10.3 C 27 %
2062 15-12-2019 07:32:17 10.6 C 27 %
2063 15-12-2019 07:42:17 10.5 C 27 %
2064 15-12-2019 07:52:17 10.7 C 27 %
2065 15-12-2019 08:02:17 10.7 C 27 %
2066 15-12-2019 08:12:17 11 C 26 %
2067 15-12-2019 08:22:17 10.9 C 27 %
2068 15-12-2019 08:32:18 10.6 C 27 %
2069 15-12-2019 08:42:18 10.2 C 28 %
2070 15-12-2019 08:52:17 9.5 C 34 %
2071 15-12-2019 09:02:17 9.2 C 34 %
2072 15-12-2019 09:12:17 8.9 C 35 %
2073 15-12-2019 09:22:17 8.7 C 33 %
2074 15-12-2019 09:32:17 8.5 C 34 %
2075 15-12-2019 09:42:17 8.2 C 35 %
Sensor: Nr:Datum:Temp:Feuchte:
Aussen-T/F 2076 15-12-2019 09:52:18 8 C 36 %
2077 15-12-2019 10:02:18 8.1 C 34 %
2078 15-12-2019 10:12:18 8.2 C 32 %
2079 15-12-2019 10:22:18 8.2 C 34 %
2080 15-12-2019 10:32:17 8.1 C 33 %
2081 15-12-2019 10:42:17 8.5 C 31 %
2082 15-12-2019 10:52:17 8.7 C 30 %
2083 15-12-2019 11:02:17 8.4 C 30 %
2084 15-12-2019 11:12:17 8.5 C 30 %
2085 15-12-2019 11:22:17 8.5 C 28 %
2086 15-12-2019 11:32:17 8.6 C 28 %
2087 15-12-2019 11:42:17 8.6 C 28 %
2088 15-12-2019 11:52:17 8.3 C 27 %
2089 15-12-2019 12:02:17 8.3 C 27 %
2090 15-12-2019 12:12:17 8.1 C 27 %
2091 15-12-2019 12:22:17 8.1 C 28 %
2092 15-12-2019 12:32:17 7.9 C 29 %
2093 15-12-2019 12:42:17 8.2 C 28 %
2094 15-12-2019 12:52:18 8.4 C 28 %
2095 15-12-2019 13:02:18 8.7 C 27 %
2096 15-12-2019 13:12:18 9.1 C 25 %
2097 15-12-2019 13:22:17 9.3 C 23 %
2098 15-12-2019 13:32:17 9.2 C 21 %
2099 15-12-2019 13:42:17 9.2 C 20 %
2100 15-12-2019 13:52:18 9.2 C 20 %
Sensor: Nr:Datum:Temp:Feuchte:
Aussen-T/F 2101 15-12-2019 14:02:17 9.2 C 20 %
2102 15-12-2019 14:12:17 9.3 C 20 %
2103 15-12-2019 14:22:17 9.3 C 20 %
2104 15-12-2019 14:32:17 9.1 C 20 %
2105 15-12-2019 14:42:17 9.1 C 20 %
2106 15-12-2019 14:52:17 9 C 20 %
2107 15-12-2019 15:02:17 9 C 20 %
2108 15-12-2019 15:12:17 8.9 C 20 %
2109 15-12-2019 15:22:17 8.9 C 20 %
2110 15-12-2019 15:32:17 8.8 C 20 %
2111 15-12-2019 15:42:17 8.7 C 20 %
2112 15-12-2019 15:52:17 8.7 C 20 %
2113 15-12-2019 16:02:17 8.4 C 20 %
2114 15-12-2019 16:12:17 8.2 C 20 %
2115 15-12-2019 16:22:18 8.4 C 20 %
2116 15-12-2019 16:32:17 7.9 C 20 %
2117 15-12-2019 16:42:17 7.6 C 20 %
2118 15-12-2019 16:52:17 8 C 20 %
2119 15-12-2019 17:02:17 7.4 C 20 %
2120 15-12-2019 17:12:17 7.4 C 20 %
2121 15-12-2019 17:22:17 7.8 C 20 %
2122 15-12-2019 17:32:17 7.2 C 21 %
2123 15-12-2019 17:42:17 7.6 C 20 %
2124 15-12-2019 17:52:17 7.7 C 20 %
2125 15-12-2019 18:02:17 7.5 C 20 %
Sensor: Nr:Datum:Temp:Feuchte:
Aussen-T/F 2126 15-12-2019 18:12:17 8.2 C 20 %
2127 15-12-2019 18:22:17 7.5 C 20 %
2128 15-12-2019 18:32:17 6.9 C 25 %
2129 15-12-2019 18:42:17 6.2 C 27 %
2130 15-12-2019 18:52:18 5.9 C 29 %
2131 15-12-2019 19:02:17 5.4 C 30 %
2132 15-12-2019 19:12:17 5.3 C 31 %
2133 15-12-2019 19:22:17 4.9 C 32 %
2134 15-12-2019 19:32:18 5.3 C 32 %
2135 15-12-2019 19:42:18 5 C 33 %
2136 15-12-2019 19:52:17 5.4 C 33 %
2137 15-12-2019 20:02:17 5.2 C 33 %
2138 15-12-2019 20:12:17 4.7 C 35 %
2139 15-12-2019 20:22:17 4.4 C 36 %
2140 15-12-2019 20:32:17 4.3 C 37 %
2141 15-12-2019 20:42:17 3.9 C 39 %
2142 15-12-2019 20:52:17 3.7 C 40 %
2143 15-12-2019 21:02:17 3.5 C 41 %
2144 15-12-2019 21:12:17 3.3 C 41 %
2145 15-12-2019 21:22:17 3.1 C 41 %
2146 15-12-2019 21:32:18 2.8 C 42 %
2147 15-12-2019 21:42:18 2.9 C 43 %
2148 15-12-2019 21:52:17 3.3 C 43 %
2149 15-12-2019 22:02:17 3.3 C 44 %
2150 15-12-2019 22:12:17 3.3 C 43 %
Sensor: Nr:Datum:Temp:Feuchte:
Aussen-T/F 2151 15-12-2019 22:22:17 3.5 C 43 %
2152 15-12-2019 22:32:17 3.5 C 43 %
2153 15-12-2019 22:42:17 3.4 C 43 %
2154 15-12-2019 22:52:18 3.3 C 43 %
2155 15-12-2019 23:02:17 3.5 C 43 %
2156 15-12-2019 23:12:18 3.6 C 43 %
2157 15-12-2019 23:22:17 3.7 C 43 %
2158 15-12-2019 23:32:18 3.5 C 42 %
2159 15-12-2019 23:42:18 3.3 C 42 %
2160 15-12-2019 23:52:17 3.8 C 43 %
2161 16-12-2019 00:02:17 4 C 42 %
2162 16-12-2019 00:12:17 4.4 C 42 %
2163 16-12-2019 00:22:17 4.4 C 42 %
2164 16-12-2019 00:32:17 4.5 C 42 %
2165 16-12-2019 00:42:17 4.5 C 42 %
2166 16-12-2019 00:52:18 4.7 C 42 %
2167 16-12-2019 01:02:17 5.1 C 41 %
2168 16-12-2019 01:12:17 5 C 41 %
2169 16-12-2019 01:22:17 5.2 C 42 %
2170 16-12-2019 01:32:17 5.2 C 41 %
2171 16-12-2019 01:42:18 5.3 C 42 %
2172 16-12-2019 01:52:17 5.5 C 42 %
2173 16-12-2019 02:02:18 5.4 C 42 %
2174 16-12-2019 02:12:18 5.5 C 42 %
2175 16-12-2019 02:22:17 5.7 C 42 %
Sensor: Nr:Datum:Temp:Feuchte:
Aussen-T/F 2176 16-12-2019 02:32:17 5.7 C 42 %
2177 16-12-2019 02:42:17 5.9 C 42 %
2178 16-12-2019 02:52:18 5.8 C 41 %
2179 16-12-2019 03:02:17 5.8 C 41 %
2180 16-12-2019 03:12:17 5.9 C 41 %
2181 16-12-2019 03:22:17 5.9 C 41 %
2182 16-12-2019 03:32:18 5.9 C 41 %
2183 16-12-2019 03:42:18 5.8 C 41 %
2184 16-12-2019 03:52:17 6 C 41 %
2185 16-12-2019 04:02:17 6 C 41 %
2186 16-12-2019 04:12:17 6 C 41 %
2187 16-12-2019 04:22:17 5.9 C 41 %
2188 16-12-2019 04:32:17 6.1 C 41 %
2189 16-12-2019 04:42:17 6.2 C 41 %
2190 16-12-2019 04:52:17 6.3 C 41 %
2191 16-12-2019 05:02:17 6.4 C 41 %
2192 16-12-2019 05:12:17 6.4 C 41 %
2193 16-12-2019 05:22:17 6.5 C 41 %
2194 16-12-2019 05:32:17 6.6 C 41 %
2195 16-12-2019 05:42:17 6.6 C 41 %
2196 16-12-2019 05:52:17 6.8 C 41 %
2197 16-12-2019 06:02:17 6.9 C 41 %
2198 16-12-2019 06:12:17 6.9 C 41 %
2199 16-12-2019 06:22:17 6.8 C 40 %
2200 16-12-2019 06:32:17 6.7 C 40 %
Sensor: Nr:Datum:Temp:Feuchte:
Aussen-T/F 2201 16-12-2019 06:42:17 6.8 C 40 %
2202 16-12-2019 06:52:17 6.8 C 40 %
2203 16-12-2019 07:02:17 6.8 C 40 %
2204 16-12-2019 07:12:17 6.7 C 40 %
2205 16-12-2019 07:22:17 6.8 C 40 %
2206 16-12-2019 07:32:18 6.9 C 41 %
2207 16-12-2019 07:42:18 6.9 C 41 %
2208 16-12-2019 07:52:17 7 C 40 %
2209 16-12-2019 08:02:17 7.1 C 40 %
2210 16-12-2019 08:12:17 7 C 40 %
2211 16-12-2019 08:22:17 7.1 C 40 %
2212 16-12-2019 08:32:17 7.1 C 40 %
2213 16-12-2019 08:42:17 7.1 C 40 %
2214 16-12-2019 08:52:17 7.2 C 40 %
2215 16-12-2019 09:02:17 7.3 C 40 %
2216 16-12-2019 09:12:17 7.5 C 40 %
2217 16-12-2019 09:22:18 7.4 C 40 %
2218 16-12-2019 09:32:17 7.5 C 40 %
2219 16-12-2019 09:42:17 7.5 C 40 %
2220 16-12-2019 09:52:17 7.6 C 40 %
2221 16-12-2019 10:02:18 7.6 C 40 %
2222 16-12-2019 10:12:18 7.7 C 40 %
2223 16-12-2019 10:22:17 7.8 C 40 %
2224 16-12-2019 10:32:17 7.9 C 40 %
2225 16-12-2019 10:42:17 8.1 C 40 %
Sensor: Nr:Datum:Temp:Feuchte:
Aussen-T/F 2226 16-12-2019 10:52:17 8.2 C 40 %
2227 16-12-2019 11:02:17 8.3 C 40 %
2228 16-12-2019 11:12:17 8.5 C 40 %
2229 16-12-2019 11:22:17 8.9 C 40 %
2230 16-12-2019 11:32:18 8.8 C 39 %
2231 16-12-2019 11:42:18 9.1 C 39 %
2232 16-12-2019 11:52:17 9.4 C 39 %
2233 16-12-2019 12:02:17 9.3 C 38 %
2234 16-12-2019 12:12:17 9.3 C 37 %
2235 16-12-2019 12:22:17 9.3 C 37 %
2236 16-12-2019 12:32:17 9.4 C 37 %
2237 16-12-2019 12:42:17 9.4 C 38 %
2238 16-12-2019 12:52:17 9.8 C 38 %
2239 16-12-2019 13:02:17 9.9 C 36 %
2240 16-12-2019 13:12:17 9.9 C 36 %
2241 16-12-2019 13:22:17 10 C 35 %
2242 16-12-2019 13:32:17 10.2 C 34 %
2243 16-12-2019 13:42:17 10.2 C 35 %
2244 16-12-2019 13:52:18 10.3 C 34 %
2245 16-12-2019 14:02:17 10.1 C 34 %
2246 16-12-2019 14:12:17 10.2 C 34 %
2247 16-12-2019 14:22:17 10.3 C 34 %
2248 16-12-2019 14:32:17 10.2 C 33 %
2249 16-12-2019 14:42:17 10.1 C 34 %
2250 16-12-2019 14:52:18 10.1 C 34 %
Sensor: Nr:Datum:Temp:Feuchte:
Aussen-T/F 2251 16-12-2019 15:02:17 9.9 C 35 %
2252 16-12-2019 15:12:17 9.8 C 35 %
2253 16-12-2019 15:22:17 9.6 C 36 %
2254 16-12-2019 15:32:18 9.3 C 37 %
2255 16-12-2019 15:42:18 9.1 C 39 %
2256 16-12-2019 15:52:17 9 C 40 %
2257 16-12-2019 16:02:17 8.7 C 40 %
2258 16-12-2019 16:12:17 8.5 C 40 %
2259 16-12-2019 16:22:17 8.4 C 40 %
2260 16-12-2019 16:32:18 8.2 C 41 %
2261 16-12-2019 16:42:18 8 C 40 %
2262 16-12-2019 16:52:17 7.7 C 41 %
2263 16-12-2019 17:02:17 7.4 C 41 %
2264 16-12-2019 17:12:17 7.3 C 41 %
2265 16-12-2019 17:22:17 7.5 C 41 %
2266 16-12-2019 17:32:17 7.3 C 41 %
2267 16-12-2019 17:42:17 7.2 C 41 %
2268 16-12-2019 17:52:17 7 C 41 %
2269 16-12-2019 18:02:17 7.1 C 41 %
2270 16-12-2019 18:12:17 7.4 C 41 %
2271 16-12-2019 18:22:17 7.5 C 41 %
2272 16-12-2019 18:32:17 8.2 C 40 %
2273 16-12-2019 18:42:17 8.1 C 38 %
2274 16-12-2019 18:52:17 8.7 C 37 %
2275 16-12-2019 19:02:18 8.5 C 35 %
Sensor: Nr:Datum:Temp:Feuchte:
Aussen-T/F 2276 16-12-2019 19:12:18 7.9 C 36 %
2277 16-12-2019 19:22:17 7.7 C 37 %
2278 16-12-2019 19:32:17 8.5 C 40 %
2279 16-12-2019 19:42:17 7.9 C 37 %
2280 16-12-2019 19:52:18 8 C 37 %
2281 16-12-2019 20:02:17 7.9 C 37 %
2282 16-12-2019 20:12:17 8.1 C 36 %
2283 16-12-2019 20:22:17 7.7 C 37 %
2284 16-12-2019 20:32:17 8 C 39 %
2285 16-12-2019 20:42:17 7.9 C 36 %
2286 16-12-2019 20:52:17 7.8 C 36 %
2287 16-12-2019 21:02:17 7.3 C 37 %
2288 16-12-2019 21:12:17 7.2 C 40 %
2289 16-12-2019 21:22:17 7.5 C 39 %
2290 16-12-2019 21:32:17 7.2 C 38 %
2291 16-12-2019 21:42:17 7 C 40 %
2292 16-12-2019 21:52:17 6.7 C 41 %
2293 16-12-2019 22:02:17 6.9 C 41 %
2294 16-12-2019 22:12:17 7.5 C 40 %
2295 16-12-2019 22:22:17 7.4 C 38 %
2296 16-12-2019 22:32:17 7.9 C 37 %
2297 16-12-2019 22:42:17 7.8 C 36 %
2298 16-12-2019 22:52:18 7.3 C 37 %
2299 16-12-2019 23:02:17 7.3 C 39 %
2300 16-12-2019 23:12:17 7.3 C 39 %
Sensor: Nr:Datum:Temp:Feuchte:
Aussen-T/F 2301 16-12-2019 23:22:17 7.5 C 40 %
2302 16-12-2019 23:32:17 7.6 C 39 %
2303 16-12-2019 23:42:17 7.6 C 39 %
2304 16-12-2019 23:52:18 7.8 C 39 %
2305 17-12-2019 00:02:17 7.6 C 37 %
2306 17-12-2019 00:12:17 7.5 C 38 %
2307 17-12-2019 00:22:17 7.6 C 38 %
2308 17-12-2019 00:32:18 7.3 C 39 %
2309 17-12-2019 00:42:18 7.2 C 40 %
2310 17-12-2019 00:52:17 7.4 C 39 %
2311 17-12-2019 01:02:17 7.2 C 39 %
2312 17-12-2019 01:12:17 7.4 C 40 %
2313 17-12-2019 01:22:17 7.8 C 39 %
2314 17-12-2019 01:32:17 7.3 C 37 %
2315 17-12-2019 01:42:17 7.4 C 38 %
2316 17-12-2019 01:52:17 7.4 C 37 %
2317 17-12-2019 02:02:18 7.4 C 37 %
2318 17-12-2019 02:12:18 7.6 C 37 %
2319 17-12-2019 02:22:17 7.3 C 37 %
2320 17-12-2019 02:32:17 7.1 C 37 %
2321 17-12-2019 02:42:17 7.5 C 36 %
2322 17-12-2019 02:52:18 7.6 C 36 %
2323 17-12-2019 03:02:17 8 C 35 %
2324 17-12-2019 03:12:17 8.1 C 35 %
2325 17-12-2019 03:22:17 8.4 C 35 %
Sensor: Nr:Datum:Temp:Feuchte:
Aussen-T/F 2326 17-12-2019 03:32:17 8.8 C 32 %
2327 17-12-2019 03:42:17 8.9 C 32 %
2328 17-12-2019 03:52:18 8.8 C 32 %
2329 17-12-2019 04:02:17 8.5 C 32 %
2330 17-12-2019 04:12:17 8.5 C 32 %
2331 17-12-2019 04:22:17 8.4 C 32 %
2332 17-12-2019 04:32:17 8.4 C 32 %
2333 17-12-2019 04:42:17 8 C 32 %
2334 17-12-2019 04:52:18 8.3 C 33 %
2335 17-12-2019 05:02:17 8.5 C 33 %
2336 17-12-2019 05:12:17 8.5 C 33 %
2337 17-12-2019 05:22:17 8.2 C 33 %
2338 17-12-2019 05:32:17 8.1 C 34 %
2339 17-12-2019 05:42:17 7.9 C 35 %
2340 17-12-2019 05:52:17 7.9 C 36 %
2341 17-12-2019 06:02:17 7.8 C 36 %
2342 17-12-2019 06:12:17 7.3 C 36 %
2343 17-12-2019 06:22:18 7.3 C 38 %
2344 17-12-2019 06:32:17 7.5 C 38 %
2345 17-12-2019 06:42:17 7.6 C 36 %
2346 17-12-2019 06:52:17 7.6 C 38 %
2347 17-12-2019 07:02:17 7.7 C 36 %
2348 17-12-2019 07:12:17 7.6 C 37 %
2349 17-12-2019 07:22:17 7.5 C 36 %
2350 17-12-2019 07:32:18 7 C 37 %
Sensor: Nr:Datum:Temp:Feuchte:
Aussen-T/F 2351 17-12-2019 07:42:18 7.4 C 38 %
2352 17-12-2019 07:52:17 7.2 C 36 %
2353 17-12-2019 08:02:17 7.2 C 36 %
2354 17-12-2019 08:12:17 6.9 C 37 %
2355 17-12-2019 08:22:17 6.9 C 38 %
2356 17-12-2019 08:32:17 7 C 38 %
2357 17-12-2019 08:42:18 6.9 C 37 %
2358 17-12-2019 08:52:17 6.9 C 37 %
2359 17-12-2019 09:02:17 6.5 C 38 %
2360 17-12-2019 09:12:17 6.4 C 39 %
2361 17-12-2019 09:22:18 6.5 C 40 %
2362 17-12-2019 09:32:17 6.4 C 40 %
2363 17-12-2019 09:42:17 6.6 C 40 %
2364 17-12-2019 09:52:17 6.3 C 39 %
2365 17-12-2019 10:02:18 6.4 C 40 %
2366 17-12-2019 10:12:18 6.4 C 40 %
2367 17-12-2019 10:22:17 6.4 C 39 %
2368 17-12-2019 10:32:17 6.8 C 40 %
2369 17-12-2019 10:42:17 7.2 C 37 %
2370 17-12-2019 10:52:17 8 C 36 %
2371 17-12-2019 11:02:17 8.6 C 34 %
2372 17-12-2019 11:12:17 8.5 C 32 %
2373 17-12-2019 11:22:17 8.7 C 32 %
2374 17-12-2019 11:32:17 9 C 32 %
2375 17-12-2019 11:42:17 9.1 C 32 %
Sensor: Nr:Datum:Temp:Feuchte:
Aussen-T/F 2376 17-12-2019 11:52:17 9 C 32 %
2377 17-12-2019 12:02:17 9 C 34 %
2378 17-12-2019 12:12:17 9.2 C 34 %
2379 17-12-2019 12:22:17 9.5 C 33 %
2380 17-12-2019 12:32:17 9.7 C 32 %
2381 17-12-2019 12:42:17 9.8 C 32 %
2382 17-12-2019 12:52:17 9.6 C 32 %
2383 17-12-2019 13:02:17 10.1 C 31 %
2384 17-12-2019 13:12:17 10.4 C 30 %
2385 17-12-2019 13:22:17 10.6 C 30 %
2386 17-12-2019 13:32:17 11 C 29 %
2387 17-12-2019 13:42:17 11.6 C 28 %
2388 17-12-2019 13:52:18 12.3 C 26 %
2389 17-12-2019 14:02:17 12.5 C 26 %
2390 17-12-2019 14:12:17 12.4 C 26 %
2391 17-12-2019 14:22:17 11.6 C 27 %
2392 17-12-2019 14:32:17 11.4 C 27 %
2393 17-12-2019 14:42:17 11.5 C 27 %
2394 17-12-2019 14:52:17 11.8 C 27 %
2395 17-12-2019 15:02:17 12 C 26 %
2396 17-12-2019 15:12:17 12 C 26 %
2397 17-12-2019 15:22:17 11.8 C 27 %
2398 17-12-2019 15:32:17 11.8 C 27 %
2399 17-12-2019 15:42:17 12.3 C 25 %
2400 17-12-2019 15:52:18 12.2 C 25 %
Sensor: Nr:Datum:Temp:Feuchte:
Aussen-T/F 2401 17-12-2019 16:02:17 12.4 C 25 %
2402 17-12-2019 16:12:17 12.4 C 25 %
2403 17-12-2019 16:22:17 12.5 C 25 %
2404 17-12-2019 16:32:18 12.6 C 25 %
2405 17-12-2019 16:42:18 12.2 C 25 %
2406 17-12-2019 16:52:17 11.8 C 25 %
2407 17-12-2019 17:02:17 11.2 C 26 %
2408 17-12-2019 17:12:18 11.5 C 25 %
2409 17-12-2019 17:22:17 12 C 24 %
2410 17-12-2019 17:32:18 13.1 C 20 %
2411 17-12-2019 17:42:18 13.4 C 20 %
2412 17-12-2019 17:52:17 13.8 C 20 %
2413 17-12-2019 18:02:17 13.4 C 20 %
2414 17-12-2019 18:12:17 13.2 C 20 %
2415 17-12-2019 18:22:17 13.6 C 20 %
2416 17-12-2019 18:32:17 13.7 C 20 %
2417 17-12-2019 18:42:17 13.1 C 21 %
2418 17-12-2019 18:52:17 12.7 C 25 %
2419 17-12-2019 19:02:17 12.8 C 25 %
2420 17-12-2019 19:12:17 13.1 C 22 %
2421 17-12-2019 19:22:17 12.8 C 25 %
2422 17-12-2019 19:32:18 11.7 C 29 %
2423 17-12-2019 19:42:18 11.6 C 29 %
2424 17-12-2019 19:52:17 11.6 C 30 %
2425 17-12-2019 20:02:18 11.6 C 30 %
Sensor: Nr:Datum:Temp:Feuchte:
Aussen-T/F 2426 17-12-2019 20:12:18 11.5 C 31 %
2427 17-12-2019 20:22:17 11.6 C 31 %
2428 17-12-2019 20:32:17 11.3 C 33 %
2429 17-12-2019 20:42:17 11.2 C 35 %
2430 17-12-2019 20:52:17 11 C 36 %
2431 17-12-2019 21:02:17 10.9 C 36 %
2432 17-12-2019 21:12:17 10.5 C 38 %
2433 17-12-2019 21:22:17 10.3 C 39 %
2434 17-12-2019 21:32:17 10.4 C 38 %
2435 17-12-2019 21:42:17 11.5 C 31 %
2436 17-12-2019 21:52:17 11.3 C 31 %
2437 17-12-2019 22:02:17 13 C 25 %
2438 17-12-2019 22:12:17 12.5 C 26 %
2439 17-12-2019 22:22:17 13.1 C 25 %
2440 17-12-2019 22:32:17 13.4 C 25 %
2441 17-12-2019 22:42:17 13.2 C 25 %
2442 17-12-2019 22:52:17 13.1 C 25 %
2443 17-12-2019 23:02:17 12.4 C 26 %
2444 17-12-2019 23:12:17 11.9 C 29 %
2445 17-12-2019 23:22:17 11.3 C 30 %
2446 17-12-2019 23:32:17 11.1 C 31 %
2447 17-12-2019 23:42:17 11 C 30 %
2448 17-12-2019 23:52:17 10.8 C 33 %
2449 18-12-2019 00:02:17 10.4 C 35 %
2450 18-12-2019 00:12:17 10.4 C 34 %
Sensor: Nr:Datum:Temp:Feuchte:
Aussen-T/F 2451 18-12-2019 00:22:17 10.5 C 34 %
2452 18-12-2019 00:32:18 10.9 C 31 %
2453 18-12-2019 00:42:18 11 C 30 %
2454 18-12-2019 00:52:17 11 C 30 %
2455 18-12-2019 01:02:17 10.8 C 30 %
2456 18-12-2019 01:12:17 11 C 29 %
2457 18-12-2019 01:22:17 11.1 C 29 %
2458 18-12-2019 01:32:18 10.9 C 30 %
2459 18-12-2019 01:42:18 10.4 C 30 %
2460 18-12-2019 01:52:17 10.8 C 30 %
2461 18-12-2019 02:02:17 11.1 C 30 %
2462 18-12-2019 02:12:17 11.1 C 29 %
2463 18-12-2019 02:22:17 11.2 C 30 %
2464 18-12-2019 02:32:17 11.3 C 29 %
2465 18-12-2019 02:42:18 10.9 C 30 %
2466 18-12-2019 02:52:17 10.9 C 31 %
2467 18-12-2019 03:02:17 10.6 C 33 %
2468 18-12-2019 03:12:17 10.3 C 35 %
2469 18-12-2019 03:22:18 10.3 C 37 %
2470 18-12-2019 03:32:17 10.1 C 37 %
2471 18-12-2019 03:42:17 10 C 38 %
2472 18-12-2019 03:52:18 10.1 C 38 %
2473 18-12-2019 04:02:18 10 C 38 %
2474 18-12-2019 04:12:18 9.9 C 38 %
2475 18-12-2019 04:22:17 9.8 C 35 %
Sensor: Nr:Datum:Temp:Feuchte:
Aussen-T/F 2476 18-12-2019 04:32:18 9.6 C 34 %
2477 18-12-2019 04:42:18 9.5 C 33 %
2478 18-12-2019 04:52:17 9.3 C 33 %
2479 18-12-2019 05:02:18 9.2 C 33 %
2480 18-12-2019 05:12:18 9.1 C 33 %
2481 18-12-2019 05:22:17 8.8 C 35 %
2482 18-12-2019 05:32:17 8.7 C 36 %
2483 18-12-2019 05:42:17 8.2 C 36 %
2484 18-12-2019 05:52:17 8.2 C 39 %
2485 18-12-2019 06:02:18 8.1 C 39 %
2486 18-12-2019 06:12:18 8 C 37 %
2487 18-12-2019 06:22:17 8 C 37 %
2488 18-12-2019 06:32:18 7.9 C 37 %
2489 18-12-2019 06:42:18 7.5 C 37 %
2490 18-12-2019 06:52:17 7.4 C 39 %
2491 18-12-2019 07:02:17 7.2 C 40 %
2492 18-12-2019 07:12:17 7.3 C 40 %
2493 18-12-2019 07:22:17 7.3 C 40 %
2494 18-12-2019 07:32:17 7.1 C 39 %
2495 18-12-2019 07:42:17 6.8 C 40 %
2496 18-12-2019 07:52:17 6.9 C 41 %
2497 18-12-2019 08:02:17 6.7 C 41 %
2498 18-12-2019 08:12:17 6.5 C 41 %
2499 18-12-2019 08:22:17 6.5 C 41 %
2500 18-12-2019 08:32:17 6.3 C 41 %
Sensor: Nr:Datum:Temp:Feuchte:
Aussen-T/F 2501 18-12-2019 08:42:17 6.4 C 42 %
2502 18-12-2019 08:52:17 6.6 C 42 %
2503 18-12-2019 09:02:17 6.5 C 41 %
2504 18-12-2019 09:12:17 6.1 C 40 %
2505 18-12-2019 09:22:17 6 C 41 %
2506 18-12-2019 09:32:17 6.5 C 42 %
2507 18-12-2019 09:42:17 6.7 C 42 %
2508 18-12-2019 09:52:17 6.9 C 41 %
2509 18-12-2019 10:02:17 7 C 40 %
2510 18-12-2019 10:12:18 7.1 C 40 %
2511 18-12-2019 10:22:17 7.5 C 38 %
2512 18-12-2019 10:32:17 7.5 C 36 %
2513 18-12-2019 10:42:17 7.4 C 36 %
2514 18-12-2019 10:52:17 6.9 C 38 %
2515 18-12-2019 11:02:17 6.8 C 38 %
2516 18-12-2019 11:12:17 6.8 C 38 %
2517 18-12-2019 11:22:17 6.6 C 38 %
2518 18-12-2019 11:32:18 6.7 C 39 %
2519 18-12-2019 11:42:18 6.9 C 38 %
2520 18-12-2019 11:52:17 7.6 C 35 %
2521 18-12-2019 12:02:17 8.1 C 33 %
2522 18-12-2019 12:12:17 8 C 32 %
2523 18-12-2019 12:22:17 8.3 C 31 %
2524 18-12-2019 12:32:17 8.6 C 30 %
2525 18-12-2019 12:42:17 8.8 C 29 %
Sensor: Nr:Datum:Temp:Feuchte:
Aussen-T/F 2526 18-12-2019 12:52:17 8.7 C 29 %
2527 18-12-2019 13:02:17 8.4 C 30 %
2528 18-12-2019 13:12:17 8.2 C 30 %
2529 18-12-2019 13:22:17 7.9 C 31 %
2530 18-12-2019 13:32:18 7.8 C 32 %
2531 18-12-2019 13:42:18 7.7 C 33 %
2532 18-12-2019 13:52:17 7.8 C 32 %
2533 18-12-2019 14:02:18 7.8 C 33 %
2534 18-12-2019 14:12:18 7.7 C 33 %
2535 18-12-2019 14:22:17 7.5 C 34 %
2536 18-12-2019 14:32:17 7.3 C 35 %
2537 18-12-2019 14:42:17 7.2 C 35 %
2538 18-12-2019 14:52:17 7.2 C 35 %
2539 18-12-2019 15:02:17 7.2 C 35 %
2540 18-12-2019 15:12:17 7 C 36 %
2541 18-12-2019 15:22:17 7 C 36 %
2542 18-12-2019 15:32:17 6.7 C 37 %
2543 18-12-2019 15:42:17 6.8 C 37 %
2544 18-12-2019 15:52:17 6.7 C 36 %
2545 18-12-2019 16:02:17 6.6 C 36 %
2546 18-12-2019 16:12:17 6.5 C 36 %
2547 18-12-2019 16:22:17 6.4 C 36 %
2548 18-12-2019 16:32:17 6 C 36 %
2549 18-12-2019 16:42:17 5.8 C 37 %
2550 18-12-2019 16:52:17 5.7 C 39 %
Sensor: Nr:Datum:Temp:Feuchte:
Aussen-T/F 2551 18-12-2019 17:02:17 5.3 C 38 %
2552 18-12-2019 17:12:17 4.9 C 40 %
2553 18-12-2019 17:22:17 5 C 42 %
2554 18-12-2019 17:32:17 4.4 C 41 %
2555 18-12-2019 17:42:17 4.2 C 42 %
2556 18-12-2019 17:52:18 4.1 C 42 %
2557 18-12-2019 18:02:17 4.1 C 43 %
2558 18-12-2019 18:12:17 4.1 C 43 %
2559 18-12-2019 18:22:17 4.4 C 43 %
2560 18-12-2019 18:32:17 4.5 C 43 %
2561 18-12-2019 18:42:17 4.3 C 42 %
2562 18-12-2019 18:52:17 4.6 C 43 %
2563 18-12-2019 19:02:17 5 C 42 %
2564 18-12-2019 19:12:17 4.7 C 42 %
2565 18-12-2019 19:22:17 4.3 C 42 %
2566 18-12-2019 19:32:18 4.9 C 43 %
2567 18-12-2019 19:42:18 4.7 C 42 %
2568 18-12-2019 19:52:17 4.6 C 42 %
2569 18-12-2019 20:02:17 5 C 42 %
2570 18-12-2019 20:12:17 5 C 41 %
2571 18-12-2019 20:22:17 4.5 C 41 %
2572 18-12-2019 20:32:17 4.5 C 41 %
2573 18-12-2019 20:42:18 4.1 C 41 %
2574 18-12-2019 20:52:17 3.9 C 42 %
2575 18-12-2019 21:02:17 3.7 C 43 %
Sensor: Nr:Datum:Temp:Feuchte:
Aussen-T/F 2576 18-12-2019 21:12:17 3.6 C 42 %
2577 18-12-2019 21:22:17 3.6 C 43 %
2578 18-12-2019 21:32:17 3.7 C 43 %
2579 18-12-2019 21:42:17 3.6 C 43 %
2580 18-12-2019 21:52:17 3.4 C 43 %
2581 18-12-2019 22:02:17 3.1 C 43 %
2582 18-12-2019 22:12:17 3.1 C 43 %
2583 18-12-2019 22:22:17 2.7 C 43 %
2584 18-12-2019 22:32:17 2.6 C 43 %
2585 18-12-2019 22:42:17 2.5 C 43 %
2586 18-12-2019 22:52:17 2.4 C 43 %
2587 18-12-2019 23:02:17 2.4 C 43 %
2588 18-12-2019 23:12:17 2.3 C 43 %
2589 18-12-2019 23:22:18 2.3 C 43 %
2590 18-12-2019 23:32:17 2 C 43 %
2591 18-12-2019 23:42:17 2 C 43 %
2592 18-12-2019 23:52:17 2 C 43 %
2593 19-12-2019 00:02:18 2.3 C 44 %
2594 19-12-2019 00:12:18 2 C 43 %
2595 19-12-2019 00:22:17 2 C 43 %
2596 19-12-2019 00:32:17 2.1 C 43 %
2597 19-12-2019 00:42:17 2.4 C 44 %
2598 19-12-2019 00:52:18 2.3 C 43 %
2599 19-12-2019 01:02:17 2.1 C 43 %
2600 19-12-2019 01:12:17 2 C 43 %
Sensor: Nr:Datum:Temp:Feuchte:
Aussen-T/F 2601 19-12-2019 01:22:17 2 C 43 %
2602 19-12-2019 01:32:18 1.6 C 44 %
2603 19-12-2019 01:42:18 1.9 C 44 %
2604 19-12-2019 01:52:17 2.3 C 43 %
2605 19-12-2019 02:02:17 2.2 C 43 %
2606 19-12-2019 02:12:17 2 C 43 %
2607 19-12-2019 02:22:17 2 C 43 %
2608 19-12-2019 02:32:18 2 C 43 %
2609 19-12-2019 02:42:18 1.8 C 44 %
2610 19-12-2019 02:52:17 2.1 C 43 %
2611 19-12-2019 03:02:18 1.5 C 44 %
2612 19-12-2019 03:12:18 1.6 C 44 %
2613 19-12-2019 03:22:17 1.6 C 44 %
2614 19-12-2019 03:32:17 1.8 C 44 %
2615 19-12-2019 03:42:17 1.7 C 44 %
2616 19-12-2019 03:52:17 1.7 C 44 %
2617 19-12-2019 04:02:17 1.6 C 44 %
2618 19-12-2019 04:12:17 1.5 C 44 %
2619 19-12-2019 04:22:18 1.5 C 44 %
2620 19-12-2019 04:32:17 1.5 C 44 %
2621 19-12-2019 04:42:17 1.4 C 44 %
2622 19-12-2019 04:52:18 1.6 C 44 %
2623 19-12-2019 05:02:17 1.4 C 44 %
2624 19-12-2019 05:12:17 1.5 C 44 %
2625 19-12-2019 05:22:17 1.4 C 44 %
Sensor: Nr:Datum:Temp:Feuchte:
Aussen-T/F 2626 19-12-2019 05:32:17 1.3 C 44 %
2627 19-12-2019 05:42:17 1.3 C 44 %
2628 19-12-2019 05:52:17 1.1 C 44 %
2629 19-12-2019 06:02:17 1.1 C 44 %
2630 19-12-2019 06:12:17 1.2 C 44 %
2631 19-12-2019 06:22:17 1 C 44 %
2632 19-12-2019 06:32:17 1.1 C 44 %
2633 19-12-2019 06:42:18 1 C 43 %
2634 19-12-2019 06:52:17 0.7 C 45 %
2635 19-12-2019 07:02:17 1 C 44 %
2636 19-12-2019 07:12:17 0.9 C 45 %
2637 19-12-2019 07:22:17 1.7 C 44 %
2638 19-12-2019 07:32:17 3.5 C 43 %
2639 19-12-2019 07:42:18 3.2 C 42 %
2640 19-12-2019 07:52:17 3.1 C 42 %
2641 19-12-2019 08:02:18 4.6 C 42 %
2642 19-12-2019 08:12:18 3.8 C 42 %
2643 19-12-2019 08:22:17 3.7 C 42 %
2644 19-12-2019 08:32:18 4.6 C 41 %
2645 19-12-2019 08:42:18 4 C 41 %
2646 19-12-2019 08:52:17 3.3 C 41 %
2647 19-12-2019 09:02:17 4 C 41 %
2648 19-12-2019 09:12:17 4.4 C 41 %
2649 19-12-2019 09:22:17 4.1 C 41 %
2650 19-12-2019 09:32:17 4.6 C 41 %
Sensor: Nr:Datum:Temp:Feuchte:
Aussen-T/F 2651 19-12-2019 09:42:17 4.4 C 41 %
2652 19-12-2019 09:52:17 4.5 C 41 %
2653 19-12-2019 10:02:17 4.7 C 41 %
2654 19-12-2019 10:12:17 4.9 C 41 %
2655 19-12-2019 10:22:17 5.2 C 41 %
2656 19-12-2019 10:32:17 7 C 40 %
2657 19-12-2019 10:42:17 7.2 C 40 %
2658 19-12-2019 10:52:18 6.7 C 40 %
2659 19-12-2019 11:02:17 6.4 C 39 %
2660 19-12-2019 11:12:17 6.3 C 39 %
2661 19-12-2019 11:22:17 6.3 C 40 %
2662 19-12-2019 11:32:17 6.4 C 40 %
2663 19-12-2019 11:42:17 6.6 C 40 %
2664 19-12-2019 11:52:18 6.7 C 40 %
2665 19-12-2019 12:02:17 6.6 C 40 %
2666 19-12-2019 12:12:17 6.7 C 40 %
2667 19-12-2019 12:22:17 6.7 C 40 %
2668 19-12-2019 12:32:17 7 C 39 %
2669 19-12-2019 12:42:17 7 C 39 %
2670 19-12-2019 12:52:17 7.1 C 39 %
2671 19-12-2019 13:02:17 7.3 C 39 %
2672 19-12-2019 13:12:17 7.1 C 38 %
2673 19-12-2019 13:22:17 7.2 C 39 %
2674 19-12-2019 13:32:17 7.2 C 39 %
2675 19-12-2019 13:42:17 7.3 C 38 %
Sensor: Nr:Datum:Temp:Feuchte:
Aussen-T/F 2676 19-12-2019 13:52:17 7.3 C 38 %
2677 19-12-2019 14:02:17 7.3 C 38 %
2678 19-12-2019 14:12:17 7.1 C 38 %
2679 19-12-2019 14:22:17 7.1 C 38 %
2680 19-12-2019 14:32:17 7.2 C 38 %
2681 19-12-2019 14:42:17 7.3 C 37 %
2682 19-12-2019 14:52:17 7.9 C 36 %
2683 19-12-2019 15:02:17 8.1 C 34 %
2684 19-12-2019 15:12:17 8.1 C 33 %
2685 19-12-2019 15:22:17 8.4 C 32 %
2686 19-12-2019 15:32:18 8.6 C 32 %
2687 19-12-2019 15:42:18 8.7 C 31 %
2688 19-12-2019 15:52:17 8.8 C 31 %
2689 19-12-2019 16:02:17 8.7 C 30 %
2690 19-12-2019 16:12:17 8.3 C 31 %
2691 19-12-2019 16:22:18 8.1 C 31 %
2692 19-12-2019 16:32:17 7.9 C 32 %
2693 19-12-2019 16:42:17 7.9 C 31 %
2694 19-12-2019 16:52:17 7.6 C 32 %
2695 19-12-2019 17:02:17 7.4 C 32 %
2696 19-12-2019 17:12:17 6 C 35 %
2697 19-12-2019 17:22:17 5.7 C 37 %
2698 19-12-2019 17:32:17 5.5 C 39 %
2699 19-12-2019 17:42:17 5 C 39 %
2700 19-12-2019 17:52:17 4.9 C 41 %
Sensor: Nr:Datum:Temp:Feuchte:
Aussen-T/F 2701 19-12-2019 18:02:17 5.2 C 42 %
2702 19-12-2019 18:12:18 4.9 C 42 %
2703 19-12-2019 18:22:17 5.2 C 42 %
2704 19-12-2019 18:32:17 5 C 41 %
2705 19-12-2019 18:42:17 5 C 41 %
2706 19-12-2019 18:52:18 5.8 C 42 %
2707 19-12-2019 19:02:17 5.7 C 41 %
2708 19-12-2019 19:12:17 5.2 C 39 %
2709 19-12-2019 19:22:18 4.7 C 40 %
2710 19-12-2019 19:32:17 4.9 C 42 %
2711 19-12-2019 19:42:17 4.7 C 42 %
2712 19-12-2019 19:52:17 4.8 C 42 %
2713 19-12-2019 20:02:17 5 C 42 %
2714 19-12-2019 20:12:17 5 C 41 %
2715 19-12-2019 20:22:17 4.8 C 42 %
2716 19-12-2019 20:32:17 5.1 C 42 %
2717 19-12-2019 20:42:17 6 C 41 %
2718 19-12-2019 20:52:17 6 C 38 %
2719 19-12-2019 21:02:17 5.8 C 38 %
2720 19-12-2019 21:12:18 5.8 C 39 %
2721 19-12-2019 21:22:17 5.7 C 39 %
2722 19-12-2019 21:32:17 5.8 C 40 %
2723 19-12-2019 21:42:17 6 C 40 %
2724 19-12-2019 21:52:17 5.7 C 40 %
2725 19-12-2019 22:02:17 5.6 C 40 %
Sensor: Nr:Datum:Temp:Feuchte:
Aussen-T/F 2726 19-12-2019 22:12:17 5.8 C 41 %
2727 19-12-2019 22:22:18 6.2 C 41 %
2728 19-12-2019 22:32:18 5.9 C 40 %
2729 19-12-2019 22:42:18 5.1 C 38 %
2730 19-12-2019 22:52:17 5 C 41 %
2731 19-12-2019 23:02:17 5.4 C 43 %
2732 19-12-2019 23:12:17 5.5 C 42 %
2733 19-12-2019 23:22:17 5.5 C 42 %
2734 19-12-2019 23:32:17 5.4 C 42 %
2735 19-12-2019 23:42:17 5.4 C 42 %
2736 19-12-2019 23:52:17 5.1 C 41 %
2737 20-12-2019 00:02:17 4.8 C 42 %
2738 20-12-2019 00:12:17 4.3 C 41 %
2739 20-12-2019 00:22:17 4 C 41 %
2740 20-12-2019 00:32:17 3.9 C 43 %
2741 20-12-2019 00:42:17 3.7 C 42 %
2742 20-12-2019 00:52:17 3.4 C 43 %
2743 20-12-2019 01:02:17 3.1 C 42 %
2744 20-12-2019 01:12:17 3 C 43 %
2745 20-12-2019 01:22:17 3.3 C 44 %
2746 20-12-2019 01:32:17 3.1 C 43 %
2747 20-12-2019 01:42:17 3.1 C 43 %
2748 20-12-2019 01:52:17 2.8 C 44 %
2749 20-12-2019 02:02:17 2.8 C 44 %
2750 20-12-2019 02:12:17 2.6 C 44 %
Sensor: Nr:Datum:Temp:Feuchte:
Aussen-T/F 2751 20-12-2019 02:22:17 2.5 C 44 %
2752 20-12-2019 02:32:18 3.2 C 44 %
2753 20-12-2019 02:42:18 3.4 C 44 %
2754 20-12-2019 02:52:17 3.8 C 44 %
2755 20-12-2019 03:02:17 4.7 C 42 %
2756 20-12-2019 03:12:17 4.2 C 41 %
2757 20-12-2019 03:22:17 4.6 C 41 %
2758 20-12-2019 03:32:17 4.4 C 40 %
2759 20-12-2019 03:42:17 4.4 C 40 %
2760 20-12-2019 03:52:17 4.6 C 41 %
2761 20-12-2019 04:02:17 4.4 C 40 %
2762 20-12-2019 04:12:17 4.2 C 40 %
2763 20-12-2019 04:22:17 4 C 41 %
2764 20-12-2019 04:32:18 4.8 C 42 %
2765 20-12-2019 04:42:18 4.5 C 41 %
2766 20-12-2019 04:52:17 4.7 C 40 %
2767 20-12-2019 05:02:17 4.7 C 40 %
2768 20-12-2019 05:12:17 5.3 C 38 %
2769 20-12-2019 05:22:17 5.2 C 36 %
2770 20-12-2019 05:32:17 5.3 C 36 %
2771 20-12-2019 05:42:17 5.4 C 35 %
2772 20-12-2019 05:52:18 5.5 C 35 %
2773 20-12-2019 06:02:18 5.2 C 35 %
2774 20-12-2019 06:12:18 5.3 C 35 %
2775 20-12-2019 06:22:17 5.6 C 35 %
Sensor: Nr:Datum:Temp:Feuchte:
Aussen-T/F 2776 20-12-2019 06:32:17 6 C 32 %
2777 20-12-2019 06:42:17 6 C 31 %
2778 20-12-2019 06:52:17 5.7 C 32 %
2779 20-12-2019 07:02:17 5.8 C 31 %
2780 20-12-2019 07:12:17 5.9 C 31 %
2781 20-12-2019 07:22:17 6.1 C 31 %
2782 20-12-2019 07:32:17 5.9 C 33 %
2783 20-12-2019 07:42:17 6.4 C 31 %
2784 20-12-2019 07:52:17 6.8 C 30 %
2785 20-12-2019 08:02:17 7.1 C 27 %
2786 20-12-2019 08:12:17 6.4 C 31 %
2787 20-12-2019 08:22:17 6.4 C 32 %
2788 20-12-2019 08:32:18 6.5 C 32 %
2789 20-12-2019 08:42:18 6.3 C 32 %
2790 20-12-2019 08:52:17 6.3 C 33 %
2791 20-12-2019 09:02:17 6.5 C 33 %
2792 20-12-2019 09:12:17 6.7 C 31 %
2793 20-12-2019 09:22:17 6.5 C 33 %
2794 20-12-2019 09:32:17 6.4 C 35 %
2795 20-12-2019 09:42:17 6.5 C 35 %
2796 20-12-2019 09:52:17 6.5 C 34 %
2797 20-12-2019 10:02:17 6.2 C 31 %
2798 20-12-2019 10:12:17 6 C 33 %
2799 20-12-2019 10:22:17 5.7 C 35 %
2800 20-12-2019 10:32:17 5.8 C 40 %
Sensor: Nr:Datum:Temp:Feuchte:
Aussen-T/F 2801 20-12-2019 10:42:17 5.9 C 42 %
2802 20-12-2019 10:52:17 6 C 42 %
2803 20-12-2019 11:02:17 6.1 C 42 %
2804 20-12-2019 11:12:17 6 C 42 %
2805 20-12-2019 11:22:17 6.3 C 42 %
2806 20-12-2019 11:32:17 6.5 C 42 %
2807 20-12-2019 11:42:17 6.7 C 41 %
2808 20-12-2019 11:52:17 6.8 C 40 %
2809 20-12-2019 12:02:18 7 C 39 %
2810 20-12-2019 12:12:18 7.3 C 39 %
2811 20-12-2019 12:22:18 7.5 C 39 %
2812 20-12-2019 12:32:17 7.7 C 39 %
2813 20-12-2019 12:42:18 8 C 39 %
2814 20-12-2019 12:52:17 8.1 C 38 %
2815 20-12-2019 13:02:18 8.1 C 39 %
2816 20-12-2019 13:12:18 8.2 C 39 %
2817 20-12-2019 13:22:17 8.3 C 37 %
2818 20-12-2019 13:32:17 8.4 C 36 %
2819 20-12-2019 13:42:17 8.6 C 37 %
2820 20-12-2019 13:52:17 8.5 C 36 %
2821 20-12-2019 14:02:17 8.6 C 36 %
2822 20-12-2019 14:12:17 8.6 C 35 %
2823 20-12-2019 14:22:17 8.7 C 36 %
2824 20-12-2019 14:32:17 8.7 C 36 %
2825 20-12-2019 14:42:17 8.5 C 35 %
Sensor: Nr:Datum:Temp:Feuchte:
Aussen-T/F 2826 20-12-2019 14:52:18 8.3 C 36 %
2827 20-12-2019 15:02:17 8.2 C 37 %
2828 20-12-2019 15:12:17 8.3 C 38 %
2829 20-12-2019 15:22:17 8.3 C 39 %
2830 20-12-2019 15:32:17 8.2 C 40 %
2831 20-12-2019 15:42:17 8.3 C 41 %
2832 20-12-2019 15:52:17 8.2 C 40 %
2833 20-12-2019 16:02:17 8.2 C 40 %
2834 20-12-2019 16:12:18 8.3 C 40 %
2835 20-12-2019 16:22:17 8.3 C 41 %
2836 20-12-2019 16:32:17 8.4 C 41 %
2837 20-12-2019 16:42:17 8.4 C 41 %
2838 20-12-2019 16:52:18 8.6 C 41 %
2839 20-12-2019 17:02:17 9 C 41 %
2840 20-12-2019 17:12:18 9 C 40 %
2841 20-12-2019 17:22:17 9.1 C 36 %
2842 20-12-2019 17:32:17 8.7 C 38 %
2843 20-12-2019 17:42:17 8.8 C 37 %
2844 20-12-2019 17:52:18 8.7 C 38 %
2845 20-12-2019 18:02:17 8.9 C 37 %
2846 20-12-2019 18:12:17 8.9 C 36 %
2847 20-12-2019 18:22:17 8.9 C 37 %
2848 20-12-2019 18:32:17 8.9 C 37 %
2849 20-12-2019 18:42:17 9.7 C 33 %
2850 20-12-2019 18:52:18 9.5 C 31 %
Sensor: Nr:Datum:Temp:Feuchte:
Aussen-T/F 2851 20-12-2019 19:02:17 9.8 C 30 %
2852 20-12-2019 19:12:17 10.1 C 28 %
2853 20-12-2019 19:22:17 9.9 C 29 %
2854 20-12-2019 19:32:17 9.8 C 29 %
2855 20-12-2019 19:42:17 10 C 27 %
2856 20-12-2019 19:52:18 9.7 C 29 %
2857 20-12-2019 20:02:18 9.6 C 28 %
2858 20-12-2019 20:12:18 9.5 C 28 %
2859 20-12-2019 20:22:17 9.5 C 27 %
2860 20-12-2019 20:32:18 9 C 28 %
2861 20-12-2019 20:42:18 9 C 27 %
2862 20-12-2019 20:52:17 8.9 C 28 %
2863 20-12-2019 21:02:18 8.5 C 28 %
2864 20-12-2019 21:12:18 8.6 C 28 %
2865 20-12-2019 21:22:17 8.9 C 27 %
2866 20-12-2019 21:32:17 8.7 C 27 %
2867 20-12-2019 21:42:17 8.3 C 28 %
2868 20-12-2019 21:52:17 8.3 C 28 %
2869 20-12-2019 22:02:17 8.3 C 28 %
2870 20-12-2019 22:12:17 8.1 C 28 %
2871 20-12-2019 22:22:17 8.7 C 27 %
2872 20-12-2019 22:32:17 8.9 C 26 %
2873 20-12-2019 22:42:17 8.7 C 27 %
2874 20-12-2019 22:52:17 8.7 C 27 %
2875 20-12-2019 23:02:17 8.5 C 27 %
Sensor: Nr:Datum:Temp:Feuchte:
Aussen-T/F 2876 20-12-2019 23:12:17 8.4 C 27 %
2877 20-12-2019 23:22:17 8.2 C 28 %
2878 20-12-2019 23:32:17 8 C 28 %
2879 20-12-2019 23:42:17 8.3 C 27 %
2880 20-12-2019 23:52:18 8.1 C 27 %
2881 21-12-2019 00:02:17 7.9 C 28 %
2882 21-12-2019 00:12:17 7.7 C 28 %
2883 21-12-2019 00:22:17 7.5 C 30 %
2884 21-12-2019 00:32:17 7.5 C 30 %
2885 21-12-2019 00:42:17 7.2 C 30 %
2886 21-12-2019 00:52:18 7 C 30 %
2887 21-12-2019 01:02:17 6.9 C 32 %
2888 21-12-2019 01:12:17 7.3 C 31 %
2889 21-12-2019 01:22:17 7.4 C 31 %
2890 21-12-2019 01:32:17 7.3 C 32 %
2891 21-12-2019 01:42:17 7.5 C 31 %
2892 21-12-2019 01:52:17 7.5 C 32 %
2893 21-12-2019 02:02:17 7.9 C 30 %
2894 21-12-2019 02:12:17 8 C 29 %
2895 21-12-2019 02:22:17 8.2 C 28 %
2896 21-12-2019 02:32:18 7.8 C 30 %
2897 21-12-2019 02:42:18 7.8 C 30 %
2898 21-12-2019 02:52:17 7.8 C 30 %
2899 21-12-2019 03:02:17 7.5 C 30 %
2900 21-12-2019 03:12:17 7.5 C 31 %
Sensor: Nr:Datum:Temp:Feuchte:
Aussen-T/F 2901 21-12-2019 03:22:17 7.4 C 31 %
2902 21-12-2019 03:32:18 7.3 C 31 %
2903 21-12-2019 03:42:18 7.1 C 31 %
2904 21-12-2019 03:52:17 7.1 C 32 %
2905 21-12-2019 04:02:17 6.9 C 33 %
2906 21-12-2019 04:12:17 6.7 C 36 %
2907 21-12-2019 04:22:17 6.4 C 37 %
2908 21-12-2019 04:32:18 6 C 38 %
2909 21-12-2019 04:42:18 5.9 C 38 %
2910 21-12-2019 04:52:17 5.7 C 40 %
2911 21-12-2019 05:02:17 6 C 40 %
2912 21-12-2019 05:12:17 5.6 C 39 %
2913 21-12-2019 05:22:17 5.4 C 38 %
2914 21-12-2019 05:32:18 5.4 C 38 %
2915 21-12-2019 05:42:18 5.1 C 38 %
2916 21-12-2019 05:52:17 5.3 C 40 %
2917 21-12-2019 06:02:17 4.9 C 41 %
2918 21-12-2019 06:12:17 4.8 C 41 %
2919 21-12-2019 06:22:18 4.3 C 40 %
2920 21-12-2019 06:32:17 4.3 C 42 %
2921 21-12-2019 06:42:17 5 C 40 %
2922 21-12-2019 06:52:18 3.8 C 41 %
2923 21-12-2019 07:02:17 3.8 C 43 %
2924 21-12-2019 07:12:18 3.5 C 42 %
2925 21-12-2019 07:22:17 3.4 C 43 %
Sensor: Nr:Datum:Temp:Feuchte:
Aussen-T/F 2926 21-12-2019 07:32:17 3.3 C 43 %
2927 21-12-2019 07:42:17 3 C 42 %
2928 21-12-2019 07:52:17 3 C 43 %
2929 21-12-2019 08:02:17 3.1 C 44 %
2930 21-12-2019 08:12:17 3.6 C 44 %
2931 21-12-2019 08:22:17 3.7 C 44 %
2932 21-12-2019 08:32:17 3.9 C 43 %
2933 21-12-2019 08:42:17 4.6 C 43 %
2934 21-12-2019 08:52:17 4.9 C 42 %
2935 21-12-2019 09:02:17 5 C 39 %
2936 21-12-2019 09:12:17 4.5 C 38 %
2937 21-12-2019 09:22:17 4.4 C 38 %
2938 21-12-2019 09:32:17 4.4 C 39 %
2939 21-12-2019 09:42:17 4.6 C 40 %
2940 21-12-2019 09:52:17 4.6 C 38 %
2941 21-12-2019 10:02:17 4.8 C 38 %
2942 21-12-2019 10:12:17 4.8 C 37 %
2943 21-12-2019 10:22:17 5.1 C 37 %
2944 21-12-2019 10:32:17 5.2 C 36 %
2945 21-12-2019 10:42:17 5.1 C 37 %
2946 21-12-2019 10:52:17 5.2 C 37 %
2947 21-12-2019 11:02:17 5.3 C 37 %
2948 21-12-2019 11:12:17 5.3 C 37 %
2949 21-12-2019 11:22:17 5.4 C 37 %
2950 21-12-2019 11:32:17 5.8 C 37 %
Sensor: Nr:Datum:Temp:Feuchte:
Aussen-T/F 2951 21-12-2019 11:42:17 5.9 C 37 %
2952 21-12-2019 11:52:17 5.8 C 37 %
2953 21-12-2019 12:02:17 5.8 C 36 %
2954 21-12-2019 12:12:17 6.2 C 36 %
2955 21-12-2019 12:22:17 6.2 C 35 %
2956 21-12-2019 12:32:17 7 C 32 %
2957 21-12-2019 12:42:17 6.8 C 33 %
2958 21-12-2019 12:52:17 8 C 30 %
2959 21-12-2019 13:02:17 7.8 C 30 %
2960 21-12-2019 13:12:17 7.1 C 30 %
2961 21-12-2019 13:22:17 6.9 C 31 %
2962 21-12-2019 13:32:17 7.2 C 30 %
2963 21-12-2019 13:42:17 8 C 28 %
2964 21-12-2019 13:52:18 7.7 C 28 %
2965 21-12-2019 14:02:17 8.3 C 27 %
2966 21-12-2019 14:12:17 8.8 C 26 %
2967 21-12-2019 14:22:17 8.2 C 27 %
2968 21-12-2019 14:32:18 8.2 C 27 %
2969 21-12-2019 14:42:18 8.5 C 27 %
2970 21-12-2019 14:52:17 8.8 C 26 %
2971 21-12-2019 15:02:18 9 C 25 %
2972 21-12-2019 15:12:18 8.7 C 26 %
2973 21-12-2019 15:22:18 8.8 C 25 %
2974 21-12-2019 15:32:17 8.7 C 25 %
2975 21-12-2019 15:42:17 8 C 26 %
Sensor: Nr:Datum:Temp:Feuchte:
Aussen-T/F 2976 21-12-2019 15:52:17 7.5 C 28 %
2977 21-12-2019 16:02:17 7.7 C 27 %
2978 21-12-2019 16:12:17 7.6 C 29 %
2979 21-12-2019 16:22:17 7.4 C 30 %
2980 21-12-2019 16:32:17 7.4 C 30 %
2981 21-12-2019 16:42:17 7.7 C 28 %
2982 21-12-2019 16:52:17 7.9 C 27 %
2983 21-12-2019 17:02:17 7.6 C 29 %
2984 21-12-2019 17:12:17 7.3 C 30 %
2985 21-12-2019 17:22:17 7.2 C 30 %
2986 21-12-2019 17:32:17 7.3 C 30 %
2987 21-12-2019 17:42:17 7.3 C 29 %
2988 21-12-2019 17:52:17 7.2 C 29 %
2989 21-12-2019 18:02:17 7.6 C 27 %
2990 21-12-2019 18:12:17 7.6 C 27 %
2991 21-12-2019 18:22:17 7.6 C 26 %
2992 21-12-2019 18:32:18 7.9 C 25 %
2993 21-12-2019 18:42:18 7.7 C 26 %
2994 21-12-2019 18:52:17 7.5 C 26 %
2995 21-12-2019 19:02:17 7.3 C 27 %
2996 21-12-2019 19:12:17 7 C 27 %
2997 21-12-2019 19:22:17 7 C 27 %
2998 21-12-2019 19:32:17 6.9 C 30 %
2999 21-12-2019 19:42:17 6.8 C 30 %
3000 21-12-2019 19:52:17 7 C 27 %
Sensor: Nr:Datum:Temp:Feuchte:
Aussen-T/F 3001 21-12-2019 20:02:17 7.1 C 26 %
3002 21-12-2019 20:12:17 7.1 C 26 %
3003 21-12-2019 20:22:17 7.1 C 26 %
3004 21-12-2019 20:32:17 6.9 C 28 %
3005 21-12-2019 20:42:17 7 C 27 %
3006 21-12-2019 20:52:17 6.8 C 27 %
3007 21-12-2019 21:02:18 6.4 C 29 %
3008 21-12-2019 21:12:18 6.1 C 30 %
3009 21-12-2019 21:22:17 6.1 C 31 %
3010 21-12-2019 21:32:17 6.3 C 31 %
3011 21-12-2019 21:42:17 5.9 C 31 %
3012 21-12-2019 21:52:18 5.1 C 34 %
3013 21-12-2019 22:02:18 4.9 C 36 %
3014 21-12-2019 22:12:18 5.2 C 34 %
3015 21-12-2019 22:22:17 5.7 C 30 %
3016 21-12-2019 22:32:17 6.1 C 27 %
3017 21-12-2019 22:42:17 6.1 C 27 %
3018 21-12-2019 22:52:17 6 C 27 %
3019 21-12-2019 23:02:17 5.8 C 27 %
3020 21-12-2019 23:12:17 5.8 C 27 %
3021 21-12-2019 23:22:17 6.3 C 26 %
3022 21-12-2019 23:32:18 6.5 C 25 %
3023 21-12-2019 23:42:18 6.7 C 25 %
3024 21-12-2019 23:52:17 6.3 C 26 %
3025 22-12-2019 00:02:17 6.8 C 26 %
Sensor: Nr:Datum:Temp:Feuchte:
Aussen-T/F 3026 22-12-2019 00:12:17 6.9 C 26 %
3027 22-12-2019 00:22:17 6.8 C 26 %
3028 22-12-2019 00:32:17 6.8 C 26 %
3029 22-12-2019 00:42:17 6.7 C 27 %
3030 22-12-2019 00:52:17 6.3 C 30 %
3031 22-12-2019 01:02:17 6.2 C 30 %
3032 22-12-2019 01:12:18 5.8 C 35 %
3033 22-12-2019 01:22:17 5.8 C 36 %
3034 22-12-2019 01:32:17 5.8 C 39 %
3035 22-12-2019 01:42:17 5.7 C 40 %
3036 22-12-2019 01:52:17 5.7 C 40 %
3037 22-12-2019 02:02:17 5.7 C 38 %
3038 22-12-2019 02:12:18 5.7 C 38 %
3039 22-12-2019 02:22:17 5.8 C 38 %
3040 22-12-2019 02:32:17 5.9 C 37 %
3041 22-12-2019 02:42:17 5.9 C 36 %
3042 22-12-2019 02:52:18 6 C 35 %
3043 22-12-2019 03:02:17 6.1 C 35 %
3044 22-12-2019 03:12:17 6.2 C 34 %
3045 22-12-2019 03:22:17 6.2 C 35 %
3046 22-12-2019 03:32:17 6.2 C 34 %
3047 22-12-2019 03:42:17 6.1 C 35 %
3048 22-12-2019 03:52:17 6.2 C 35 %
3049 22-12-2019 04:02:18 6.2 C 35 %
3050 22-12-2019 04:12:18 6 C 35 %
Sensor: Nr:Datum:Temp:Feuchte:
Aussen-T/F 3051 22-12-2019 04:22:17 6.2 C 34 %
3052 22-12-2019 04:32:17 6.2 C 34 %
3053 22-12-2019 04:42:17 6.3 C 33 %
3054 22-12-2019 04:52:17 6.3 C 33 %
3055 22-12-2019 05:02:17 6.2 C 34 %
3056 22-12-2019 05:12:17 5.8 C 34 %
3057 22-12-2019 05:22:17 5.4 C 36 %
3058 22-12-2019 05:32:17 5.7 C 40 %
3059 22-12-2019 05:42:17 6.1 C 38 %
3060 22-12-2019 05:52:17 5.5 C 35 %
3061 22-12-2019 06:02:17 5.1 C 39 %
3062 22-12-2019 06:12:17 5.3 C 41 %
3063 22-12-2019 06:22:17 4.9 C 41 %
3064 22-12-2019 06:32:17 5.4 C 42 %
3065 22-12-2019 06:42:17 5.9 C 41 %
3066 22-12-2019 06:52:17 6.2 C 39 %
3067 22-12-2019 07:02:17 6.2 C 38 %
3068 22-12-2019 07:12:17 6 C 38 %
3069 22-12-2019 07:22:17 5.7 C 38 %
3070 22-12-2019 07:32:17 5.4 C 39 %
3071 22-12-2019 07:42:17 6 C 42 %
3072 22-12-2019 07:52:17 6.1 C 41 %
3073 22-12-2019 08:02:18 6.3 C 41 %
3074 22-12-2019 08:12:18 6.2 C 40 %
3075 22-12-2019 08:22:17 5.9 C 40 %
Sensor: Nr:Datum:Temp:Feuchte:
Aussen-T/F 3076 22-12-2019 08:32:17 5.8 C 41 %
3077 22-12-2019 08:42:17 6.3 C 41 %
3078 22-12-2019 08:52:18 6.2 C 39 %
3079 22-12-2019 09:02:17 6 C 39 %
3080 22-12-2019 09:12:17 6.2 C 40 %
3081 22-12-2019 09:22:17 6.4 C 39 %
3082 22-12-2019 09:32:17 6.3 C 39 %
3083 22-12-2019 09:42:17 6.8 C 39 %
3084 22-12-2019 09:52:17 7 C 37 %
3085 22-12-2019 10:02:17 7.1 C 37 %
3086 22-12-2019 10:12:17 7.9 C 33 %
3087 22-12-2019 10:22:17 8.1 C 33 %
3088 22-12-2019 10:32:17 8.8 C 30 %
3089 22-12-2019 10:42:17 9 C 29 %
3090 22-12-2019 10:52:17 9.3 C 28 %
3091 22-12-2019 11:02:17 9.5 C 28 %
3092 22-12-2019 11:12:17 10 C 26 %
3093 22-12-2019 11:22:17 10 C 26 %
3094 22-12-2019 11:32:18 10.4 C 26 %
3095 22-12-2019 11:42:18 10.2 C 26 %
3096 22-12-2019 11:52:17 10.4 C 26 %
3097 22-12-2019 12:02:17 10.5 C 25 %
3098 22-12-2019 12:12:17 10.5 C 26 %
3099 22-12-2019 12:22:17 10.5 C 25 %
3100 22-12-2019 12:32:17 10.7 C 26 %
Sensor: Nr:Datum:Temp:Feuchte:
Aussen-T/F 3101 22-12-2019 12:42:17 10.8 C 26 %
3102 22-12-2019 12:52:17 11.2 C 25 %
3103 22-12-2019 13:02:17 11.1 C 25 %
3104 22-12-2019 13:12:17 10.8 C 25 %
3105 22-12-2019 13:22:17 10.7 C 25 %
3106 22-12-2019 13:32:17 10.7 C 25 %
3107 22-12-2019 13:42:17 10.7 C 25 %
3108 22-12-2019 13:52:17 10.8 C 25 %
3109 22-12-2019 14:02:17 11.1 C 23 %
3110 22-12-2019 14:12:17 11 C 23 %
3111 22-12-2019 14:22:17 10.8 C 23 %
3112 22-12-2019 14:32:17 10.9 C 23 %
3113 22-12-2019 14:42:17 10.8 C 23 %
3114 22-12-2019 14:52:17 10.7 C 25 %
3115 22-12-2019 15:02:17 10.6 C 25 %
3116 22-12-2019 15:12:17 10.3 C 25 %
3117 22-12-2019 15:22:17 10.1 C 25 %
3118 22-12-2019 15:32:17 9.9 C 26 %
3119 22-12-2019 15:42:17 9.7 C 26 %
3120 22-12-2019 15:52:18 9.6 C 25 %
3121 22-12-2019 16:02:18 9.6 C 25 %
3122 22-12-2019 16:12:18 9.3 C 25 %
3123 22-12-2019 16:22:17 8.9 C 26 %
3124 22-12-2019 16:32:17 8.3 C 26 %
3125 22-12-2019 16:42:17 8.4 C 27 %
Sensor: Nr:Datum:Temp:Feuchte:
Aussen-T/F 3126 22-12-2019 16:52:17 7.9 C 28 %
3127 22-12-2019 17:02:18 7.5 C 30 %
3128 22-12-2019 17:12:18 7.5 C 30 %
3129 22-12-2019 17:22:17 7.4 C 30 %
3130 22-12-2019 17:32:17 7.5 C 29 %
3131 22-12-2019 17:42:17 7.5 C 28 %
3132 22-12-2019 17:52:17 7.2 C 28 %
3133 22-12-2019 18:02:17 7.2 C 30 %
3134 22-12-2019 18:12:17 7.1 C 30 %
3135 22-12-2019 18:22:17 7.3 C 30 %
3136 22-12-2019 18:32:17 7.4 C 29 %
3137 22-12-2019 18:42:17 7.5 C 29 %
3138 22-12-2019 18:52:17 7.2 C 29 %
3139 22-12-2019 19:02:17 7.1 C 30 %
3140 22-12-2019 19:12:17 7 C 31 %
3141 22-12-2019 19:22:17 7 C 32 %
3142 22-12-2019 19:32:17 7.1 C 31 %
3143 22-12-2019 19:42:17 7.5 C 30 %
3144 22-12-2019 19:52:17 8 C 27 %
3145 22-12-2019 20:02:17 7.9 C 27 %
3146 22-12-2019 20:12:17 8.1 C 26 %
3147 22-12-2019 20:22:17 8.3 C 25 %
3148 22-12-2019 20:32:17 8.2 C 25 %
3149 22-12-2019 20:42:17 8 C 25 %
3150 22-12-2019 20:52:17 8 C 25 %
Sensor: Nr:Datum:Temp:Feuchte:
Aussen-T/F 3151 22-12-2019 21:02:17 8.1 C 25 %
3152 22-12-2019 21:12:17 8.1 C 25 %
3153 22-12-2019 21:22:17 7.8 C 25 %
3154 22-12-2019 21:32:17 8.1 C 25 %
3155 22-12-2019 21:42:17 7.8 C 26 %
3156 22-12-2019 21:52:17 7.7 C 26 %
3157 22-12-2019 22:02:17 7.9 C 26 %
3158 22-12-2019 22:12:17 7.6 C 26 %
3159 22-12-2019 22:22:17 7.5 C 26 %
3160 22-12-2019 22:32:17 7.1 C 27 %
3161 22-12-2019 22:42:17 6.9 C 28 %
3162 22-12-2019 22:52:17 6.7 C 29 %
3163 22-12-2019 23:02:17 6.2 C 31 %
3164 22-12-2019 23:12:17 6.4 C 31 %
3165 22-12-2019 23:22:17 6.6 C 31 %
3166 22-12-2019 23:32:17 6.6 C 31 %
3167 22-12-2019 23:42:17 6.7 C 31 %
3168 22-12-2019 23:52:17 6.7 C 31 %
3169 23-12-2019 00:02:17 6.6 C 32 %
3170 23-12-2019 00:12:17 6.5 C 31 %
3171 23-12-2019 00:22:17 6.4 C 32 %
3172 23-12-2019 00:32:17 6.6 C 31 %
3173 23-12-2019 00:42:17 7 C 30 %
3174 23-12-2019 00:52:17 6.9 C 30 %
3175 23-12-2019 01:02:17 6.8 C 30 %
Sensor: Nr:Datum:Temp:Feuchte:
Aussen-T/F 3176 23-12-2019 01:12:17 7.1 C 28 %
3177 23-12-2019 01:22:17 7 C 28 %
3178 23-12-2019 01:32:17 7.1 C 28 %
3179 23-12-2019 01:42:17 7.4 C 27 %
3180 23-12-2019 01:52:17 7.4 C 27 %
3181 23-12-2019 02:02:17 6.8 C 29 %
3182 23-12-2019 02:12:17 6.5 C 30 %
3183 23-12-2019 02:22:17 6.8 C 29 %
3184 23-12-2019 02:32:17 6.9 C 29 %
3185 23-12-2019 02:42:17 7.3 C 28 %
3186 23-12-2019 02:52:17 6.9 C 30 %
3187 23-12-2019 03:02:17 6.8 C 31 %
3188 23-12-2019 03:12:17 6.4 C 31 %
3189 23-12-2019 03:22:17 6.5 C 30 %
3190 23-12-2019 03:32:17 7 C 28 %
3191 23-12-2019 03:42:17 6.6 C 29 %
3192 23-12-2019 03:52:17 7 C 28 %
3193 23-12-2019 04:02:17 6.9 C 30 %
3194 23-12-2019 04:12:17 7.1 C 28 %
3195 23-12-2019 04:22:17 6.8 C 30 %
3196 23-12-2019 04:32:17 6.9 C 31 %
3197 23-12-2019 04:42:17 6.5 C 31 %
3198 23-12-2019 04:52:17 6.1 C 31 %
3199 23-12-2019 05:02:17 6.4 C 32 %
3200 23-12-2019 05:12:17 7 C 30 %
Sensor: Nr:Datum:Temp:Feuchte:
Aussen-T/F 3201 23-12-2019 05:22:17 7.1 C 30 %
3202 23-12-2019 05:32:17 7 C 30 %
3203 23-12-2019 05:42:17 6.8 C 31 %
3204 23-12-2019 05:52:17 6.3 C 32 %
3205 23-12-2019 06:02:18 6.3 C 34 %
3206 23-12-2019 06:12:18 6.6 C 33 %
3207 23-12-2019 06:22:17 6.9 C 31 %
3208 23-12-2019 06:32:18 7.1 C 30 %
3209 23-12-2019 06:42:18 6.9 C 31 %
3210 23-12-2019 06:52:17 6.9 C 31 %
3211 23-12-2019 07:02:17 6.8 C 32 %
3212 23-12-2019 07:12:17 6.8 C 34 %
3213 23-12-2019 07:22:17 6.8 C 32 %
3214 23-12-2019 07:32:17 7.1 C 30 %
3215 23-12-2019 07:42:17 7.4 C 29 %
3216 23-12-2019 07:52:17 7.1 C 30 %
3217 23-12-2019 08:02:17 7.3 C 30 %
3218 23-12-2019 08:12:17 7.4 C 28 %
3219 23-12-2019 08:22:17 7.5 C 28 %
3220 23-12-2019 08:32:18 7.5 C 28 %
3221 23-12-2019 08:42:18 7.6 C 28 %
3222 23-12-2019 08:52:17 7.6 C 27 %
3223 23-12-2019 09:02:17 7.6 C 27 %
3224 23-12-2019 09:12:18 7.7 C 27 %
3225 23-12-2019 09:22:17 7.8 C 27 %
Sensor: Nr:Datum:Temp:Feuchte:
Aussen-T/F 3226 23-12-2019 09:32:18 7.8 C 27 %
3227 23-12-2019 09:42:18 7.8 C 27 %
3228 23-12-2019 09:52:18 7.9 C 26 %
3229 23-12-2019 10:02:17 7.3 C 30 %
3230 23-12-2019 10:12:18 7 C 33 %
3231 23-12-2019 10:22:17 7 C 35 %
3232 23-12-2019 10:32:18 6.8 C 35 %
3233 23-12-2019 10:42:18 6.9 C 34 %
3234 23-12-2019 10:52:17 7.4 C 30 %
3235 23-12-2019 11:02:18 7.8 C 28 %
3236 23-12-2019 11:12:18 8.1 C 28 %
3237 23-12-2019 11:22:17 8.4 C 26 %
3238 23-12-2019 11:32:18 8.3 C 26 %
3239 23-12-2019 11:42:18 8.6 C 26 %
3240 23-12-2019 11:52:17 8.9 C 25 %
3241 23-12-2019 12:02:18 9.1 C 25 %
3242 23-12-2019 12:12:18 9.1 C 25 %
3243 23-12-2019 12:22:17 8.9 C 25 %
3244 23-12-2019 12:32:17 9 C 25 %
3245 23-12-2019 12:42:17 9.3 C 25 %
3246 23-12-2019 12:52:17 8.4 C 26 %
3247 23-12-2019 13:02:17 8.4 C 26 %
3248 23-12-2019 13:12:17 8.3 C 27 %
3249 23-12-2019 13:22:17 8.2 C 27 %
3250 23-12-2019 13:32:18 8.1 C 29 %
Sensor: Nr:Datum:Temp:Feuchte:
Aussen-T/F 3251 23-12-2019 13:42:18 8.2 C 28 %
3252 23-12-2019 13:52:17 8.5 C 28 %
3253 23-12-2019 14:02:17 8.9 C 27 %
3254 23-12-2019 14:12:17 8.9 C 26 %
3255 23-12-2019 14:22:18 9 C 25 %
3256 23-12-2019 14:32:17 9.1 C 25 %
3257 23-12-2019 14:42:17 9.1 C 25 %
3258 23-12-2019 14:52:17 8.9 C 25 %
3259 23-12-2019 15:02:18 8.7 C 26 %
3260 23-12-2019 15:12:18 9.1 C 25 %
3261 23-12-2019 15:22:17 9.1 C 25 %
3262 23-12-2019 15:32:17 9 C 25 %
3263 23-12-2019 15:42:17 9 C 25 %
3264 23-12-2019 15:52:17 8.8 C 25 %
3265 23-12-2019 16:02:17 8.8 C 25 %
3266 23-12-2019 16:12:17 8.6 C 26 %
3267 23-12-2019 16:22:18 8.5 C 25 %
3268 23-12-2019 16:32:17 8.4 C 25 %
3269 23-12-2019 16:42:17 8.5 C 25 %
3270 23-12-2019 16:52:18 8.5 C 25 %
3271 23-12-2019 17:02:17 8.2 C 25 %
3272 23-12-2019 17:12:17 8.4 C 25 %
3273 23-12-2019 17:22:17 8 C 25 %
3274 23-12-2019 17:32:17 7.9 C 25 %
3275 23-12-2019 17:42:18 7.8 C 25 %
Sensor: Nr:Datum:Temp:Feuchte:
Aussen-T/F 3276 23-12-2019 17:52:17 7.8 C 25 %
3277 23-12-2019 18:02:17 7.9 C 25 %
3278 23-12-2019 18:12:17 8 C 23 %
3279 23-12-2019 18:22:17 7.9 C 23 %
3280 23-12-2019 18:32:17 7.9 C 25 %
3281 23-12-2019 18:42:17 7.6 C 25 %
3282 23-12-2019 18:52:17 7.5 C 26 %
3283 23-12-2019 19:02:17 7.3 C 26 %
3284 23-12-2019 19:12:17 6.7 C 29 %
3285 23-12-2019 19:22:17 6.4 C 30 %
3286 23-12-2019 19:32:17 7.4 C 26 %
3287 23-12-2019 19:42:17 7 C 26 %
3288 23-12-2019 19:52:17 7 C 27 %
3289 23-12-2019 20:02:17 7 C 28 %
3290 23-12-2019 20:12:17 6.5 C 30 %
3291 23-12-2019 20:22:17 6.8 C 30 %
3292 23-12-2019 20:32:18 6.8 C 30 %
3293 23-12-2019 20:42:18 6.9 C 30 %
3294 23-12-2019 20:52:17 6.9 C 30 %
3295 23-12-2019 21:02:18 6.7 C 30 %
3296 23-12-2019 21:12:18 7.1 C 28 %
3297 23-12-2019 21:22:17 7 C 28 %
3298 23-12-2019 21:32:17 6.7 C 31 %
3299 23-12-2019 21:42:17 6.5 C 31 %
3300 23-12-2019 21:52:17 6.5 C 32 %
Sensor: Nr:Datum:Temp:Feuchte:
Aussen-T/F 3301 23-12-2019 22:02:18 6.4 C 31 %
3302 23-12-2019 22:12:18 5.8 C 32 %
3303 23-12-2019 22:22:17 5.4 C 37 %
3304 23-12-2019 22:32:17 5.7 C 33 %
3305 23-12-2019 22:42:17 5.3 C 34 %
3306 23-12-2019 22:52:17 5.5 C 34 %
3307 23-12-2019 23:02:17 5.4 C 33 %
3308 23-12-2019 23:12:17 5.5 C 32 %
3309 23-12-2019 23:22:18 5.4 C 30 %
3310 23-12-2019 23:32:17 5.8 C 30 %
3311 23-12-2019 23:42:17 4.8 C 33 %
3312 23-12-2019 23:52:17 4.8 C 36 %
3313 24-12-2019 00:02:17 5.6 C 35 %
3314 24-12-2019 00:12:17 5.8 C 32 %
3315 24-12-2019 00:22:17 5.7 C 32 %
3316 24-12-2019 00:32:18 6 C 32 %
3317 24-12-2019 00:42:18 6.1 C 31 %
3318 24-12-2019 00:52:17 6.3 C 31 %
3319 24-12-2019 01:02:17 5.6 C 32 %
3320 24-12-2019 01:12:17 5.9 C 32 %
3321 24-12-2019 01:22:17 6.1 C 30 %
3322 24-12-2019 01:32:17 6.3 C 30 %
3323 24-12-2019 01:42:17 5.9 C 31 %
3324 24-12-2019 01:52:17 5.7 C 33 %
3325 24-12-2019 02:02:17 5.7 C 35 %
Sensor: Nr:Datum:Temp:Feuchte:
Aussen-T/F 3326 24-12-2019 02:12:17 5.8 C 35 %
3327 24-12-2019 02:22:17 5.6 C 35 %
3328 24-12-2019 02:32:18 5.5 C 36 %
3329 24-12-2019 02:42:18 5.5 C 36 %
3330 24-12-2019 02:52:17 6.6 C 30 %
3331 24-12-2019 03:02:18 6.7 C 29 %
3332 24-12-2019 03:12:18 6.3 C 30 %
3333 24-12-2019 03:22:17 5.7 C 31 %
3334 24-12-2019 03:32:17 5.5 C 31 %
3335 24-12-2019 03:42:17 5.7 C 31 %
3336 24-12-2019 03:52:17 5 C 32 %
3337 24-12-2019 04:02:17 5 C 38 %
3338 24-12-2019 04:12:17 5.2 C 37 %
3339 24-12-2019 04:22:17 5.2 C 36 %
3340 24-12-2019 04:32:17 4.8 C 37 %
3341 24-12-2019 04:42:17 4.8 C 39 %
3342 24-12-2019 04:52:17 5.3 C 38 %
3343 24-12-2019 05:02:18 5.4 C 35 %
3344 24-12-2019 05:12:18 5.2 C 35 %
3345 24-12-2019 05:22:17 4.7 C 37 %
3346 24-12-2019 05:32:18 5 C 37 %
3347 24-12-2019 05:42:18 4.6 C 36 %
3348 24-12-2019 05:52:17 4.9 C 37 %
3349 24-12-2019 06:02:18 4.3 C 36 %
3350 24-12-2019 06:12:18 4.6 C 39 %
Sensor: Nr:Datum:Temp:Feuchte:
Aussen-T/F 3351 24-12-2019 06:22:17 4.6 C 38 %
3352 24-12-2019 06:32:17 4.6 C 39 %
3353 24-12-2019 06:42:17 4.5 C 38 %
3354 24-12-2019 06:52:17 4.5 C 39 %
3355 24-12-2019 07:02:17 4.8 C 37 %
3356 24-12-2019 07:12:17 5 C 36 %
3357 24-12-2019 07:22:17 5.4 C 34 %
3358 24-12-2019 07:32:17 5.6 C 33 %
3359 24-12-2019 07:42:17 5.6 C 32 %
3360 24-12-2019 07:52:17 5.8 C 32 %
3361 24-12-2019 08:02:17 5.8 C 31 %
3362 24-12-2019 08:12:17 6 C 30 %
3363 24-12-2019 08:22:17 6.2 C 29 %
3364 24-12-2019 08:32:17 6.2 C 30 %
3365 24-12-2019 08:42:17 6.3 C 30 %
3366 24-12-2019 08:52:18 6.4 C 30 %
3367 24-12-2019 09:02:17 6.5 C 29 %
3368 24-12-2019 09:12:17 6.8 C 29 %
3369 24-12-2019 09:22:17 6.8 C 28 %
3370 24-12-2019 09:32:17 6.8 C 29 %
3371 24-12-2019 09:42:17 6.8 C 28 %
3372 24-12-2019 09:52:17 6.5 C 30 %
3373 24-12-2019 10:02:17 6.4 C 30 %
3374 24-12-2019 10:12:17 6.2 C 31 %
3375 24-12-2019 10:22:17 6.2 C 33 %
Sensor: Nr:Datum:Temp:Feuchte:
Aussen-T/F 3376 24-12-2019 10:32:17 6.3 C 37 %
3377 24-12-2019 10:42:17 6.8 C 37 %
3378 24-12-2019 10:52:17 6.7 C 33 %
3379 24-12-2019 11:02:17 6.8 C 35 %
3380 24-12-2019 11:12:17 6.9 C 34 %
3381 24-12-2019 11:22:17 7.5 C 32 %
3382 24-12-2019 11:32:17 8 C 30 %
3383 24-12-2019 11:42:17 8.2 C 29 %
3384 24-12-2019 11:52:18 8 C 29 %
3385 24-12-2019 12:02:17 7.8 C 30 %
3386 24-12-2019 12:12:17 7.6 C 30 %
3387 24-12-2019 12:22:17 8 C 28 %
3388 24-12-2019 12:32:17 8.2 C 27 %
3389 24-12-2019 12:42:17 8.4 C 27 %
3390 24-12-2019 12:52:18 8.9 C 27 %
3391 24-12-2019 13:02:17 9.2 C 25 %
3392 24-12-2019 13:12:17 9.3 C 25 %
3393 24-12-2019 13:22:17 9.3 C 25 %
3394 24-12-2019 13:32:17 9.2 C 26 %
3395 24-12-2019 13:42:17 9.3 C 26 %
3396 24-12-2019 13:52:17 9.3 C 26 %
3397 24-12-2019 14:02:18 9.4 C 25 %
3398 24-12-2019 14:12:18 9.5 C 25 %
3399 24-12-2019 14:22:17 9.6 C 25 %
3400 24-12-2019 14:32:18 9.7 C 25 %
Sensor: Nr:Datum:Temp:Feuchte:
Aussen-T/F 3401 24-12-2019 14:42:18 9.3 C 26 %
3402 24-12-2019 14:52:17 9.2 C 27 %
3403 24-12-2019 15:02:18 9.1 C 27 %
3404 24-12-2019 15:12:18 9.5 C 26 %
3405 24-12-2019 15:22:17 9.8 C 25 %
3406 24-12-2019 15:32:17 10 C 22 %
3407 24-12-2019 15:42:17 10.1 C 20 %
3408 24-12-2019 15:52:17 10.5 C 20 %
3409 24-12-2019 16:02:17 10.1 C 20 %
3410 24-12-2019 16:12:17 10 C 20 %
3411 24-12-2019 16:22:17 10.2 C 20 %
3412 24-12-2019 16:32:17 9.8 C 20 %
3413 24-12-2019 16:42:17 9.7 C 21 %
3414 24-12-2019 16:52:17 10.1 C 20 %
3415 24-12-2019 17:02:17 9.8 C 20 %
3416 24-12-2019 17:12:17 9.4 C 20 %
3417 24-12-2019 17:22:18 9.6 C 20 %
3418 24-12-2019 17:32:17 8.8 C 20 %
3419 24-12-2019 17:42:17 9.1 C 20 %
3420 24-12-2019 17:52:17 9.3 C 20 %
3421 24-12-2019 18:02:17 9 C 20 %
3422 24-12-2019 18:12:17 8.5 C 26 %
3423 24-12-2019 18:22:17 8.9 C 25 %
3424 24-12-2019 18:32:17 8.2 C 28 %
3425 24-12-2019 18:42:17 7.8 C 31 %
Sensor: Nr:Datum:Temp:Feuchte:
Aussen-T/F 3426 24-12-2019 18:52:17 7.5 C 35 %
3427 24-12-2019 19:02:17 7.6 C 31 %
3428 24-12-2019 19:12:17 7.3 C 31 %
3429 24-12-2019 19:22:17 6.7 C 35 %
3430 24-12-2019 19:32:17 6.5 C 40 %
3431 24-12-2019 19:42:17 6.5 C 36 %
3432 24-12-2019 19:52:17 6.2 C 36 %
3433 24-12-2019 20:02:17 6.7 C 35 %
3434 24-12-2019 20:12:17 7.3 C 30 %
3435 24-12-2019 20:22:17 7.2 C 32 %
3436 24-12-2019 20:32:18 7.1 C 30 %
3437 24-12-2019 20:42:18 7.3 C 31 %
3438 24-12-2019 20:52:17 7.3 C 30 %
3439 24-12-2019 21:02:17 7.1 C 31 %
3440 24-12-2019 21:12:17 7.7 C 30 %
3441 24-12-2019 21:22:17 7.4 C 30 %
3442 24-12-2019 21:32:17 7.6 C 30 %
3443 24-12-2019 21:42:17 7.9 C 29 %
3444 24-12-2019 21:52:17 8.1 C 28 %
3445 24-12-2019 22:02:17 8.6 C 26 %
3446 24-12-2019 22:12:17 8.5 C 26 %
3447 24-12-2019 22:22:17 8.3 C 26 %
3448 24-12-2019 22:32:17 8.4 C 26 %
3449 24-12-2019 22:42:17 8.2 C 27 %
3450 24-12-2019 22:52:17 8 C 28 %
Sensor: Nr:Datum:Temp:Feuchte:
Aussen-T/F 3451 24-12-2019 23:02:17 8.4 C 27 %
3452 24-12-2019 23:12:17 8.4 C 27 %
3453 24-12-2019 23:22:17 8.4 C 27 %
3454 24-12-2019 23:32:17 8.5 C 27 %
3455 24-12-2019 23:42:17 8.5 C 27 %
3456 24-12-2019 23:52:17 8.4 C 27 %
3457 25-12-2019 00:02:17 8.4 C 27 %
3458 25-12-2019 00:12:17 8.4 C 27 %
3459 25-12-2019 00:22:17 8.4 C 28 %
3460 25-12-2019 00:32:17 8.3 C 28 %
3461 25-12-2019 00:42:18 8.2 C 29 %
3462 25-12-2019 00:52:17 8.2 C 29 %
3463 25-12-2019 01:02:17 7.8 C 32 %
3464 25-12-2019 01:12:17 7.7 C 33 %
3465 25-12-2019 01:22:17 7.5 C 35 %
3466 25-12-2019 01:32:18 7.3 C 35 %
3467 25-12-2019 01:42:18 7.5 C 35 %
3468 25-12-2019 01:52:17 7.6 C 33 %
3469 25-12-2019 02:02:17 7.7 C 32 %
3470 25-12-2019 02:12:17 8 C 31 %
3471 25-12-2019 02:22:17 7.9 C 31 %
3472 25-12-2019 02:32:18 7.9 C 31 %
3473 25-12-2019 02:42:18 7.9 C 31 %
3474 25-12-2019 02:52:17 7.9 C 31 %
3475 25-12-2019 03:02:17 7.8 C 31 %
Sensor: Nr:Datum:Temp:Feuchte:
Aussen-T/F 3476 25-12-2019 03:12:17 7.9 C 32 %
3477 25-12-2019 03:22:17 8.1 C 31 %
3478 25-12-2019 03:32:17 8.3 C 30 %
3479 25-12-2019 03:42:17 8.2 C 30 %
3480 25-12-2019 03:52:18 8.2 C 30 %
3481 25-12-2019 04:02:17 7.9 C 34 %
3482 25-12-2019 04:12:17 8 C 34 %
3483 25-12-2019 04:22:18 7.9 C 35 %
3484 25-12-2019 04:32:17 7.9 C 36 %
3485 25-12-2019 04:42:17 7.9 C 38 %
3486 25-12-2019 04:52:17 7.9 C 36 %
3487 25-12-2019 05:02:17 7.9 C 37 %
3488 25-12-2019 05:12:17 7.8 C 37 %
3489 25-12-2019 05:22:18 7.6 C 38 %
3490 25-12-2019 05:32:17 8 C 36 %
3491 25-12-2019 05:42:17 7.9 C 35 %
3492 25-12-2019 05:52:17 7.5 C 35 %
3493 25-12-2019 06:02:18 7.5 C 35 %
3494 25-12-2019 06:12:18 7.2 C 36 %
3495 25-12-2019 06:22:17 7.2 C 37 %
3496 25-12-2019 06:32:18 7.3 C 37 %
3497 25-12-2019 06:42:18 7.3 C 36 %
3498 25-12-2019 06:52:17 7.1 C 39 %
3499 25-12-2019 07:02:18 7.3 C 33 %
3500 25-12-2019 07:12:18 7.1 C 32 %
Sensor: Nr:Datum:Temp:Feuchte:
Aussen-T/F 3501 25-12-2019 07:22:17 6.9 C 35 %
3502 25-12-2019 07:32:18 6.8 C 38 %
3503 25-12-2019 07:42:18 6.9 C 38 %
3504 25-12-2019 07:52:17 7 C 35 %
3505 25-12-2019 08:02:18 6.8 C 32 %
3506 25-12-2019 08:12:18 6.4 C 32 %
3507 25-12-2019 08:22:17 6.2 C 33 %
3508 25-12-2019 08:32:17 6.2 C 32 %
3509 25-12-2019 08:42:17 6.5 C 32 %
3510 25-12-2019 08:52:17 6.7 C 31 %
3511 25-12-2019 09:02:17 6.9 C 30 %
3512 25-12-2019 09:12:17 6.9 C 30 %
3513 25-12-2019 09:22:18 6.8 C 30 %
3514 25-12-2019 09:32:17 7.3 C 28 %
3515 25-12-2019 09:42:17 7.3 C 27 %
3516 25-12-2019 09:52:17 7.3 C 27 %
3517 25-12-2019 10:02:17 7.1 C 29 %
3518 25-12-2019 10:12:17 7.3 C 27 %
3519 25-12-2019 10:22:18 7.6 C 26 %
3520 25-12-2019 10:32:17 7.7 C 26 %
3521 25-12-2019 10:42:17 7.8 C 25 %
3522 25-12-2019 10:52:17 7.5 C 26 %
3523 25-12-2019 11:02:17 7.5 C 26 %
3524 25-12-2019 11:12:17 7.5 C 26 %
3525 25-12-2019 11:22:17 7.7 C 26 %
Sensor: Nr:Datum:Temp:Feuchte:
Aussen-T/F 3526 25-12-2019 11:32:17 7.4 C 26 %
3527 25-12-2019 11:42:17 7.4 C 27 %
3528 25-12-2019 11:52:18 7.1 C 28 %
3529 25-12-2019 12:02:17 7.1 C 29 %
3530 25-12-2019 12:12:17 7.6 C 27 %
3531 25-12-2019 12:22:17 7.6 C 27 %
3532 25-12-2019 12:32:17 7.7 C 27 %
3533 25-12-2019 12:42:17 7.8 C 27 %
3534 25-12-2019 12:52:18 7.6 C 27 %
3535 25-12-2019 13:02:17 7.1 C 29 %
3536 25-12-2019 13:12:17 7 C 31 %
3537 25-12-2019 13:22:18 6.9 C 31 %
3538 25-12-2019 13:32:17 7.1 C 30 %
3539 25-12-2019 13:42:17 7 C 30 %
3540 25-12-2019 13:52:17 6.9 C 30 %
3541 25-12-2019 14:02:17 7.1 C 30 %
3542 25-12-2019 14:12:17 7.4 C 29 %
3543 25-12-2019 14:22:18 7.6 C 28 %
3544 25-12-2019 14:32:17 7.7 C 29 %
3545 25-12-2019 14:42:17 7.6 C 29 %
3546 25-12-2019 14:52:17 7.1 C 31 %
3547 25-12-2019 15:02:17 7.1 C 32 %
3548 25-12-2019 15:12:17 7.1 C 30 %
3549 25-12-2019 15:22:18 7.1 C 31 %
3550 25-12-2019 15:32:17 7.4 C 30 %
Sensor: Nr:Datum:Temp:Feuchte:
Aussen-T/F 3551 25-12-2019 15:42:17 7.3 C 31 %
3552 25-12-2019 15:52:17 7.2 C 30 %
3553 25-12-2019 16:02:17 7.2 C 30 %
3554 25-12-2019 16:12:17 6.9 C 31 %
3555 25-12-2019 16:22:17 6.8 C 32 %
3556 25-12-2019 16:32:17 6.7 C 35 %
3557 25-12-2019 16:42:17 6.9 C 32 %
3558 25-12-2019 16:52:17 6.9 C 31 %
3559 25-12-2019 17:02:17 6.8 C 30 %
3560 25-12-2019 17:12:17 6.7 C 30 %
3561 25-12-2019 17:22:18 6.6 C 31 %
3562 25-12-2019 17:32:17 6.2 C 31 %
3563 25-12-2019 17:42:17 5.7 C 35 %
3564 25-12-2019 17:52:18 5.9 C 35 %
3565 25-12-2019 18:02:17 6 C 33 %
3566 25-12-2019 18:12:17 6.1 C 32 %
3567 25-12-2019 18:22:17 6.2 C 33 %
3568 25-12-2019 18:32:17 6.2 C 33 %
3569 25-12-2019 18:42:17 6.2 C 32 %
3570 25-12-2019 18:52:17 6.2 C 32 %
3571 25-12-2019 19:02:17 6 C 33 %
3572 25-12-2019 19:12:17 5.9 C 33 %
3573 25-12-2019 19:22:17 6.1 C 32 %
3574 25-12-2019 19:32:18 6.1 C 32 %
3575 25-12-2019 19:42:18 6 C 33 %
Sensor: Nr:Datum:Temp:Feuchte:
Aussen-T/F 3576 25-12-2019 19:52:17 5.9 C 33 %
3577 25-12-2019 20:02:17 5.8 C 35 %
3578 25-12-2019 20:12:17 5.9 C 35 %
3579 25-12-2019 20:22:18 5.9 C 34 %
3580 25-12-2019 20:32:17 5.8 C 34 %
3581 25-12-2019 20:42:17 5.6 C 37 %
3582 25-12-2019 20:52:17 5.5 C 38 %
3583 25-12-2019 21:02:18 5.5 C 38 %
3584 25-12-2019 21:12:18 5.4 C 40 %
3585 25-12-2019 21:22:17 5.3 C 41 %
3586 25-12-2019 21:32:17 5.3 C 43 %
3587 25-12-2019 21:42:17 5.3 C 42 %
3588 25-12-2019 21:52:17 5.2 C 42 %
3589 25-12-2019 22:02:18 5.2 C 42 %
3590 25-12-2019 22:12:18 5.1 C 43 %
3591 25-12-2019 22:22:17 5.2 C 42 %
3592 25-12-2019 22:32:18 5.1 C 41 %
3593 25-12-2019 22:42:18 5.1 C 42 %
3594 25-12-2019 22:52:17 5.2 C 42 %
3595 25-12-2019 23:02:18 5.2 C 42 %
3596 25-12-2019 23:12:18 5.2 C 42 %
3597 25-12-2019 23:22:17 5.2 C 42 %
3598 25-12-2019 23:32:17 5.1 C 42 %
3599 25-12-2019 23:42:17 4.7 C 42 %
3600 25-12-2019 23:52:17 4.5 C 42 %
Sensor: Nr:Datum:Temp:Feuchte:
Aussen-T/F 3601 26-12-2019 00:02:17 4.6 C 43 %
3602 26-12-2019 00:12:18 4 C 42 %
3603 26-12-2019 00:22:17 3.6 C 42 %
3604 26-12-2019 00:32:18 3.9 C 44 %
3605 26-12-2019 00:42:18 3.9 C 44 %
3606 26-12-2019 00:52:17 4.1 C 43 %
3607 26-12-2019 01:02:18 4.4 C 43 %
3608 26-12-2019 01:12:18 4.3 C 43 %
3609 26-12-2019 01:22:17 4.3 C 43 %
3610 26-12-2019 01:32:17 4.4 C 43 %
3611 26-12-2019 01:42:17 4.4 C 43 %
3612 26-12-2019 01:52:17 4.3 C 42 %
3613 26-12-2019 02:02:18 4.3 C 42 %
3614 26-12-2019 02:12:18 4.4 C 42 %
3615 26-12-2019 02:22:17 4.2 C 42 %
3616 26-12-2019 02:32:17 4 C 42 %
3617 26-12-2019 02:42:17 4 C 42 %
3618 26-12-2019 02:52:17 4.2 C 42 %
3619 26-12-2019 03:02:18 4.2 C 42 %
3620 26-12-2019 03:12:18 4.1 C 42 %
3621 26-12-2019 03:22:17 4.1 C 42 %
3622 26-12-2019 03:32:17 4.1 C 42 %
3623 26-12-2019 03:42:17 4.1 C 42 %
3624 26-12-2019 03:52:17 3.9 C 43 %
3625 26-12-2019 04:02:17 3.6 C 42 %
Sensor: Nr:Datum:Temp:Feuchte:
Aussen-T/F 3626 26-12-2019 04:12:17 3.6 C 42 %
3627 26-12-2019 04:22:18 3.4 C 42 %
3628 26-12-2019 04:32:17 3 C 42 %
3629 26-12-2019 04:42:17 3.1 C 42 %
3630 26-12-2019 04:52:17 3.1 C 43 %
3631 26-12-2019 05:02:17 3.3 C 43 %
3632 26-12-2019 05:12:17 3.5 C 43 %
3633 26-12-2019 05:22:17 3.4 C 43 %
3634 26-12-2019 05:32:18 3.5 C 43 %
3635 26-12-2019 05:42:18 3.4 C 43 %
3636 26-12-2019 05:52:17 3.5 C 43 %
3637 26-12-2019 06:02:17 3.6 C 43 %
3638 26-12-2019 06:12:18 3.6 C 43 %
3639 26-12-2019 06:22:17 3.5 C 43 %
3640 26-12-2019 06:32:18 3.6 C 43 %
3641 26-12-2019 06:42:18 3.5 C 43 %
3642 26-12-2019 06:52:17 3.5 C 43 %
3643 26-12-2019 07:02:18 3.5 C 43 %
3644 26-12-2019 07:12:18 3.5 C 43 %
3645 26-12-2019 07:22:17 3.4 C 43 %
3646 26-12-2019 07:32:17 3.4 C 43 %
3647 26-12-2019 07:42:17 3.4 C 43 %
3648 26-12-2019 07:52:17 3.4 C 43 %
3649 26-12-2019 08:02:18 3.4 C 43 %
3650 26-12-2019 08:12:18 3.4 C 43 %
Sensor: Nr:Datum:Temp:Feuchte:
Aussen-T/F 3651 26-12-2019 08:22:17 3.5 C 43 %
3652 26-12-2019 08:32:17 3.4 C 43 %
3653 26-12-2019 08:42:17 3.4 C 43 %
3654 26-12-2019 08:52:17 3.5 C 43 %
3655 26-12-2019 09:02:17 3.5 C 43 %
3656 26-12-2019 09:12:17 3.5 C 43 %
3657 26-12-2019 09:22:17 3.4 C 42 %
3658 26-12-2019 09:32:17 3.5 C 43 %
3659 26-12-2019 09:42:17 3.6 C 42 %
3660 26-12-2019 09:52:18 3.6 C 42 %
3661 26-12-2019 10:02:17 3.6 C 42 %
3662 26-12-2019 10:12:17 3.6 C 42 %
3663 26-12-2019 10:22:18 3.8 C 42 %
3664 26-12-2019 10:32:17 4 C 41 %
3665 26-12-2019 10:42:17 4.3 C 41 %
3666 26-12-2019 10:52:18 4.5 C 41 %
3667 26-12-2019 11:02:17 4.7 C 41 %
3668 26-12-2019 11:12:17 4.8 C 41 %
3669 26-12-2019 11:22:17 5 C 40 %
3670 26-12-2019 11:32:17 5.4 C 40 %
3671 26-12-2019 11:42:17 5.5 C 39 %
3672 26-12-2019 11:52:17 5.6 C 37 %
3673 26-12-2019 12:02:17 5.7 C 36 %
3674 26-12-2019 12:12:17 5.7 C 36 %
3675 26-12-2019 12:22:17 5.7 C 35 %
Sensor: Nr:Datum:Temp:Feuchte:
Aussen-T/F 3676 26-12-2019 12:32:18 5.9 C 35 %
3677 26-12-2019 12:42:18 6 C 35 %
3678 26-12-2019 12:52:17 6 C 36 %
3679 26-12-2019 13:02:18 5.9 C 36 %
3680 26-12-2019 13:12:18 5.9 C 37 %
3681 26-12-2019 13:22:17 5.8 C 36 %
3682 26-12-2019 13:32:18 5.8 C 36 %
3683 26-12-2019 13:42:18 5.7 C 36 %
3684 26-12-2019 13:52:17 5.7 C 36 %
3685 26-12-2019 14:02:18 5.7 C 36 %
3686 26-12-2019 14:12:18 5.8 C 35 %
3687 26-12-2019 14:22:17 6 C 35 %
3688 26-12-2019 14:32:17 6 C 35 %
3689 26-12-2019 14:42:17 5.7 C 35 %
3690 26-12-2019 14:52:17 5.6 C 36 %
3691 26-12-2019 15:02:17 5.5 C 36 %
3692 26-12-2019 15:12:17 5.4 C 36 %
3693 26-12-2019 15:22:17 5.1 C 38 %
3694 26-12-2019 15:32:17 5 C 37 %
3695 26-12-2019 15:42:17 4.8 C 39 %
3696 26-12-2019 15:52:18 4.8 C 39 %
3697 26-12-2019 16:02:17 4.7 C 38 %
3698 26-12-2019 16:12:17 4.6 C 39 %
3699 26-12-2019 16:22:17 4.5 C 40 %
3700 26-12-2019 16:32:17 4.4 C 41 %
Sensor: Nr:Datum:Temp:Feuchte:
Aussen-T/F 3701 26-12-2019 16:42:18 4.4 C 40 %
3702 26-12-2019 16:53:17 4.3 C 41 %
3703 26-12-2019 17:02:17 4.4 C 40 %
3704 26-12-2019 17:12:17 4.3 C 40 %
3705 26-12-2019 17:22:17 4.3 C 40 %
3706 26-12-2019 17:32:17 4.4 C 40 %
3707 26-12-2019 17:42:17 4.1 C 40 %
3708 26-12-2019 17:52:17 4.1 C 40 %
3709 26-12-2019 18:02:17 4 C 40 %
3710 26-12-2019 18:12:17 4 C 41 %
3711 26-12-2019 18:22:17 4.1 C 41 %
3712 26-12-2019 18:32:17 4.1 C 41 %
3713 26-12-2019 18:42:18 4.1 C 40 %
3714 26-12-2019 18:53:17 4.1 C 40 %
3715 26-12-2019 19:02:17 4 C 40 %
3716 26-12-2019 19:12:17 4 C 41 %
3717 26-12-2019 19:23:17 4 C 41 %
3718 26-12-2019 19:32:17 3.8 C 41 %
3719 26-12-2019 19:42:17 4 C 41 %
3720 26-12-2019 19:53:17 3.8 C 41 %
3721 26-12-2019 20:02:17 3.8 C 42 %
3722 26-12-2019 20:12:17 3.9 C 42 %
3723 26-12-2019 20:23:17 4 C 41 %
3724 26-12-2019 20:32:17 4.1 C 40 %
3725 26-12-2019 20:42:17 4.2 C 39 %
Sensor: Nr:Datum:Temp:Feuchte:
Aussen-T/F 3726 26-12-2019 20:53:17 4.1 C 38 %
3727 26-12-2019 21:02:17 4.3 C 37 %
3728 26-12-2019 21:12:17 4.2 C 38 %
3729 26-12-2019 21:23:17 4.1 C 38 %
3730 26-12-2019 21:32:18 4.1 C 38 %
3731 26-12-2019 21:42:18 4.2 C 37 %
3732 26-12-2019 21:52:17 4.3 C 37 %
3733 26-12-2019 22:02:18 4.1 C 39 %
3734 26-12-2019 22:12:18 4.1 C 41 %
3735 26-12-2019 22:22:17 4.1 C 41 %
3736 26-12-2019 22:33:17 4.1 C 41 %
3737 26-12-2019 22:43:17 4.1 C 42 %
3738 26-12-2019 22:52:17 4.1 C 42 %
3739 26-12-2019 23:03:17 4.1 C 43 %
3740 26-12-2019 23:13:17 4.1 C 43 %
3741 26-12-2019 23:23:17 4 C 43 %
3742 26-12-2019 23:32:17 4 C 43 %
3743 26-12-2019 23:42:17 4 C 42 %
3744 26-12-2019 23:53:17 4 C 42 %
3745 27-12-2019 00:02:17 4 C 42 %
3746 27-12-2019 00:12:17 4 C 42 %
3747 27-12-2019 00:23:17 4 C 42 %
3748 27-12-2019 00:32:17 4 C 42 %
3749 27-12-2019 00:42:18 4.1 C 42 %
3750 27-12-2019 00:53:17 4.1 C 42 %
Sensor: Nr:Datum:Temp:Feuchte:
Aussen-T/F 3751 27-12-2019 01:03:18 4.1 C 42 %
3752 27-12-2019 01:13:18 4.1 C 42 %
3753 27-12-2019 01:23:17 4.1 C 42 %
3754 27-12-2019 01:33:17 4.1 C 42 %
3755 27-12-2019 01:43:17 4.1 C 42 %
3756 27-12-2019 01:53:18 4.1 C 42 %
3757 27-12-2019 02:03:17 4.1 C 42 %
3758 27-12-2019 02:13:17 4.1 C 42 %
3759 27-12-2019 02:23:17 4.1 C 42 %
3760 27-12-2019 02:33:18 4.1 C 42 %
3761 27-12-2019 02:43:19 4.1 C 42 %
3762 27-12-2019 02:53:17 4.2 C 42 %
3763 27-12-2019 03:03:17 4.3 C 42 %
3764 27-12-2019 03:13:17 4.2 C 42 %
3765 27-12-2019 03:23:17 4.3 C 42 %
3766 27-12-2019 03:33:17 4.3 C 42 %
3767 27-12-2019 03:43:18 4.3 C 42 %
3768 27-12-2019 03:53:17 4.3 C 42 %
3769 27-12-2019 04:03:17 4.3 C 42 %
3770 27-12-2019 04:13:17 4.3 C 42 %
3771 27-12-2019 04:23:17 4.3 C 42 %
3772 27-12-2019 04:33:17 4.3 C 42 %
3773 27-12-2019 04:43:17 4.3 C 42 %
3774 27-12-2019 04:53:18 4.4 C 42 %
3775 27-12-2019 05:03:17 4.4 C 42 %
Sensor: Nr:Datum:Temp:Feuchte:
Aussen-T/F 3776 27-12-2019 05:13:17 4.4 C 42 %
3777 27-12-2019 05:23:17 4.4 C 42 %
3778 27-12-2019 05:33:17 4.3 C 42 %
3779 27-12-2019 05:43:17 4.4 C 42 %
3780 27-12-2019 05:53:17 4.4 C 42 %
3781 27-12-2019 06:03:17 4.4 C 42 %
3782 27-12-2019 06:13:17 4.4 C 42 %
3783 27-12-2019 06:23:17 4.4 C 42 %
3784 27-12-2019 06:33:17 4.4 C 42 %
3785 27-12-2019 06:43:17 4.4 C 42 %
3786 27-12-2019 06:53:17 4.4 C 42 %
3787 27-12-2019 07:03:17 4.5 C 42 %
3788 27-12-2019 07:13:17 4.4 C 42 %
3789 27-12-2019 07:23:18 4.4 C 42 %
3790 27-12-2019 07:33:17 4.4 C 42 %
3791 27-12-2019 07:43:17 4.4 C 42 %
3792 27-12-2019 07:53:17 4.3 C 42 %
3793 27-12-2019 08:03:17 4.3 C 42 %
3794 27-12-2019 08:13:17 4.3 C 42 %
3795 27-12-2019 08:23:17 4.3 C 42 %
3796 27-12-2019 08:33:17 4.3 C 42 %
3797 27-12-2019 08:43:17 4.3 C 42 %
3798 27-12-2019 08:53:18 4.3 C 42 %
3799 27-12-2019 09:03:17 4.4 C 42 %
3800 27-12-2019 09:13:17 4.4 C 42 %
Sensor: Nr:Datum:Temp:Feuchte:
Aussen-T/F 3801 27-12-2019 09:23:17 4.3 C 42 %
3802 27-12-2019 09:33:17 4.5 C 42 %
3803 27-12-2019 09:43:17 4.6 C 42 %
3804 27-12-2019 09:53:17 4.8 C 41 %
3805 27-12-2019 10:03:17 4.9 C 41 %
3806 27-12-2019 10:13:17 4.8 C 40 %
3807 27-12-2019 10:23:17 4.8 C 40 %
3808 27-12-2019 10:33:18 4.9 C 40 %
3809 27-12-2019 10:43:18 4.9 C 40 %
3810 27-12-2019 10:53:17 5 C 38 %
3811 27-12-2019 11:03:18 5 C 38 %
3812 27-12-2019 11:13:18 5.1 C 37 %
3813 27-12-2019 11:23:17 5.1 C 37 %
3814 27-12-2019 11:33:17 5.2 C 36 %
3815 27-12-2019 11:43:17 5.7 C 33 %
3816 27-12-2019 11:53:17 6 C 31 %
3817 27-12-2019 12:03:17 6.1 C 31 %
3818 27-12-2019 12:13:17 5.9 C 31 %
3819 27-12-2019 12:23:17 5.9 C 31 %
3820 27-12-2019 12:33:17 6 C 31 %
3821 27-12-2019 12:43:17 6 C 31 %
3822 27-12-2019 12:53:17 5.9 C 31 %
3823 27-12-2019 13:03:17 5.7 C 31 %
3824 27-12-2019 13:13:17 5.7 C 31 %
3825 27-12-2019 13:23:17 5.6 C 31 %
Sensor: Nr:Datum:Temp:Feuchte:
Aussen-T/F 3826 27-12-2019 13:33:17 5.7 C 31 %
3827 27-12-2019 13:43:17 5.7 C 30 %
3828 27-12-2019 13:53:17 5.8 C 30 %
3829 27-12-2019 14:03:18 5.9 C 30 %
3830 27-12-2019 14:13:18 6.1 C 29 %
3831 27-12-2019 14:23:18 5.9 C 29 %
3832 27-12-2019 14:33:17 6 C 30 %
3833 27-12-2019 14:43:17 5.9 C 28 %
3834 27-12-2019 14:53:18 5.8 C 26 %
3835 27-12-2019 15:03:17 5.7 C 27 %
3836 27-12-2019 15:13:17 5.7 C 28 %
3837 27-12-2019 15:23:18 5.6 C 29 %
3838 27-12-2019 15:33:17 5.6 C 29 %
3839 27-12-2019 15:43:17 5.4 C 30 %
3840 27-12-2019 15:53:17 5.3 C 31 %
3841 27-12-2019 16:03:17 5.1 C 33 %
3842 27-12-2019 16:13:17 4.9 C 33 %
3843 27-12-2019 16:23:17 4.9 C 33 %
3844 27-12-2019 16:33:17 4.8 C 34 %
3845 27-12-2019 16:43:17 4.7 C 33 %
3846 27-12-2019 16:53:17 4.6 C 34 %
3847 27-12-2019 17:03:17 4.5 C 34 %
3848 27-12-2019 17:13:17 4.5 C 35 %
3849 27-12-2019 17:23:17 4.5 C 33 %
3850 27-12-2019 17:33:18 4.5 C 34 %
Sensor: Nr:Datum:Temp:Feuchte:
Aussen-T/F 3851 27-12-2019 17:43:18 4.5 C 34 %
3852 27-12-2019 17:53:17 4.4 C 34 %
3853 27-12-2019 18:03:18 4.4 C 33 %
3854 27-12-2019 18:13:18 4.4 C 33 %
3855 27-12-2019 18:23:17 4.4 C 32 %
3856 27-12-2019 18:33:18 4.4 C 34 %
3857 27-12-2019 18:43:18 4.3 C 34 %
3858 27-12-2019 18:53:17 4.2 C 33 %
3859 27-12-2019 19:03:17 4.2 C 33 %
3860 27-12-2019 19:13:17 4.2 C 33 %
3861 27-12-2019 19:23:17 4.3 C 32 %
3862 27-12-2019 19:33:17 4.2 C 33 %
3863 27-12-2019 19:43:17 4.1 C 34 %
3864 27-12-2019 19:53:18 3.9 C 35 %
3865 27-12-2019 20:03:17 3.8 C 34 %
3866 27-12-2019 20:13:17 4 C 32 %
3867 27-12-2019 20:23:17 4 C 32 %
3868 27-12-2019 20:33:18 4 C 32 %
3869 27-12-2019 20:43:18 4 C 31 %
3870 27-12-2019 20:53:17 4.1 C 31 %
3871 27-12-2019 21:03:18 4.1 C 31 %
3872 27-12-2019 21:13:18 4 C 31 %
3873 27-12-2019 21:23:17 4 C 31 %
3874 27-12-2019 21:33:18 3.9 C 33 %
3875 27-12-2019 21:43:18 3.9 C 32 %
Sensor: Nr:Datum:Temp:Feuchte:
Aussen-T/F 3876 27-12-2019 21:53:17 3.7 C 32 %
3877 27-12-2019 22:03:17 3.6 C 32 %
3878 27-12-2019 22:13:17 3.3 C 32 %
3879 27-12-2019 22:23:17 3.2 C 32 %
3880 27-12-2019 22:33:17 2.7 C 33 %
3881 27-12-2019 22:43:17 2.2 C 34 %
3882 27-12-2019 22:53:17 2 C 35 %
3883 27-12-2019 23:03:18 1.7 C 38 %
3884 27-12-2019 23:13:18 1.3 C 39 %
3885 27-12-2019 23:23:17 1.2 C 41 %
3886 27-12-2019 23:33:17 0.9 C 42 %
3887 27-12-2019 23:43:17 0.8 C 41 %
3888 27-12-2019 23:53:17 0.7 C 41 %
3889 28-12-2019 00:03:17 0.5 C 40 %
3890 28-12-2019 00:13:17 0.4 C 41 %
3891 28-12-2019 00:23:18 0.4 C 41 %
3892 28-12-2019 00:33:17 0.3 C 41 %
3893 28-12-2019 00:43:17 0.3 C 41 %
3894 28-12-2019 00:53:17 0.2 C 40 %
3895 28-12-2019 01:03:17 0.1 C 40 %
3896 28-12-2019 01:13:17 -0.2 C 43 %
3897 28-12-2019 01:23:17 -0.5 C 43 %
3898 28-12-2019 01:33:17 -0.3 C 44 %
3899 28-12-2019 01:43:17 -0.7 C 42 %
3900 28-12-2019 01:53:17 -1.1 C 43 %
Sensor: Nr:Datum:Temp:Feuchte:
Aussen-T/F 3901 28-12-2019 02:03:17 -1.3 C 45 %
3902 28-12-2019 02:13:17 -1.5 C 44 %
3903 28-12-2019 02:23:17 -1.7 C 44 %
3904 28-12-2019 02:33:18 -1.5 C 45 %
3905 28-12-2019 02:43:18 -1.5 C 45 %
3906 28-12-2019 02:53:17 -1.6 C 45 %
3907 28-12-2019 03:03:17 -1.9 C 45 %
3908 28-12-2019 03:13:18 -1.7 C 45 %
3909 28-12-2019 03:23:17 -2.1 C 45 %
3910 28-12-2019 03:33:17 -2.1 C 45 %
3911 28-12-2019 03:43:17 -2.1 C 45 %
3912 28-12-2019 03:53:18 -2.4 C 45 %
3913 28-12-2019 04:03:17 -2.4 C 45 %
3914 28-12-2019 04:13:17 -2.4 C 45 %
3915 28-12-2019 04:23:17 -2.3 C 45 %
3916 28-12-2019 04:33:17 -2.4 C 45 %
3917 28-12-2019 04:43:18 -2.3 C 45 %
3918 28-12-2019 04:53:17 -2.4 C 45 %
3919 28-12-2019 05:03:18 -2.6 C 44 %
3920 28-12-2019 05:13:18 -2.7 C 44 %
3921 28-12-2019 05:23:17 -2.5 C 45 %
3922 28-12-2019 05:33:18 -2.5 C 45 %
3923 28-12-2019 05:43:18 -2.1 C 45 %
3924 28-12-2019 05:53:17 -2.3 C 45 %
3925 28-12-2019 06:03:17 -1.8 C 45 %
Sensor: Nr:Datum:Temp:Feuchte:
Aussen-T/F 3926 28-12-2019 06:13:18 -2.1 C 44 %
3927 28-12-2019 06:23:17 -2.2 C 43 %
3928 28-12-2019 06:33:17 -2 C 44 %
3929 28-12-2019 06:43:18 -1.9 C 44 %
3930 28-12-2019 06:53:17 -2.1 C 43 %
3931 28-12-2019 07:03:18 -2 C 43 %
3932 28-12-2019 07:13:18 -2.3 C 43 %
3933 28-12-2019 07:23:17 -2.8 C 42 %
3934 28-12-2019 07:33:17 -2.3 C 43 %
3935 28-12-2019 07:43:17 -2.4 C 43 %
3936 28-12-2019 07:53:17 -2.2 C 44 %
3937 28-12-2019 08:03:17 -2.6 C 43 %
3938 28-12-2019 08:13:17 -3 C 42 %
3939 28-12-2019 08:23:18 -3.1 C 42 %
3940 28-12-2019 08:33:17 -3.2 C 42 %
3941 28-12-2019 08:43:17 -3.2 C 42 %
3942 28-12-2019 08:53:17 -2.9 C 43 %
3943 28-12-2019 09:03:18 -2.9 C 43 %
3944 28-12-2019 09:13:18 -2.8 C 43 %
3945 28-12-2019 09:23:17 -2.7 C 43 %
3946 28-12-2019 09:33:17 -2.5 C 43 %
3947 28-12-2019 09:43:17 -1.9 C 45 %
3948 28-12-2019 09:53:17 -1.7 C 45 %
3949 28-12-2019 10:03:17 -1.6 C 45 %
3950 28-12-2019 10:13:17 -1.4 C 45 %
Sensor: Nr:Datum:Temp:Feuchte:
Aussen-T/F 3951 28-12-2019 10:23:17 -1.5 C 45 %
3952 28-12-2019 10:33:18 -1.3 C 45 %
3953 28-12-2019 10:43:18 -1.3 C 45 %
3954 28-12-2019 10:53:17 -1.1 C 45 %
3955 28-12-2019 11:03:18 -1 C 44 %
3956 28-12-2019 11:13:18 -0.9 C 44 %
3957 28-12-2019 11:23:17 -0.6 C 44 %
3958 28-12-2019 11:33:17 -0.5 C 43 %
3959 28-12-2019 11:43:18 -0.3 C 42 %
3960 28-12-2019 11:53:17 -0.2 C 42 %
3961 28-12-2019 12:03:17 -0.2 C 41 %
3962 28-12-2019 12:13:17 0 C 41 %
3963 28-12-2019 12:23:17 0.2 C 41 %
3964 28-12-2019 12:33:17 0.3 C 41 %
3965 28-12-2019 12:43:18 0.4 C 40 %
3966 28-12-2019 12:53:17 0.5 C 40 %
3967 28-12-2019 13:03:18 0.7 C 40 %
3968 28-12-2019 13:13:18 0.8 C 40 %
3969 28-12-2019 13:23:17 0.8 C 40 %
3970 28-12-2019 13:33:17 0.9 C 40 %
3971 28-12-2019 13:43:17 0.8 C 40 %
3972 28-12-2019 13:53:17 0.6 C 40 %
3973 28-12-2019 14:03:17 0.6 C 41 %
3974 28-12-2019 14:13:17 0.7 C 41 %
3975 28-12-2019 14:23:17 0.8 C 40 %
Sensor: Nr:Datum:Temp:Feuchte:
Aussen-T/F 3976 28-12-2019 14:33:17 0.7 C 40 %
3977 28-12-2019 14:43:17 0.6 C 40 %
3978 28-12-2019 14:53:17 0.5 C 40 %
3979 28-12-2019 15:03:17 0.5 C 40 %
3980 28-12-2019 15:13:18 0.5 C 40 %
3981 28-12-2019 15:23:17 0.2 C 40 %
3982 28-12-2019 15:33:17 0.4 C 40 %
3983 28-12-2019 15:43:17 0.3 C 39 %
3984 28-12-2019 15:53:18 0.4 C 39 %
3985 28-12-2019 16:03:17 0.3 C 38 %
3986 28-12-2019 16:13:17 0.2 C 38 %
3987 28-12-2019 16:23:17 0 C 39 %
3988 28-12-2019 16:33:17 0 C 39 %
3989 28-12-2019 16:43:17 -0.1 C 38 %
3990 28-12-2019 16:53:17 -0.3 C 39 %
3991 28-12-2019 17:03:17 -0.4 C 39 %
3992 28-12-2019 17:13:17 -0.4 C 40 %
3993 28-12-2019 17:23:17 -0.5 C 40 %
3994 28-12-2019 17:33:18 -0.6 C 40 %
3995 28-12-2019 17:43:18 -0.7 C 41 %
3996 28-12-2019 17:53:17 -1.3 C 41 %
3997 28-12-2019 18:03:17 -1.2 C 44 %
3998 28-12-2019 18:13:17 -1.1 C 43 %
3999 28-12-2019 18:23:17 -1.1 C 43 %
4000 28-12-2019 18:33:17 -0.9 C 43 %
Sensor: Nr:Datum:Temp:Feuchte:
Aussen-T/F 4001 28-12-2019 18:43:17 -1.2 C 43 %
4002 28-12-2019 18:53:17 -0.9 C 43 %
4003 28-12-2019 19:03:17 -1.2 C 42 %
4004 28-12-2019 19:13:18 -1.7 C 42 %
4005 28-12-2019 19:23:17 -1.9 C 43 %
4006 28-12-2019 19:33:18 -1.9 C 44 %
4007 28-12-2019 19:43:18 -1.9 C 44 %
4008 28-12-2019 19:53:17 -1.8 C 44 %
4009 28-12-2019 20:03:17 -1.9 C 44 %
4010 28-12-2019 20:13:17 -1.7 C 45 %
4011 28-12-2019 20:23:17 -1.2 C 45 %
4012 28-12-2019 20:33:18 -1.2 C 43 %
4013 28-12-2019 20:43:18 -1.4 C 43 %
4014 28-12-2019 20:53:18 -1.2 C 44 %
4015 28-12-2019 21:03:17 -1.6 C 43 %
4016 28-12-2019 21:13:17 -1.3 C 44 %
4017 28-12-2019 21:23:17 -1.4 C 41 %
4018 28-12-2019 21:33:17 -1.8 C 41 %
4019 28-12-2019 21:43:18 -1.6 C 43 %
4020 28-12-2019 21:53:17 -1.7 C 42 %
4021 28-12-2019 22:03:18 -1.7 C 42 %
4022 28-12-2019 22:13:18 -2.2 C 41 %
4023 28-12-2019 22:23:17 -2.3 C 42 %
4024 28-12-2019 22:33:17 -2.3 C 42 %
4025 28-12-2019 22:43:17 -2.5 C 42 %
Sensor: Nr:Datum:Temp:Feuchte:
Aussen-T/F 4026 28-12-2019 22:53:17 -2.2 C 43 %
4027 28-12-2019 23:03:17 -2.5 C 42 %
4028 28-12-2019 23:13:17 -2.3 C 43 %
4029 28-12-2019 23:23:17 -2.3 C 43 %
4030 28-12-2019 23:33:17 -2.7 C 42 %
4031 28-12-2019 23:43:17 -2.6 C 43 %
4032 28-12-2019 23:53:17 -2.9 C 42 %
4033 29-12-2019 00:03:18 -2.6 C 43 %
4034 29-12-2019 00:13:18 -2.9 C 43 %
4035 29-12-2019 00:23:17 -3.1 C 42 %
4036 29-12-2019 00:33:17 -3.2 C 43 %
4037 29-12-2019 00:43:17 -3.1 C 43 %
4038 29-12-2019 00:53:17 -3.1 C 43 %
4039 29-12-2019 01:03:17 -3.3 C 42 %
4040 29-12-2019 01:13:17 -3.3 C 43 %
4041 29-12-2019 01:23:17 -3.5 C 42 %
4042 29-12-2019 01:33:17 -3.7 C 42 %
4043 29-12-2019 01:43:17 -3 C 44 %
4044 29-12-2019 01:53:17 -3.5 C 42 %
4045 29-12-2019 02:03:17 -3.7 C 41 %
4046 29-12-2019 02:13:17 -3.8 C 42 %
4047 29-12-2019 02:23:17 -3.3 C 43 %
4048 29-12-2019 02:33:17 -3.7 C 41 %
4049 29-12-2019 02:43:17 -3.7 C 42 %
4050 29-12-2019 02:53:18 -3.8 C 41 %
Sensor: Nr:Datum:Temp:Feuchte:
Aussen-T/F 4051 29-12-2019 03:03:17 -4 C 41 %
4052 29-12-2019 03:13:17 -4 C 42 %
4053 29-12-2019 03:23:17 -4 C 41 %
4054 29-12-2019 03:33:17 -4.1 C 41 %
4055 29-12-2019 03:43:17 -4.1 C 41 %
4056 29-12-2019 03:53:18 -4 C 42 %
4057 29-12-2019 04:03:17 -4.2 C 41 %
4058 29-12-2019 04:13:17 -3.9 C 42 %
4059 29-12-2019 04:23:17 -4.1 C 41 %
4060 29-12-2019 04:33:17 -4.1 C 41 %
4061 29-12-2019 04:43:17 -4.4 C 41 %
4062 29-12-2019 04:53:17 -4.2 C 41 %
4063 29-12-2019 05:03:17 -4.3 C 41 %
4064 29-12-2019 05:13:17 -4.5 C 41 %
4065 29-12-2019 05:23:17 -4.5 C 41 %
4066 29-12-2019 05:33:18 -4.4 C 41 %
4067 29-12-2019 05:43:18 -4.5 C 41 %
4068 29-12-2019 05:53:17 -4.7 C 41 %
4069 29-12-2019 06:03:17 -4.6 C 41 %
4070 29-12-2019 06:13:17 -4.7 C 41 %
4071 29-12-2019 06:23:17 -4.8 C 41 %
4072 29-12-2019 06:33:17 -4.8 C 41 %
4073 29-12-2019 06:43:17 -4.8 C 41 %
4074 29-12-2019 06:53:17 -4.8 C 41 %
4075 29-12-2019 07:03:17 -4.9 C 41 %
Sensor: Nr:Datum:Temp:Feuchte:
Aussen-T/F 4076 29-12-2019 07:13:17 -4.9 C 41 %
4077 29-12-2019 07:23:17 -5 C 41 %
4078 29-12-2019 07:33:17 -4.5 C 42 %
4079 29-12-2019 07:43:17 -4.7 C 41 %
4080 29-12-2019 07:53:17 -4.7 C 41 %
4081 29-12-2019 08:03:17 -4.4 C 42 %
4082 29-12-2019 08:13:17 -4.3 C 42 %
4083 29-12-2019 08:23:18 -3.9 C 43 %
4084 29-12-2019 08:33:17 -4.1 C 41 %
4085 29-12-2019 08:43:17 -4.3 C 41 %
4086 29-12-2019 08:53:17 -4.5 C 40 %
4087 29-12-2019 09:03:17 -4.1 C 42 %
4088 29-12-2019 09:13:17 -3.9 C 42 %
4089 29-12-2019 09:23:18 -4 C 41 %
4090 29-12-2019 09:33:17 -4.1 C 41 %
4091 29-12-2019 09:43:17 -4 C 41 %
4092 29-12-2019 09:53:17 -4 C 41 %
4093 29-12-2019 10:03:18 -4 C 40 %
4094 29-12-2019 10:13:18 -3.9 C 41 %
4095 29-12-2019 10:23:17 -3.5 C 42 %
4096 29-12-2019 10:33:17 -3.3 C 42 %
4097 29-12-2019 10:43:17 -3.1 C 42 %
4098 29-12-2019 10:53:17 -2.6 C 43 %
4099 29-12-2019 11:03:17 -2.1 C 43 %
4100 29-12-2019 11:13:17 -1.8 C 42 %
Sensor: Nr:Datum:Temp:Feuchte:
Aussen-T/F 4101 29-12-2019 11:23:17 -1.4 C 43 %
4102 29-12-2019 11:33:17 -1.3 C 42 %
4103 29-12-2019 11:43:18 -0.8 C 43 %
4104 29-12-2019 11:53:17 -0.4 C 42 %
4105 29-12-2019 12:03:18 -0.5 C 41 %
4106 29-12-2019 12:13:18 -0.3 C 41 %
4107 29-12-2019 12:23:17 0.1 C 40 %
4108 29-12-2019 12:33:17 0.3 C 40 %
4109 29-12-2019 12:43:17 0.5 C 40 %
4110 29-12-2019 12:53:17 0.4 C 40 %
4111 29-12-2019 13:03:17 0.7 C 38 %
4112 29-12-2019 13:13:17 1 C 37 %
4113 29-12-2019 13:23:17 1 C 37 %
4114 29-12-2019 13:33:18 1.4 C 36 %
4115 29-12-2019 13:43:18 1.4 C 38 %
4116 29-12-2019 13:53:17 1.5 C 37 %
4117 29-12-2019 14:03:17 1.5 C 36 %
4118 29-12-2019 14:13:17 1.4 C 37 %
4119 29-12-2019 14:23:17 1.7 C 36 %
4120 29-12-2019 14:33:18 1.9 C 36 %
4121 29-12-2019 14:43:18 2.2 C 34 %
4122 29-12-2019 14:53:17 2.1 C 33 %
4123 29-12-2019 15:03:17 1.9 C 34 %
4124 29-12-2019 15:13:18 2 C 31 %
4125 29-12-2019 15:23:17 2 C 27 %
Sensor: Nr:Datum:Temp:Feuchte:
Aussen-T/F 4126 29-12-2019 15:33:17 1.9 C 30 %
4127 29-12-2019 15:43:17 1.5 C 32 %
4128 29-12-2019 15:53:18 1.1 C 32 %
4129 29-12-2019 16:03:17 0.5 C 35 %
4130 29-12-2019 16:13:17 0.2 C 38 %
4131 29-12-2019 16:23:17 0.2 C 39 %
4132 29-12-2019 16:33:18 -0.3 C 39 %
4133 29-12-2019 16:43:18 -0.1 C 40 %
4134 29-12-2019 16:53:17 -0.2 C 40 %
4135 29-12-2019 17:03:17 -0.2 C 40 %
4136 29-12-2019 17:13:17 -0.3 C 39 %
4137 29-12-2019 17:23:17 -0.3 C 37 %
4138 29-12-2019 17:33:17 -0.3 C 37 %
4139 29-12-2019 17:43:17 -0.1 C 36 %
4140 29-12-2019 17:53:17 -0.2 C 38 %
4141 29-12-2019 18:03:17 -0.1 C 37 %
4142 29-12-2019 18:13:17 0.1 C 37 %
4143 29-12-2019 18:23:17 0.2 C 36 %
4144 29-12-2019 18:33:17 -0.2 C 38 %
4145 29-12-2019 18:43:17 -0.5 C 40 %
4146 29-12-2019 18:53:17 -0.8 C 40 %
4147 29-12-2019 19:03:17 -0.5 C 41 %
4148 29-12-2019 19:13:17 -0.7 C 38 %
4149 29-12-2019 19:23:18 -0.6 C 37 %
4150 29-12-2019 19:33:18 -0.6 C 35 %
Sensor: Nr:Datum:Temp:Feuchte:
Aussen-T/F 4151 29-12-2019 19:43:18 -1 C 35 %
4152 29-12-2019 19:53:17 -1.1 C 36 %
4153 29-12-2019 20:03:18 -0.9 C 34 %
4154 29-12-2019 20:13:18 -1.2 C 36 %
4155 29-12-2019 20:23:17 -0.7 C 35 %
4156 29-12-2019 20:33:17 -1.3 C 37 %
4157 29-12-2019 20:43:17 -0.9 C 39 %
4158 29-12-2019 20:53:17 -1.5 C 39 %
4159 29-12-2019 21:03:17 -1.2 C 38 %
4160 29-12-2019 21:13:17 -1.8 C 37 %
4161 29-12-2019 21:23:17 -1.8 C 40 %
4162 29-12-2019 21:33:18 -1.8 C 41 %
4163 29-12-2019 21:43:18 -2.1 C 42 %
4164 29-12-2019 21:53:17 -2.3 C 42 %
4165 29-12-2019 22:03:17 -2.2 C 43 %
4166 29-12-2019 22:13:17 -2.1 C 43 %
4167 29-12-2019 22:23:17 -2.4 C 42 %
4168 29-12-2019 22:33:17 -2.7 C 42 %
4169 29-12-2019 22:43:18 -2.7 C 43 %
4170 29-12-2019 22:53:17 -2.7 C 43 %
4171 29-12-2019 23:03:17 -2.8 C 43 %
4172 29-12-2019 23:13:17 -2.7 C 44 %
4173 29-12-2019 23:23:17 -2.8 C 43 %
4174 29-12-2019 23:33:18 -3 C 43 %
4175 29-12-2019 23:43:18 -3 C 43 %
Sensor: Nr:Datum:Temp:Feuchte:
Aussen-T/F 4176 29-12-2019 23:53:17 -3 C 42 %
Sensor: Nr:Datum:Temp:Feuchte:
G-T/H 1 01-12-2019 00:00:17 9.2 C 70 %
2 01-12-2019 00:10:17 9.2 C 70 %
3 01-12-2019 00:20:17 9.2 C 70 %
4 01-12-2019 00:30:17 9.2 C 70 %
5 01-12-2019 00:40:17 9.2 C 70 %
6 01-12-2019 00:50:18 9.2 C 70 %
7 01-12-2019 01:00:17 9.2 C 70 %
8 01-12-2019 01:10:17 9.2 C 70 %
9 01-12-2019 01:20:17 9.1 C 70 %
10 01-12-2019 01:30:17 9.1 C 70 %
11 01-12-2019 01:40:17 9.1 C 70 %
12 01-12-2019 01:50:17 9.1 C 70 %
13 01-12-2019 02:00:17 9.1 C 70 %
14 01-12-2019 02:10:17 9.1 C 70 %
15 01-12-2019 02:20:17 9.1 C 69 %
16 01-12-2019 02:30:17 9.1 C 69 %
17 01-12-2019 02:40:17 9.1 C 69 %
18 01-12-2019 02:50:17 9.1 C 69 %
19 01-12-2019 03:00:17 9.1 C 69 %
20 01-12-2019 03:10:17 9.1 C 69 %
21 01-12-2019 03:20:17 9.1 C 69 %
22 01-12-2019 03:30:17 9.1 C 69 %
23 01-12-2019 03:40:17 9.1 C 69 %
24 01-12-2019 03:50:17 9 C 69 %
25 01-12-2019 04:00:17 9.1 C 69 %
Sensor: Nr:Datum:Temp:Feuchte:
G-T/H 26 01-12-2019 04:10:17 9 C 69 %
27 01-12-2019 04:20:17 9 C 69 %
28 01-12-2019 04:30:17 9 C 69 %
29 01-12-2019 04:40:17 9 C 69 %
30 01-12-2019 04:50:17 9 C 69 %
31 01-12-2019 05:00:17 9 C 69 %
32 01-12-2019 05:10:17 9 C 69 %
33 01-12-2019 05:20:17 8.9 C 70 %
34 01-12-2019 05:30:17 9 C 69 %
35 01-12-2019 05:40:17 9 C 69 %
36 01-12-2019 05:50:17 9 C 69 %
37 01-12-2019 06:00:17 8.9 C 70 %
38 01-12-2019 06:10:17 8.9 C 70 %
39 01-12-2019 06:20:17 8.9 C 70 %
40 01-12-2019 06:30:17 8.9 C 70 %
41 01-12-2019 06:40:17 8.9 C 70 %
42 01-12-2019 06:50:17 8.9 C 70 %
43 01-12-2019 07:00:17 8.9 C 70 %
44 01-12-2019 07:10:17 8.9 C 70 %
45 01-12-2019 07:20:17 8.9 C 70 %
46 01-12-2019 07:30:17 8.9 C 70 %
47 01-12-2019 07:40:17 8.9 C 70 %
48 01-12-2019 07:50:17 8.9 C 70 %
49 01-12-2019 08:00:17 8.9 C 70 %
50 01-12-2019 08:10:17 8.8 C 70 %
Sensor: Nr:Datum:Temp:Feuchte:
G-T/H 51 01-12-2019 08:20:17 8.8 C 70 %
52 01-12-2019 08:30:17 8.8 C 70 %
53 01-12-2019 08:40:17 8.7 C 69 %
54 01-12-2019 08:50:17 8.7 C 69 %
55 01-12-2019 09:00:17 8.7 C 69 %
56 01-12-2019 09:10:17 8.7 C 69 %
57 01-12-2019 09:20:17 8.7 C 69 %
58 01-12-2019 09:30:17 8.8 C 69 %
59 01-12-2019 09:40:17 8.7 C 70 %
60 01-12-2019 09:50:17 8.7 C 70 %
61 01-12-2019 10:00:17 8.7 C 70 %
62 01-12-2019 10:10:17 8.7 C 70 %
63 01-12-2019 10:20:17 8.7 C 70 %
64 01-12-2019 10:30:17 8.7 C 70 %
65 01-12-2019 10:40:17 8.7 C 70 %
66 01-12-2019 10:50:17 8.7 C 70 %
67 01-12-2019 11:00:17 8.7 C 70 %
68 01-12-2019 11:10:17 8.7 C 70 %
69 01-12-2019 11:20:17 8.7 C 70 %
70 01-12-2019 11:30:17 8.7 C 70 %
71 01-12-2019 11:40:17 8.7 C 70 %
72 01-12-2019 11:50:17 8.7 C 70 %
73 01-12-2019 12:00:17 8.7 C 70 %
74 01-12-2019 12:10:17 8.7 C 70 %
75 01-12-2019 12:20:17 8.7 C 70 %
Sensor: Nr:Datum:Temp:Feuchte:
G-T/H 76 01-12-2019 12:30:18 8.7 C 70 %
77 01-12-2019 12:40:18 8.7 C 70 %
78 01-12-2019 12:50:18 8.7 C 70 %
79 01-12-2019 13:00:17 8.7 C 70 %
80 01-12-2019 13:10:17 8.7 C 70 %
81 01-12-2019 13:20:18 8.7 C 70 %
82 01-12-2019 13:30:18 8.7 C 70 %
83 01-12-2019 13:40:18 8.7 C 70 %
84 01-12-2019 13:50:17 8.7 C 70 %
85 01-12-2019 14:00:17 8.7 C 70 %
86 01-12-2019 14:10:18 8.7 C 70 %
87 01-12-2019 14:20:18 8.7 C 70 %
88 01-12-2019 14:30:17 8.7 C 70 %
89 01-12-2019 14:40:17 8.7 C 70 %
90 01-12-2019 14:50:17 8.7 C 70 %
91 01-12-2019 15:00:17 8.7 C 70 %
92 01-12-2019 15:10:17 8.7 C 71 %
93 01-12-2019 15:20:17 8.7 C 71 %
94 01-12-2019 15:30:17 8.7 C 71 %
95 01-12-2019 15:40:17 8.7 C 71 %
96 01-12-2019 15:50:17 8.7 C 71 %
97 01-12-2019 16:00:17 8.7 C 71 %
98 01-12-2019 16:10:17 8.7 C 71 %
99 01-12-2019 16:20:17 8.7 C 71 %
100 01-12-2019 16:30:18 8.7 C 71 %
Sensor: Nr:Datum:Temp:Feuchte:
G-T/H 101 01-12-2019 16:40:18 8.7 C 71 %
102 01-12-2019 16:50:18 8.7 C 71 %
103 01-12-2019 17:00:18 8.7 C 71 %
104 01-12-2019 17:10:18 8.7 C 71 %
105 01-12-2019 17:20:17 8.7 C 71 %
106 01-12-2019 17:30:17 8.7 C 71 %
107 01-12-2019 17:40:17 8.7 C 71 %
108 01-12-2019 17:50:17 8.7 C 71 %
109 01-12-2019 18:00:17 8.7 C 71 %
110 01-12-2019 18:10:17 8.7 C 71 %
111 01-12-2019 18:20:17 8.7 C 71 %
112 01-12-2019 18:30:17 8.7 C 71 %
113 01-12-2019 18:40:17 8.7 C 71 %
114 01-12-2019 18:50:17 8.7 C 71 %
115 01-12-2019 19:00:17 8.7 C 71 %
116 01-12-2019 19:10:18 8.7 C 71 %
117 01-12-2019 19:20:17 8.7 C 71 %
118 01-12-2019 19:30:17 8.7 C 71 %
119 01-12-2019 19:40:17 8.7 C 71 %
120 01-12-2019 19:50:17 8.7 C 71 %
121 01-12-2019 20:00:17 8.7 C 71 %
122 01-12-2019 20:10:17 8.7 C 71 %
123 01-12-2019 20:20:17 8.7 C 71 %
124 01-12-2019 20:30:18 8.7 C 71 %
125 01-12-2019 20:40:18 8.7 C 71 %
Sensor: Nr:Datum:Temp:Feuchte:
G-T/H 126 01-12-2019 20:50:17 8.7 C 71 %
127 01-12-2019 21:00:17 8.7 C 71 %
128 01-12-2019 21:10:17 8.8 C 71 %
129 01-12-2019 21:20:17 8.7 C 71 %
130 01-12-2019 21:30:18 8.7 C 71 %
131 01-12-2019 21:40:18 8.7 C 71 %
132 01-12-2019 21:50:17 8.7 C 71 %
133 01-12-2019 22:00:17 8.7 C 71 %
134 01-12-2019 22:10:17 8.7 C 71 %
135 01-12-2019 22:20:17 8.7 C 71 %
136 01-12-2019 22:30:18 8.7 C 71 %
137 01-12-2019 22:40:18 8.7 C 71 %
138 01-12-2019 22:50:17 8.7 C 71 %
139 01-12-2019 23:00:17 8.7 C 71 %
140 01-12-2019 23:10:17 8.7 C 71 %
141 01-12-2019 23:20:18 8.7 C 71 %
142 01-12-2019 23:30:17 8.7 C 71 %
143 01-12-2019 23:40:17 8.7 C 71 %
144 01-12-2019 23:50:17 8.7 C 71 %
145 02-12-2019 00:00:17 8.7 C 71 %
146 02-12-2019 00:10:17 8.7 C 71 %
147 02-12-2019 00:20:17 8.7 C 71 %
148 02-12-2019 00:30:17 8.7 C 71 %
149 02-12-2019 00:40:17 8.7 C 71 %
150 02-12-2019 00:50:18 8.7 C 71 %
Sensor: Nr:Datum:Temp:Feuchte:
G-T/H 151 02-12-2019 01:00:17 8.7 C 71 %
152 02-12-2019 01:10:17 8.7 C 71 %
153 02-12-2019 01:20:17 8.7 C 71 %
154 02-12-2019 01:30:17 8.6 C 71 %
155 02-12-2019 01:40:17 8.7 C 71 %
156 02-12-2019 01:50:17 8.6 C 70 %
157 02-12-2019 02:00:18 8.6 C 70 %
158 02-12-2019 02:10:18 8.6 C 70 %
159 02-12-2019 02:20:17 8.6 C 70 %
160 02-12-2019 02:30:17 8.6 C 70 %
161 02-12-2019 02:40:17 8.6 C 70 %
162 02-12-2019 02:50:17 8.6 C 70 %
163 02-12-2019 03:00:17 8.6 C 70 %
164 02-12-2019 03:10:17 8.5 C 70 %
165 02-12-2019 03:20:17 8.5 C 70 %
166 02-12-2019 03:30:18 8.5 C 70 %
167 02-12-2019 03:40:18 8.5 C 70 %
168 02-12-2019 03:50:17 8.5 C 70 %
169 02-12-2019 04:00:18 8.5 C 70 %
170 02-12-2019 04:10:18 8.5 C 70 %
171 02-12-2019 04:20:17 8.5 C 70 %
172 02-12-2019 04:30:17 8.5 C 70 %
173 02-12-2019 04:40:17 8.5 C 70 %
174 02-12-2019 04:50:17 8.5 C 70 %
175 02-12-2019 05:00:17 8.5 C 70 %
Sensor: Nr:Datum:Temp:Feuchte:
G-T/H 176 02-12-2019 05:10:17 8.4 C 70 %
177 02-12-2019 05:20:17 8.4 C 70 %
178 02-12-2019 05:30:17 8.4 C 70 %
179 02-12-2019 05:40:17 8.4 C 70 %
180 02-12-2019 05:50:17 8.4 C 70 %
181 02-12-2019 06:00:17 8.4 C 70 %
182 02-12-2019 06:10:17 8.4 C 70 %
183 02-12-2019 06:20:17 8.4 C 70 %
184 02-12-2019 06:30:17 8.4 C 70 %
185 02-12-2019 06:40:17 8.4 C 69 %
186 02-12-2019 06:50:17 8.3 C 69 %
187 02-12-2019 07:00:17 8.3 C 69 %
188 02-12-2019 07:10:17 8.3 C 69 %
189 02-12-2019 07:20:17 8.3 C 69 %
190 02-12-2019 07:30:17 8.3 C 69 %
191 02-12-2019 07:40:17 8.3 C 69 %
192 02-12-2019 07:50:17 8.3 C 69 %
193 02-12-2019 08:00:17 8.3 C 69 %
194 02-12-2019 08:10:18 8.2 C 69 %
195 02-12-2019 08:20:17 8.2 C 69 %
196 02-12-2019 08:30:17 8.2 C 69 %
197 02-12-2019 08:40:17 8.2 C 69 %
198 02-12-2019 08:50:17 8.2 C 69 %
199 02-12-2019 09:00:17 8.2 C 69 %
200 02-12-2019 09:10:17 8.2 C 69 %
Sensor: Nr:Datum:Temp:Feuchte:
G-T/H 201 02-12-2019 09:20:17 8.2 C 69 %
202 02-12-2019 09:30:17 8.2 C 69 %
203 02-12-2019 09:40:17 8.2 C 69 %
204 02-12-2019 09:50:17 8.2 C 69 %
205 02-12-2019 10:00:17 8.2 C 69 %
206 02-12-2019 10:10:17 8.2 C 69 %
207 02-12-2019 10:20:17 8.2 C 69 %
208 02-12-2019 10:30:17 8.2 C 69 %
209 02-12-2019 10:40:17 8.2 C 69 %
210 02-12-2019 10:50:17 8.2 C 69 %
211 02-12-2019 11:00:17 8.2 C 69 %
212 02-12-2019 11:10:17 8.2 C 70 %
213 02-12-2019 11:20:17 8.2 C 70 %
214 02-12-2019 11:30:17 8.2 C 70 %
215 02-12-2019 11:40:18 8.2 C 70 %
216 02-12-2019 11:50:17 8.2 C 70 %
217 02-12-2019 12:00:18 8.2 C 70 %
218 02-12-2019 12:10:18 8.1 C 70 %
219 02-12-2019 12:20:17 8.1 C 70 %
220 02-12-2019 12:30:17 8.2 C 70 %
221 02-12-2019 12:40:17 8.2 C 70 %
222 02-12-2019 12:50:18 8.2 C 70 %
223 02-12-2019 13:00:17 8.2 C 70 %
224 02-12-2019 13:10:17 8.2 C 70 %
225 02-12-2019 13:20:17 8.2 C 70 %
Sensor: Nr:Datum:Temp:Feuchte:
G-T/H 226 02-12-2019 13:30:17 8.2 C 70 %
227 02-12-2019 13:40:17 8.2 C 70 %
228 02-12-2019 13:50:17 8.2 C 70 %
229 02-12-2019 14:00:17 8.2 C 70 %
230 02-12-2019 14:10:17 8.2 C 70 %
231 02-12-2019 14:20:17 8.2 C 70 %
232 02-12-2019 14:30:17 8.2 C 70 %
233 02-12-2019 14:40:17 8.2 C 71 %
234 02-12-2019 14:50:17 8.2 C 71 %
235 02-12-2019 15:00:18 8.2 C 71 %
236 02-12-2019 15:10:18 8.2 C 71 %
237 02-12-2019 15:20:17 8.2 C 71 %
238 02-12-2019 15:30:17 8.2 C 71 %
239 02-12-2019 15:40:17 8.3 C 71 %
240 02-12-2019 15:50:17 8.2 C 71 %
241 02-12-2019 16:00:18 8.3 C 71 %
242 02-12-2019 16:10:18 8.2 C 71 %
243 02-12-2019 16:20:17 8.2 C 71 %
244 02-12-2019 16:30:17 8.2 C 71 %
245 02-12-2019 16:40:17 8.2 C 71 %
246 02-12-2019 16:50:17 8.3 C 71 %
247 02-12-2019 17:00:17 8.2 C 71 %
248 02-12-2019 17:10:17 8.3 C 71 %
249 02-12-2019 17:20:17 8.3 C 71 %
250 02-12-2019 17:30:18 8.3 C 71 %
Sensor: Nr:Datum:Temp:Feuchte:
G-T/H 251 02-12-2019 17:40:18 8.3 C 72 %
252 02-12-2019 17:50:17 8.3 C 72 %
253 02-12-2019 18:01:17 8.3 C 72 %
254 02-12-2019 18:11:17 8.3 C 72 %
255 02-12-2019 18:21:17 8.3 C 72 %
256 02-12-2019 18:30:17 8.3 C 72 %
257 02-12-2019 18:40:17 8.3 C 72 %
258 02-12-2019 18:50:17 8.3 C 72 %
259 02-12-2019 19:00:17 8.3 C 72 %
260 02-12-2019 19:10:17 8.3 C 72 %
261 02-12-2019 19:21:17 8.4 C 72 %
262 02-12-2019 19:30:17 8.4 C 72 %
263 02-12-2019 19:40:17 8.4 C 72 %
264 02-12-2019 19:51:17 8.4 C 72 %
265 02-12-2019 20:01:17 8.4 C 72 %
266 02-12-2019 20:11:17 8.4 C 72 %
267 02-12-2019 20:21:17 8.4 C 72 %
268 02-12-2019 20:31:17 8.4 C 72 %
269 02-12-2019 20:40:17 8.4 C 72 %
270 02-12-2019 20:51:17 8.4 C 72 %
271 02-12-2019 21:00:17 8.4 C 72 %
272 02-12-2019 21:10:17 8.4 C 72 %
273 02-12-2019 21:21:17 8.4 C 72 %
274 02-12-2019 21:30:18 8.4 C 72 %
275 02-12-2019 21:40:18 8.4 C 72 %
Sensor: Nr:Datum:Temp:Feuchte:
G-T/H 276 02-12-2019 21:51:17 8.4 C 72 %
277 02-12-2019 22:01:17 8.4 C 72 %
278 02-12-2019 22:11:17 8.4 C 72 %
279 02-12-2019 22:21:17 8.4 C 72 %
280 02-12-2019 22:30:18 8.4 C 72 %
281 02-12-2019 22:40:18 8.4 C 72 %
282 02-12-2019 22:51:17 8.4 C 72 %
283 02-12-2019 23:01:17 8.4 C 72 %
284 02-12-2019 23:11:17 8.4 C 72 %
285 02-12-2019 23:21:17 8.4 C 72 %
286 02-12-2019 23:31:17 8.4 C 72 %
287 02-12-2019 23:41:17 8.4 C 72 %
288 02-12-2019 23:50:18 8.4 C 72 %
289 03-12-2019 00:01:17 8.4 C 72 %
290 03-12-2019 00:11:17 8.4 C 72 %
291 03-12-2019 00:21:17 8.4 C 72 %
292 03-12-2019 00:30:18 8.4 C 72 %
293 03-12-2019 00:40:18 8.4 C 72 %
294 03-12-2019 00:51:17 8.4 C 72 %
295 03-12-2019 01:01:18 8.4 C 72 %
296 03-12-2019 01:11:18 8.5 C 72 %
297 03-12-2019 01:21:17 8.5 C 72 %
298 03-12-2019 01:31:17 8.5 C 72 %
299 03-12-2019 01:41:17 8.5 C 72 %
300 03-12-2019 01:51:17 8.5 C 72 %
Sensor: Nr:Datum:Temp:Feuchte:
G-T/H 301 03-12-2019 02:01:17 8.5 C 72 %
302 03-12-2019 02:11:17 8.5 C 72 %
303 03-12-2019 02:21:17 8.5 C 72 %
304 03-12-2019 02:31:17 8.5 C 72 %
305 03-12-2019 02:41:17 8.5 C 72 %
306 03-12-2019 02:51:17 8.5 C 72 %
307 03-12-2019 03:01:17 8.5 C 73 %
308 03-12-2019 03:11:17 8.5 C 73 %
309 03-12-2019 03:21:17 8.5 C 73 %
310 03-12-2019 03:31:17 8.5 C 73 %
311 03-12-2019 03:41:17 8.5 C 73 %
312 03-12-2019 03:51:17 8.5 C 73 %
313 03-12-2019 04:01:17 8.5 C 73 %
314 03-12-2019 04:11:17 8.5 C 73 %
315 03-12-2019 04:21:17 8.5 C 73 %
316 03-12-2019 04:31:17 8.5 C 73 %
317 03-12-2019 04:41:17 8.5 C 73 %
318 03-12-2019 04:51:17 8.5 C 73 %
319 03-12-2019 05:01:17 8.5 C 73 %
320 03-12-2019 05:11:17 8.5 C 73 %
321 03-12-2019 05:21:17 8.5 C 73 %
322 03-12-2019 05:31:17 8.5 C 73 %
323 03-12-2019 05:41:17 8.5 C 73 %
324 03-12-2019 05:51:17 8.5 C 73 %
325 03-12-2019 06:01:18 8.5 C 73 %
Sensor: Nr:Datum:Temp:Feuchte:
G-T/H 326 03-12-2019 06:11:18 8.5 C 73 %
327 03-12-2019 06:21:17 8.5 C 73 %
328 03-12-2019 06:31:17 8.5 C 73 %
329 03-12-2019 06:41:17 8.5 C 73 %
330 03-12-2019 06:51:18 8.5 C 73 %
331 03-12-2019 07:01:17 8.5 C 73 %
332 03-12-2019 07:11:17 8.5 C 73 %
333 03-12-2019 07:21:17 8.5 C 73 %
334 03-12-2019 07:31:17 8.6 C 73 %
335 03-12-2019 07:41:17 8.5 C 73 %
336 03-12-2019 07:51:17 8.6 C 73 %
337 03-12-2019 08:01:17 8.6 C 73 %
338 03-12-2019 08:11:17 8.6 C 73 %
339 03-12-2019 08:21:17 8.6 C 73 %
340 03-12-2019 08:31:17 8.6 C 73 %
341 03-12-2019 08:41:17 8.6 C 73 %
342 03-12-2019 08:51:17 8.6 C 73 %
343 03-12-2019 09:01:17 8.6 C 73 %
344 03-12-2019 09:11:17 8.6 C 73 %
345 03-12-2019 09:21:17 8.6 C 73 %
346 03-12-2019 09:31:17 8.6 C 73 %
347 03-12-2019 09:41:17 8.6 C 73 %
348 03-12-2019 09:51:17 8.6 C 73 %
349 03-12-2019 10:01:17 8.6 C 73 %
350 03-12-2019 10:11:17 8.6 C 73 %
Sensor: Nr:Datum:Temp:Feuchte:
G-T/H 351 03-12-2019 10:21:17 8.6 C 73 %
352 03-12-2019 10:31:17 8.6 C 73 %
353 03-12-2019 10:41:17 8.6 C 73 %
354 03-12-2019 10:51:17 8.7 C 73 %
355 03-12-2019 11:01:18 8.6 C 73 %
356 03-12-2019 11:11:18 8.7 C 73 %
357 03-12-2019 11:21:17 8.7 C 73 %
358 03-12-2019 11:31:17 8.7 C 73 %
359 03-12-2019 11:41:17 8.7 C 73 %
360 03-12-2019 11:51:17 8.7 C 74 %
361 03-12-2019 12:01:17 8.7 C 74 %
362 03-12-2019 12:11:17 8.7 C 74 %
363 03-12-2019 12:21:17 8.7 C 74 %
364 03-12-2019 12:31:17 8.7 C 74 %
365 03-12-2019 12:41:17 8.7 C 74 %
366 03-12-2019 12:51:18 8.8 C 74 %
367 03-12-2019 13:01:17 8.8 C 74 %
368 03-12-2019 13:11:17 8.7 C 74 %
369 03-12-2019 13:21:17 8.7 C 74 %
370 03-12-2019 13:31:17 8.7 C 74 %
371 03-12-2019 13:41:17 8.8 C 74 %
372 03-12-2019 13:51:18 8.8 C 74 %
373 03-12-2019 14:01:17 8.8 C 74 %
374 03-12-2019 14:11:17 8.8 C 74 %
375 03-12-2019 14:21:17 8.8 C 74 %
Sensor: Nr:Datum:Temp:Feuchte:
G-T/H 376 03-12-2019 14:31:17 8.8 C 74 %
377 03-12-2019 14:41:17 8.8 C 74 %
378 03-12-2019 14:51:18 8.8 C 74 %
379 03-12-2019 15:01:17 8.9 C 74 %
380 03-12-2019 15:11:17 8.9 C 74 %
381 03-12-2019 15:21:17 8.9 C 74 %
382 03-12-2019 15:31:17 8.9 C 74 %
383 03-12-2019 15:41:17 8.9 C 74 %
384 03-12-2019 15:51:17 8.9 C 74 %
385 03-12-2019 16:01:17 8.9 C 74 %
386 03-12-2019 16:11:17 8.9 C 74 %
387 03-12-2019 16:21:17 8.9 C 74 %
388 03-12-2019 16:31:18 8.9 C 74 %
389 03-12-2019 16:41:18 8.9 C 74 %
390 03-12-2019 16:51:17 8.9 C 74 %
391 03-12-2019 17:01:18 8.9 C 74 %
392 03-12-2019 17:11:18 8.9 C 74 %
393 03-12-2019 17:21:17 9 C 74 %
394 03-12-2019 17:31:17 9 C 74 %
395 03-12-2019 17:41:17 9 C 74 %
396 03-12-2019 17:51:17 9 C 74 %
397 03-12-2019 18:01:18 9 C 74 %
398 03-12-2019 18:11:18 9 C 74 %
399 03-12-2019 18:21:17 9 C 74 %
400 03-12-2019 18:31:18 9 C 74 %
Sensor: Nr:Datum:Temp:Feuchte:
G-T/H 401 03-12-2019 18:41:18 9 C 74 %
402 03-12-2019 18:51:17 9 C 74 %
403 03-12-2019 19:01:17 9 C 74 %
404 03-12-2019 19:11:17 9 C 74 %
405 03-12-2019 19:21:17 9 C 74 %
406 03-12-2019 19:31:17 9 C 74 %
407 03-12-2019 19:41:17 9.1 C 74 %
408 03-12-2019 19:51:17 9.1 C 74 %
409 03-12-2019 20:01:17 9.1 C 74 %
410 03-12-2019 20:11:17 9.1 C 74 %
411 03-12-2019 20:21:18 9.1 C 74 %
412 03-12-2019 20:31:17 9.1 C 74 %
413 03-12-2019 20:41:18 9.1 C 74 %
414 03-12-2019 20:51:17 9.1 C 74 %
415 03-12-2019 21:01:17 9.1 C 74 %
416 03-12-2019 21:11:17 9.1 C 74 %
417 03-12-2019 21:21:17 9.1 C 74 %
418 03-12-2019 21:31:17 9.1 C 74 %
419 03-12-2019 21:41:17 9.1 C 74 %
420 03-12-2019 21:51:17 9.1 C 74 %
421 03-12-2019 22:01:17 9.1 C 74 %
422 03-12-2019 22:11:17 9.1 C 74 %
423 03-12-2019 22:21:18 9.1 C 74 %
424 03-12-2019 22:31:18 9.1 C 74 %
425 03-12-2019 22:41:18 9.1 C 74 %
Sensor: Nr:Datum:Temp:Feuchte:
G-T/H 426 03-12-2019 22:51:17 9.1 C 74 %
427 03-12-2019 23:01:18 9.1 C 74 %
428 03-12-2019 23:11:18 9.1 C 73 %
429 03-12-2019 23:21:17 9.1 C 73 %
430 03-12-2019 23:31:17 9.1 C 73 %
431 03-12-2019 23:41:17 9.1 C 73 %
432 03-12-2019 23:51:17 9.1 C 73 %
433 04-12-2019 00:01:18 9.1 C 73 %
434 04-12-2019 00:11:18 9.1 C 73 %
435 04-12-2019 00:21:17 9.1 C 73 %
436 04-12-2019 00:31:17 9.1 C 73 %
437 04-12-2019 00:41:17 9.1 C 73 %
438 04-12-2019 00:51:17 9.1 C 73 %
439 04-12-2019 01:01:18 9.1 C 73 %
440 04-12-2019 01:11:18 9.1 C 73 %
441 04-12-2019 01:21:17 9.1 C 73 %
442 04-12-2019 01:31:17 9.1 C 73 %
443 04-12-2019 01:41:17 9.1 C 73 %
444 04-12-2019 01:51:18 9 C 73 %
445 04-12-2019 02:01:17 9 C 73 %
446 04-12-2019 02:11:17 9 C 72 %
447 04-12-2019 02:21:17 9 C 72 %
448 04-12-2019 02:31:18 9 C 72 %
449 04-12-2019 02:41:18 9 C 72 %
450 04-12-2019 02:51:17 9 C 72 %
Sensor: Nr:Datum:Temp:Feuchte:
G-T/H 451 04-12-2019 03:01:18 9 C 72 %
452 04-12-2019 03:11:18 9 C 72 %
453 04-12-2019 03:21:17 9 C 72 %
454 04-12-2019 03:31:17 9 C 72 %
455 04-12-2019 03:41:17 9 C 72 %
456 04-12-2019 03:51:17 9 C 72 %
457 04-12-2019 04:01:18 9 C 72 %
458 04-12-2019 04:11:18 9 C 72 %
459 04-12-2019 04:21:17 8.9 C 73 %
460 04-12-2019 04:31:17 8.9 C 73 %
461 04-12-2019 04:41:17 8.9 C 73 %
462 04-12-2019 04:51:17 8.9 C 73 %
463 04-12-2019 05:01:17 8.9 C 73 %
464 04-12-2019 05:11:17 8.9 C 73 %
465 04-12-2019 05:21:17 8.9 C 73 %
466 04-12-2019 05:31:17 8.9 C 73 %
467 04-12-2019 05:41:17 8.9 C 73 %
468 04-12-2019 05:51:18 8.9 C 73 %
469 04-12-2019 06:01:17 8.9 C 73 %
470 04-12-2019 06:11:17 8.9 C 73 %
471 04-12-2019 06:21:17 8.9 C 73 %
472 04-12-2019 06:31:17 8.9 C 73 %
473 04-12-2019 06:41:18 8.8 C 73 %
474 04-12-2019 06:51:17 8.8 C 73 %
475 04-12-2019 07:01:17 8.9 C 73 %
Sensor: Nr:Datum:Temp:Feuchte:
G-T/H 476 04-12-2019 07:11:17 8.9 C 73 %
477 04-12-2019 07:21:18 8.8 C 73 %
478 04-12-2019 07:31:17 8.8 C 73 %
479 04-12-2019 07:41:17 8.8 C 73 %
480 04-12-2019 07:51:17 8.8 C 73 %
481 04-12-2019 08:01:17 8.8 C 73 %
482 04-12-2019 08:11:17 8.8 C 73 %
483 04-12-2019 08:21:17 8.8 C 73 %
484 04-12-2019 08:31:17 8.8 C 73 %
485 04-12-2019 08:41:17 8.8 C 73 %
486 04-12-2019 08:51:17 8.8 C 73 %
487 04-12-2019 09:01:18 8.8 C 73 %
488 04-12-2019 09:11:18 8.7 C 73 %
489 04-12-2019 09:21:18 8.7 C 73 %
490 04-12-2019 09:31:17 8.7 C 73 %
491 04-12-2019 09:41:17 8.7 C 73 %
492 04-12-2019 09:51:17 8.7 C 73 %
493 04-12-2019 10:01:17 8.7 C 73 %
494 04-12-2019 10:11:18 8.7 C 73 %
495 04-12-2019 10:21:17 8.7 C 73 %
496 04-12-2019 10:31:17 8.7 C 72 %
497 04-12-2019 10:41:17 8.7 C 72 %
498 04-12-2019 10:51:18 8.7 C 72 %
499 04-12-2019 11:01:17 8.7 C 72 %
500 04-12-2019 11:11:17 8.7 C 72 %
Sensor: Nr:Datum:Temp:Feuchte:
G-T/H 501 04-12-2019 11:21:17 8.7 C 72 %
502 04-12-2019 11:31:18 8.7 C 72 %
503 04-12-2019 11:41:18 8.7 C 72 %
504 04-12-2019 11:51:17 8.7 C 72 %
505 04-12-2019 12:01:17 8.7 C 72 %
506 04-12-2019 12:11:17 8.7 C 72 %
507 04-12-2019 12:21:18 8.7 C 72 %
508 04-12-2019 12:31:17 </